<?xml version="1.0" encoding="UTF-8" standalone="no" ?>
<gpx xmlns="http://www.topografix.com/GPX/1/1" xmlns:xsi="http://www.w3.org/2001/XMLSchema-instance" xsi:schemaLocation="http://www.topografix.com/GPX/1/1 http://www.topografix.com/GPX/1/1/gpx.xsd" version="1.1" creator="VisuGPX - https://www.visugpx.com">
  <metadata>
    <name>Conliège,La reculée de Revigny,Le Retour de la chasse</name>
  </metadata>
  <trk>
    <name><![CDATA[Conliège,La reculée de Revigny,Le Retour de la chasse_1]]></name>
    <extensions>
      <line xmlns="http://www.topografix.com/GPX/gpx_style/0/2">
        <color>0000FF</color>
        <width>4</width>
      </line>
    </extensions>
    <trkseg>
      <trkpt lat="46.65262" lon="5.60015">
        <ele>307</ele>
        <time>2021-04-03T11:38:29Z</time>
      </trkpt>
      <trkpt lat="46.65259" lon="5.6001">
        <ele>294.1</ele>
        <time>2021-04-03T11:38:51Z</time>
      </trkpt>
      <trkpt lat="46.6526" lon="5.60003">
        <ele>294.7</ele>
        <time>2021-04-03T11:39:12Z</time>
      </trkpt>
      <trkpt lat="46.65263" lon="5.60009">
        <ele>298.4</ele>
        <time>2021-04-03T11:39:26Z</time>
      </trkpt>
      <trkpt lat="46.6526" lon="5.60015">
        <ele>300.3</ele>
        <time>2021-04-03T11:39:33Z</time>
      </trkpt>
      <trkpt lat="46.65257" lon="5.60021">
        <ele>302</ele>
        <time>2021-04-03T11:39:37Z</time>
      </trkpt>
      <trkpt lat="46.65255" lon="5.60028">
        <ele>304.4</ele>
        <time>2021-04-03T11:39:42Z</time>
      </trkpt>
      <trkpt lat="46.65255" lon="5.60035">
        <ele>307.3</ele>
        <time>2021-04-03T11:39:47Z</time>
      </trkpt>
      <trkpt lat="46.65251" lon="5.60038">
        <ele>310.5</ele>
        <time>2021-04-03T11:39:53Z</time>
      </trkpt>
      <trkpt lat="46.65246" lon="5.6004">
        <ele>313.1</ele>
        <time>2021-04-03T11:39:58Z</time>
      </trkpt>
      <trkpt lat="46.6524" lon="5.60042">
        <ele>316.2</ele>
        <time>2021-04-03T11:40:03Z</time>
      </trkpt>
      <trkpt lat="46.65235" lon="5.60043">
        <ele>318.9</ele>
        <time>2021-04-03T11:40:07Z</time>
      </trkpt>
      <trkpt lat="46.6523" lon="5.60048">
        <ele>322.4</ele>
        <time>2021-04-03T11:40:11Z</time>
      </trkpt>
      <trkpt lat="46.65225" lon="5.60052">
        <ele>325.6</ele>
        <time>2021-04-03T11:40:15Z</time>
      </trkpt>
      <trkpt lat="46.65221" lon="5.60056">
        <ele>326.6</ele>
        <time>2021-04-03T11:40:19Z</time>
      </trkpt>
      <trkpt lat="46.65216" lon="5.60059">
        <ele>328</ele>
        <time>2021-04-03T11:40:24Z</time>
      </trkpt>
      <trkpt lat="46.65209" lon="5.60068">
        <ele>331.7</ele>
        <time>2021-04-03T11:40:28Z</time>
      </trkpt>
      <trkpt lat="46.65203" lon="5.6007">
        <ele>335.6</ele>
        <time>2021-04-03T11:40:32Z</time>
      </trkpt>
      <trkpt lat="46.65196" lon="5.60073">
        <ele>340.7</ele>
        <time>2021-04-03T11:40:36Z</time>
      </trkpt>
      <trkpt lat="46.65193" lon="5.60079">
        <ele>345.7</ele>
        <time>2021-04-03T11:40:43Z</time>
      </trkpt>
      <trkpt lat="46.65191" lon="5.60085">
        <ele>347.4</ele>
        <time>2021-04-03T11:40:52Z</time>
      </trkpt>
      <trkpt lat="46.65186" lon="5.60087">
        <ele>348</ele>
        <time>2021-04-03T11:40:58Z</time>
      </trkpt>
      <trkpt lat="46.65181" lon="5.60088">
        <ele>347.5</ele>
        <time>2021-04-03T11:41:04Z</time>
      </trkpt>
      <trkpt lat="46.65177" lon="5.60088">
        <ele>342</ele>
        <time>2021-04-03T11:41:09Z</time>
      </trkpt>
      <trkpt lat="46.65172" lon="5.60091">
        <ele>337.2</ele>
        <time>2021-04-03T11:41:14Z</time>
      </trkpt>
      <trkpt lat="46.65167" lon="5.60093">
        <ele>334.2</ele>
        <time>2021-04-03T11:41:19Z</time>
      </trkpt>
      <trkpt lat="46.65163" lon="5.60094">
        <ele>331.5</ele>
        <time>2021-04-03T11:41:25Z</time>
      </trkpt>
      <trkpt lat="46.65158" lon="5.60096">
        <ele>329.2</ele>
        <time>2021-04-03T11:41:31Z</time>
      </trkpt>
      <trkpt lat="46.65154" lon="5.60099">
        <ele>327.2</ele>
        <time>2021-04-03T11:41:37Z</time>
      </trkpt>
      <trkpt lat="46.65149" lon="5.60101">
        <ele>325.7</ele>
        <time>2021-04-03T11:41:42Z</time>
      </trkpt>
      <trkpt lat="46.65144" lon="5.60103">
        <ele>324.6</ele>
        <time>2021-04-03T11:41:47Z</time>
      </trkpt>
      <trkpt lat="46.65138" lon="5.60106">
        <ele>324</ele>
        <time>2021-04-03T11:41:52Z</time>
      </trkpt>
      <trkpt lat="46.65134" lon="5.60109">
        <ele>323.9</ele>
        <time>2021-04-03T11:41:57Z</time>
      </trkpt>
      <trkpt lat="46.6513" lon="5.60113">
        <ele>324</ele>
        <time>2021-04-03T11:42:01Z</time>
      </trkpt>
      <trkpt lat="46.65126" lon="5.60116">
        <ele>323.9</ele>
        <time>2021-04-03T11:42:05Z</time>
      </trkpt>
      <trkpt lat="46.65122" lon="5.60119">
        <ele>323.7</ele>
        <time>2021-04-03T11:42:09Z</time>
      </trkpt>
      <trkpt lat="46.65117" lon="5.60122">
        <ele>323.7</ele>
        <time>2021-04-03T11:42:13Z</time>
      </trkpt>
      <trkpt lat="46.65113" lon="5.60125">
        <ele>323.5</ele>
        <time>2021-04-03T11:42:17Z</time>
      </trkpt>
      <trkpt lat="46.65108" lon="5.60128">
        <ele>323.2</ele>
        <time>2021-04-03T11:42:22Z</time>
      </trkpt>
      <trkpt lat="46.65104" lon="5.60131">
        <ele>322.7</ele>
        <time>2021-04-03T11:42:27Z</time>
      </trkpt>
      <trkpt lat="46.651" lon="5.60134">
        <ele>322.4</ele>
        <time>2021-04-03T11:42:33Z</time>
      </trkpt>
      <trkpt lat="46.65096" lon="5.60139">
        <ele>322</ele>
        <time>2021-04-03T11:42:38Z</time>
      </trkpt>
      <trkpt lat="46.65092" lon="5.60143">
        <ele>321.3</ele>
        <time>2021-04-03T11:42:42Z</time>
      </trkpt>
      <trkpt lat="46.65087" lon="5.60146">
        <ele>320.7</ele>
        <time>2021-04-03T11:42:46Z</time>
      </trkpt>
      <trkpt lat="46.65083" lon="5.60149">
        <ele>320.2</ele>
        <time>2021-04-03T11:42:50Z</time>
      </trkpt>
      <trkpt lat="46.65079" lon="5.60152">
        <ele>319.5</ele>
        <time>2021-04-03T11:42:55Z</time>
      </trkpt>
      <trkpt lat="46.65076" lon="5.60159">
        <ele>318.8</ele>
        <time>2021-04-03T11:43:01Z</time>
      </trkpt>
      <trkpt lat="46.65074" lon="5.60165">
        <ele>318.7</ele>
        <time>2021-04-03T11:43:06Z</time>
      </trkpt>
      <trkpt lat="46.65072" lon="5.60172">
        <ele>319.5</ele>
        <time>2021-04-03T11:43:11Z</time>
      </trkpt>
      <trkpt lat="46.65068" lon="5.60177">
        <ele>320.3</ele>
        <time>2021-04-03T11:43:16Z</time>
      </trkpt>
      <trkpt lat="46.65061" lon="5.60178">
        <ele>320.9</ele>
        <time>2021-04-03T11:43:20Z</time>
      </trkpt>
      <trkpt lat="46.65055" lon="5.60179">
        <ele>321.3</ele>
        <time>2021-04-03T11:43:25Z</time>
      </trkpt>
      <trkpt lat="46.6505" lon="5.60181">
        <ele>322.3</ele>
        <time>2021-04-03T11:43:30Z</time>
      </trkpt>
      <trkpt lat="46.65046" lon="5.60184">
        <ele>323.2</ele>
        <time>2021-04-03T11:43:34Z</time>
      </trkpt>
      <trkpt lat="46.65041" lon="5.60187">
        <ele>323.8</ele>
        <time>2021-04-03T11:43:39Z</time>
      </trkpt>
      <trkpt lat="46.65036" lon="5.60191">
        <ele>323.8</ele>
        <time>2021-04-03T11:43:44Z</time>
      </trkpt>
      <trkpt lat="46.65032" lon="5.60194">
        <ele>323.6</ele>
        <time>2021-04-03T11:43:48Z</time>
      </trkpt>
      <trkpt lat="46.65028" lon="5.60197">
        <ele>323.3</ele>
        <time>2021-04-03T11:43:52Z</time>
      </trkpt>
      <trkpt lat="46.65023" lon="5.60199">
        <ele>323</ele>
        <time>2021-04-03T11:43:56Z</time>
      </trkpt>
      <trkpt lat="46.65018" lon="5.60202">
        <ele>322.5</ele>
        <time>2021-04-03T11:44:01Z</time>
      </trkpt>
      <trkpt lat="46.65013" lon="5.60204">
        <ele>322.1</ele>
        <time>2021-04-03T11:44:06Z</time>
      </trkpt>
      <trkpt lat="46.65008" lon="5.60206">
        <ele>321.9</ele>
        <time>2021-04-03T11:44:10Z</time>
      </trkpt>
      <trkpt lat="46.65004" lon="5.60209">
        <ele>322.3</ele>
        <time>2021-04-03T11:44:14Z</time>
      </trkpt>
      <trkpt lat="46.64999" lon="5.60212">
        <ele>323.1</ele>
        <time>2021-04-03T11:44:19Z</time>
      </trkpt>
      <trkpt lat="46.64995" lon="5.60214">
        <ele>323.7</ele>
        <time>2021-04-03T11:44:24Z</time>
      </trkpt>
      <trkpt lat="46.64989" lon="5.60216">
        <ele>324.4</ele>
        <time>2021-04-03T11:44:29Z</time>
      </trkpt>
      <trkpt lat="46.64984" lon="5.60218">
        <ele>324.5</ele>
        <time>2021-04-03T11:44:34Z</time>
      </trkpt>
      <trkpt lat="46.64979" lon="5.6022">
        <ele>324.3</ele>
        <time>2021-04-03T11:44:39Z</time>
      </trkpt>
      <trkpt lat="46.64974" lon="5.60223">
        <ele>324.6</ele>
        <time>2021-04-03T11:44:43Z</time>
      </trkpt>
      <trkpt lat="46.64969" lon="5.60224">
        <ele>325.3</ele>
        <time>2021-04-03T11:44:47Z</time>
      </trkpt>
      <trkpt lat="46.64965" lon="5.60227">
        <ele>326</ele>
        <time>2021-04-03T11:44:51Z</time>
      </trkpt>
      <trkpt lat="46.6496" lon="5.60229">
        <ele>326.7</ele>
        <time>2021-04-03T11:44:56Z</time>
      </trkpt>
      <trkpt lat="46.64956" lon="5.60231">
        <ele>327.2</ele>
        <time>2021-04-03T11:45:00Z</time>
      </trkpt>
      <trkpt lat="46.64951" lon="5.60233">
        <ele>328</ele>
        <time>2021-04-03T11:45:05Z</time>
      </trkpt>
      <trkpt lat="46.64946" lon="5.60235">
        <ele>328</ele>
        <time>2021-04-03T11:45:10Z</time>
      </trkpt>
      <trkpt lat="46.64941" lon="5.60239">
        <ele>328.1</ele>
        <time>2021-04-03T11:45:14Z</time>
      </trkpt>
      <trkpt lat="46.64936" lon="5.60242">
        <ele>328.4</ele>
        <time>2021-04-03T11:45:18Z</time>
      </trkpt>
      <trkpt lat="46.6493" lon="5.60244">
        <ele>328.6</ele>
        <time>2021-04-03T11:45:23Z</time>
      </trkpt>
      <trkpt lat="46.64925" lon="5.60245">
        <ele>328.6</ele>
        <time>2021-04-03T11:45:28Z</time>
      </trkpt>
      <trkpt lat="46.6492" lon="5.60246">
        <ele>327.8</ele>
        <time>2021-04-03T11:45:34Z</time>
      </trkpt>
      <trkpt lat="46.64915" lon="5.60249">
        <ele>327</ele>
        <time>2021-04-03T11:45:39Z</time>
      </trkpt>
      <trkpt lat="46.6491" lon="5.60251">
        <ele>326.1</ele>
        <time>2021-04-03T11:45:44Z</time>
      </trkpt>
      <trkpt lat="46.64906" lon="5.60252">
        <ele>325.7</ele>
        <time>2021-04-03T11:45:49Z</time>
      </trkpt>
      <trkpt lat="46.649" lon="5.60252">
        <ele>325.5</ele>
        <time>2021-04-03T11:45:54Z</time>
      </trkpt>
      <trkpt lat="46.64895" lon="5.60252">
        <ele>326.1</ele>
        <time>2021-04-03T11:45:59Z</time>
      </trkpt>
      <trkpt lat="46.6489" lon="5.60252">
        <ele>326.6</ele>
        <time>2021-04-03T11:46:03Z</time>
      </trkpt>
      <trkpt lat="46.64885" lon="5.60253">
        <ele>326.5</ele>
        <time>2021-04-03T11:46:08Z</time>
      </trkpt>
      <trkpt lat="46.6488" lon="5.60255">
        <ele>326.6</ele>
        <time>2021-04-03T11:46:12Z</time>
      </trkpt>
      <trkpt lat="46.64875" lon="5.60257">
        <ele>327.2</ele>
        <time>2021-04-03T11:46:16Z</time>
      </trkpt>
      <trkpt lat="46.64869" lon="5.60259">
        <ele>327.6</ele>
        <time>2021-04-03T11:46:21Z</time>
      </trkpt>
      <trkpt lat="46.64865" lon="5.6026">
        <ele>328.2</ele>
        <time>2021-04-03T11:46:25Z</time>
      </trkpt>
      <trkpt lat="46.6486" lon="5.6026">
        <ele>329</ele>
        <time>2021-04-03T11:46:30Z</time>
      </trkpt>
      <trkpt lat="46.64855" lon="5.60261">
        <ele>329.3</ele>
        <time>2021-04-03T11:46:36Z</time>
      </trkpt>
      <trkpt lat="46.6485" lon="5.60262">
        <ele>329.3</ele>
        <time>2021-04-03T11:46:42Z</time>
      </trkpt>
      <trkpt lat="46.64845" lon="5.60263">
        <ele>329.2</ele>
        <time>2021-04-03T11:46:47Z</time>
      </trkpt>
      <trkpt lat="46.64841" lon="5.60264">
        <ele>329.1</ele>
        <time>2021-04-03T11:46:51Z</time>
      </trkpt>
      <trkpt lat="46.64836" lon="5.60265">
        <ele>329.1</ele>
        <time>2021-04-03T11:46:55Z</time>
      </trkpt>
      <trkpt lat="46.6483" lon="5.60265">
        <ele>329.1</ele>
        <time>2021-04-03T11:47:00Z</time>
      </trkpt>
      <trkpt lat="46.64825" lon="5.60266">
        <ele>328.9</ele>
        <time>2021-04-03T11:47:05Z</time>
      </trkpt>
      <trkpt lat="46.6482" lon="5.60269">
        <ele>328.7</ele>
        <time>2021-04-03T11:47:10Z</time>
      </trkpt>
      <trkpt lat="46.64815" lon="5.6027">
        <ele>328.4</ele>
        <time>2021-04-03T11:47:14Z</time>
      </trkpt>
      <trkpt lat="46.6481" lon="5.60273">
        <ele>328.2</ele>
        <time>2021-04-03T11:47:19Z</time>
      </trkpt>
      <trkpt lat="46.64804" lon="5.6028">
        <ele>328.3</ele>
        <time>2021-04-03T11:47:24Z</time>
      </trkpt>
      <trkpt lat="46.64799" lon="5.60285">
        <ele>328.4</ele>
        <time>2021-04-03T11:47:28Z</time>
      </trkpt>
      <trkpt lat="46.64794" lon="5.60289">
        <ele>328.9</ele>
        <time>2021-04-03T11:47:33Z</time>
      </trkpt>
      <trkpt lat="46.64789" lon="5.60293">
        <ele>330.1</ele>
        <time>2021-04-03T11:47:37Z</time>
      </trkpt>
      <trkpt lat="46.64784" lon="5.60295">
        <ele>330.9</ele>
        <time>2021-04-03T11:47:42Z</time>
      </trkpt>
      <trkpt lat="46.6478" lon="5.60299">
        <ele>331.5</ele>
        <time>2021-04-03T11:47:47Z</time>
      </trkpt>
      <trkpt lat="46.64775" lon="5.60303">
        <ele>331.9</ele>
        <time>2021-04-03T11:47:52Z</time>
      </trkpt>
      <trkpt lat="46.64771" lon="5.60307">
        <ele>332.2</ele>
        <time>2021-04-03T11:47:56Z</time>
      </trkpt>
      <trkpt lat="46.64761" lon="5.60316">
        <ele>335.1</ele>
        <time>2021-04-03T11:48:00Z</time>
      </trkpt>
      <trkpt lat="46.64757" lon="5.6032">
        <ele>337.1</ele>
        <time>2021-04-03T11:48:05Z</time>
      </trkpt>
      <trkpt lat="46.64753" lon="5.60324">
        <ele>337.6</ele>
        <time>2021-04-03T11:48:09Z</time>
      </trkpt>
      <trkpt lat="46.64749" lon="5.60327">
        <ele>337.8</ele>
        <time>2021-04-03T11:48:14Z</time>
      </trkpt>
      <trkpt lat="46.64744" lon="5.6033">
        <ele>337.6</ele>
        <time>2021-04-03T11:48:22Z</time>
      </trkpt>
      <trkpt lat="46.64739" lon="5.6033">
        <ele>337.1</ele>
        <time>2021-04-03T11:48:30Z</time>
      </trkpt>
      <trkpt lat="46.64733" lon="5.60331">
        <ele>336.5</ele>
        <time>2021-04-03T11:48:36Z</time>
      </trkpt>
      <trkpt lat="46.64728" lon="5.60334">
        <ele>336</ele>
        <time>2021-04-03T11:48:40Z</time>
      </trkpt>
      <trkpt lat="46.64717" lon="5.60344">
        <ele>337.7</ele>
        <time>2021-04-03T11:48:44Z</time>
      </trkpt>
      <trkpt lat="46.64712" lon="5.60345">
        <ele>338.7</ele>
        <time>2021-04-03T11:48:48Z</time>
      </trkpt>
      <trkpt lat="46.64708" lon="5.60345">
        <ele>339.2</ele>
        <time>2021-04-03T11:48:54Z</time>
      </trkpt>
      <trkpt lat="46.64703" lon="5.60345">
        <ele>339.2</ele>
        <time>2021-04-03T11:49:00Z</time>
      </trkpt>
      <trkpt lat="46.64698" lon="5.60343">
        <ele>339.1</ele>
        <time>2021-04-03T11:49:05Z</time>
      </trkpt>
      <trkpt lat="46.64693" lon="5.60343">
        <ele>338.9</ele>
        <time>2021-04-03T11:49:11Z</time>
      </trkpt>
      <trkpt lat="46.64688" lon="5.60344">
        <ele>338.5</ele>
        <time>2021-04-03T11:49:17Z</time>
      </trkpt>
      <trkpt lat="46.64684" lon="5.60346">
        <ele>338.4</ele>
        <time>2021-04-03T11:49:21Z</time>
      </trkpt>
      <trkpt lat="46.64679" lon="5.6035">
        <ele>338.3</ele>
        <time>2021-04-03T11:49:25Z</time>
      </trkpt>
      <trkpt lat="46.64674" lon="5.60353">
        <ele>338.1</ele>
        <time>2021-04-03T11:49:29Z</time>
      </trkpt>
      <trkpt lat="46.64668" lon="5.60351">
        <ele>338.2</ele>
        <time>2021-04-03T11:49:33Z</time>
      </trkpt>
      <trkpt lat="46.64663" lon="5.60348">
        <ele>338.4</ele>
        <time>2021-04-03T11:49:37Z</time>
      </trkpt>
      <trkpt lat="46.6466" lon="5.60343">
        <ele>338.2</ele>
        <time>2021-04-03T11:50:42Z</time>
      </trkpt>
      <trkpt lat="46.64655" lon="5.60342">
        <ele>338.2</ele>
        <time>2021-04-03T11:50:51Z</time>
      </trkpt>
      <trkpt lat="46.6465" lon="5.60344">
        <ele>337.9</ele>
        <time>2021-04-03T11:50:58Z</time>
      </trkpt>
      <trkpt lat="46.64646" lon="5.60345">
        <ele>338</ele>
        <time>2021-04-03T11:51:03Z</time>
      </trkpt>
      <trkpt lat="46.64641" lon="5.60348">
        <ele>338.1</ele>
        <time>2021-04-03T11:51:08Z</time>
      </trkpt>
      <trkpt lat="46.64636" lon="5.6035">
        <ele>338.7</ele>
        <time>2021-04-03T11:51:12Z</time>
      </trkpt>
      <trkpt lat="46.6463" lon="5.6035">
        <ele>339.1</ele>
        <time>2021-04-03T11:51:17Z</time>
      </trkpt>
      <trkpt lat="46.64625" lon="5.6035">
        <ele>339.3</ele>
        <time>2021-04-03T11:51:22Z</time>
      </trkpt>
      <trkpt lat="46.6462" lon="5.60351">
        <ele>339.2</ele>
        <time>2021-04-03T11:51:27Z</time>
      </trkpt>
      <trkpt lat="46.64615" lon="5.60351">
        <ele>338.8</ele>
        <time>2021-04-03T11:51:33Z</time>
      </trkpt>
      <trkpt lat="46.6461" lon="5.60351">
        <ele>338.5</ele>
        <time>2021-04-03T11:51:38Z</time>
      </trkpt>
      <trkpt lat="46.64606" lon="5.60349">
        <ele>338.4</ele>
        <time>2021-04-03T11:51:42Z</time>
      </trkpt>
      <trkpt lat="46.64601" lon="5.60348">
        <ele>338</ele>
        <time>2021-04-03T11:51:46Z</time>
      </trkpt>
      <trkpt lat="46.64596" lon="5.60347">
        <ele>337.7</ele>
        <time>2021-04-03T11:51:51Z</time>
      </trkpt>
      <trkpt lat="46.64591" lon="5.60346">
        <ele>337.6</ele>
        <time>2021-04-03T11:51:55Z</time>
      </trkpt>
      <trkpt lat="46.64585" lon="5.60346">
        <ele>337.5</ele>
        <time>2021-04-03T11:52:00Z</time>
      </trkpt>
      <trkpt lat="46.6458" lon="5.60345">
        <ele>337.5</ele>
        <time>2021-04-03T11:52:05Z</time>
      </trkpt>
      <trkpt lat="46.64575" lon="5.60346">
        <ele>337.4</ele>
        <time>2021-04-03T11:52:10Z</time>
      </trkpt>
      <trkpt lat="46.64569" lon="5.60344">
        <ele>338</ele>
        <time>2021-04-03T11:52:14Z</time>
      </trkpt>
      <trkpt lat="46.64564" lon="5.60342">
        <ele>338.4</ele>
        <time>2021-04-03T11:52:18Z</time>
      </trkpt>
      <trkpt lat="46.64559" lon="5.60342">
        <ele>338.7</ele>
        <time>2021-04-03T11:52:22Z</time>
      </trkpt>
      <trkpt lat="46.64555" lon="5.60341">
        <ele>339.4</ele>
        <time>2021-04-03T11:52:26Z</time>
      </trkpt>
      <trkpt lat="46.6455" lon="5.60339">
        <ele>340.1</ele>
        <time>2021-04-03T11:52:31Z</time>
      </trkpt>
      <trkpt lat="46.64545" lon="5.60338">
        <ele>340.8</ele>
        <time>2021-04-03T11:52:36Z</time>
      </trkpt>
      <trkpt lat="46.6454" lon="5.60338">
        <ele>341.6</ele>
        <time>2021-04-03T11:52:41Z</time>
      </trkpt>
      <trkpt lat="46.64535" lon="5.60338">
        <ele>342.1</ele>
        <time>2021-04-03T11:52:45Z</time>
      </trkpt>
      <trkpt lat="46.6453" lon="5.6034">
        <ele>342.9</ele>
        <time>2021-04-03T11:52:51Z</time>
      </trkpt>
      <trkpt lat="46.64526" lon="5.6034">
        <ele>343.5</ele>
        <time>2021-04-03T11:54:19Z</time>
      </trkpt>
      <trkpt lat="46.64522" lon="5.60335">
        <ele>343.1</ele>
        <time>2021-04-03T11:54:52Z</time>
      </trkpt>
      <trkpt lat="46.64517" lon="5.60335">
        <ele>342.6</ele>
        <time>2021-04-03T11:54:57Z</time>
      </trkpt>
      <trkpt lat="46.64512" lon="5.60335">
        <ele>342.4</ele>
        <time>2021-04-03T11:55:02Z</time>
      </trkpt>
      <trkpt lat="46.64507" lon="5.60335">
        <ele>342.1</ele>
        <time>2021-04-03T11:55:07Z</time>
      </trkpt>
      <trkpt lat="46.64502" lon="5.60335">
        <ele>342.1</ele>
        <time>2021-04-03T11:55:12Z</time>
      </trkpt>
      <trkpt lat="46.64497" lon="5.60333">
        <ele>342.2</ele>
        <time>2021-04-03T11:55:17Z</time>
      </trkpt>
      <trkpt lat="46.64493" lon="5.60333">
        <ele>342.3</ele>
        <time>2021-04-03T11:55:23Z</time>
      </trkpt>
      <trkpt lat="46.64487" lon="5.60334">
        <ele>342.4</ele>
        <time>2021-04-03T11:55:27Z</time>
      </trkpt>
      <trkpt lat="46.6448" lon="5.60334">
        <ele>342.5</ele>
        <time>2021-04-03T11:55:31Z</time>
      </trkpt>
      <trkpt lat="46.64476" lon="5.60333">
        <ele>342.4</ele>
        <time>2021-04-03T11:55:35Z</time>
      </trkpt>
      <trkpt lat="46.64471" lon="5.6033">
        <ele>342.3</ele>
        <time>2021-04-03T11:55:40Z</time>
      </trkpt>
      <trkpt lat="46.64466" lon="5.6033">
        <ele>342</ele>
        <time>2021-04-03T11:55:46Z</time>
      </trkpt>
      <trkpt lat="46.64461" lon="5.60329">
        <ele>341.6</ele>
        <time>2021-04-03T11:55:52Z</time>
      </trkpt>
      <trkpt lat="46.64456" lon="5.60328">
        <ele>341.1</ele>
        <time>2021-04-03T11:55:56Z</time>
      </trkpt>
      <trkpt lat="46.64451" lon="5.60328">
        <ele>340.7</ele>
        <time>2021-04-03T11:56:00Z</time>
      </trkpt>
      <trkpt lat="46.64445" lon="5.60328">
        <ele>340.2</ele>
        <time>2021-04-03T11:56:04Z</time>
      </trkpt>
      <trkpt lat="46.64441" lon="5.60327">
        <ele>339.8</ele>
        <time>2021-04-03T11:56:09Z</time>
      </trkpt>
      <trkpt lat="46.64436" lon="5.60329">
        <ele>339.5</ele>
        <time>2021-04-03T11:56:15Z</time>
      </trkpt>
      <trkpt lat="46.64431" lon="5.60328">
        <ele>339.4</ele>
        <time>2021-04-03T11:56:20Z</time>
      </trkpt>
      <trkpt lat="46.64426" lon="5.60325">
        <ele>339.5</ele>
        <time>2021-04-03T11:56:25Z</time>
      </trkpt>
      <trkpt lat="46.64422" lon="5.60322">
        <ele>339.5</ele>
        <time>2021-04-03T11:56:30Z</time>
      </trkpt>
      <trkpt lat="46.64417" lon="5.60321">
        <ele>339.7</ele>
        <time>2021-04-03T11:56:34Z</time>
      </trkpt>
      <trkpt lat="46.64412" lon="5.60318">
        <ele>340.7</ele>
        <time>2021-04-03T11:56:39Z</time>
      </trkpt>
      <trkpt lat="46.64407" lon="5.60316">
        <ele>341.1</ele>
        <time>2021-04-03T11:56:44Z</time>
      </trkpt>
      <trkpt lat="46.64401" lon="5.60317">
        <ele>341.6</ele>
        <time>2021-04-03T11:56:49Z</time>
      </trkpt>
      <trkpt lat="46.64396" lon="5.60319">
        <ele>341.8</ele>
        <time>2021-04-03T11:56:53Z</time>
      </trkpt>
      <trkpt lat="46.64392" lon="5.6032">
        <ele>341.9</ele>
        <time>2021-04-03T11:56:57Z</time>
      </trkpt>
      <trkpt lat="46.64387" lon="5.6032">
        <ele>342.1</ele>
        <time>2021-04-03T11:57:01Z</time>
      </trkpt>
      <trkpt lat="46.64383" lon="5.60319">
        <ele>342.7</ele>
        <time>2021-04-03T11:57:06Z</time>
      </trkpt>
      <trkpt lat="46.64378" lon="5.60318">
        <ele>343.1</ele>
        <time>2021-04-03T11:57:13Z</time>
      </trkpt>
      <trkpt lat="46.64373" lon="5.60318">
        <ele>343</ele>
        <time>2021-04-03T11:57:18Z</time>
      </trkpt>
      <trkpt lat="46.64367" lon="5.60321">
        <ele>343</ele>
        <time>2021-04-03T11:57:22Z</time>
      </trkpt>
      <trkpt lat="46.64361" lon="5.60323">
        <ele>343.6</ele>
        <time>2021-04-03T11:57:26Z</time>
      </trkpt>
      <trkpt lat="46.64356" lon="5.60323">
        <ele>344.2</ele>
        <time>2021-04-03T11:57:31Z</time>
      </trkpt>
      <trkpt lat="46.64352" lon="5.60323">
        <ele>344.7</ele>
        <time>2021-04-03T11:57:35Z</time>
      </trkpt>
      <trkpt lat="46.64347" lon="5.60324">
        <ele>345.1</ele>
        <time>2021-04-03T11:57:39Z</time>
      </trkpt>
      <trkpt lat="46.64341" lon="5.60325">
        <ele>345.9</ele>
        <time>2021-04-03T11:57:44Z</time>
      </trkpt>
      <trkpt lat="46.64337" lon="5.60324">
        <ele>346.9</ele>
        <time>2021-04-03T11:57:50Z</time>
      </trkpt>
      <trkpt lat="46.64332" lon="5.60325">
        <ele>347.7</ele>
        <time>2021-04-03T11:57:59Z</time>
      </trkpt>
      <trkpt lat="46.64326" lon="5.60323">
        <ele>347.9</ele>
        <time>2021-04-03T11:58:05Z</time>
      </trkpt>
      <trkpt lat="46.64321" lon="5.60324">
        <ele>348</ele>
        <time>2021-04-03T11:58:10Z</time>
      </trkpt>
      <trkpt lat="46.64315" lon="5.60326">
        <ele>347.5</ele>
        <time>2021-04-03T11:58:14Z</time>
      </trkpt>
      <trkpt lat="46.6431" lon="5.60327">
        <ele>346.7</ele>
        <time>2021-04-03T11:58:18Z</time>
      </trkpt>
      <trkpt lat="46.64305" lon="5.60329">
        <ele>345.8</ele>
        <time>2021-04-03T11:58:22Z</time>
      </trkpt>
      <trkpt lat="46.643" lon="5.6033">
        <ele>344.9</ele>
        <time>2021-04-03T11:58:26Z</time>
      </trkpt>
      <trkpt lat="46.64295" lon="5.6033">
        <ele>344.1</ele>
        <time>2021-04-03T11:58:30Z</time>
      </trkpt>
      <trkpt lat="46.6429" lon="5.60331">
        <ele>343.3</ele>
        <time>2021-04-03T11:58:34Z</time>
      </trkpt>
      <trkpt lat="46.64285" lon="5.6033">
        <ele>343.2</ele>
        <time>2021-04-03T11:58:38Z</time>
      </trkpt>
      <trkpt lat="46.64279" lon="5.6033">
        <ele>342.8</ele>
        <time>2021-04-03T11:58:43Z</time>
      </trkpt>
      <trkpt lat="46.64274" lon="5.60332">
        <ele>343.2</ele>
        <time>2021-04-03T11:59:01Z</time>
      </trkpt>
      <trkpt lat="46.64269" lon="5.60329">
        <ele>343.8</ele>
        <time>2021-04-03T11:59:05Z</time>
      </trkpt>
      <trkpt lat="46.64264" lon="5.60328">
        <ele>344.6</ele>
        <time>2021-04-03T11:59:10Z</time>
      </trkpt>
      <trkpt lat="46.64259" lon="5.60326">
        <ele>345.6</ele>
        <time>2021-04-03T11:59:15Z</time>
      </trkpt>
      <trkpt lat="46.64253" lon="5.60327">
        <ele>346.4</ele>
        <time>2021-04-03T11:59:20Z</time>
      </trkpt>
      <trkpt lat="46.64249" lon="5.6033">
        <ele>347.2</ele>
        <time>2021-04-03T11:59:24Z</time>
      </trkpt>
      <trkpt lat="46.64245" lon="5.60333">
        <ele>347.9</ele>
        <time>2021-04-03T11:59:28Z</time>
      </trkpt>
      <trkpt lat="46.64241" lon="5.60335">
        <ele>348.7</ele>
        <time>2021-04-03T11:59:33Z</time>
      </trkpt>
      <trkpt lat="46.64236" lon="5.60335">
        <ele>349.2</ele>
        <time>2021-04-03T11:59:38Z</time>
      </trkpt>
      <trkpt lat="46.64231" lon="5.60335">
        <ele>349.7</ele>
        <time>2021-04-03T11:59:44Z</time>
      </trkpt>
      <trkpt lat="46.64226" lon="5.60337">
        <ele>350.2</ele>
        <time>2021-04-03T11:59:49Z</time>
      </trkpt>
      <trkpt lat="46.64221" lon="5.60337">
        <ele>350.6</ele>
        <time>2021-04-03T11:59:54Z</time>
      </trkpt>
      <trkpt lat="46.64216" lon="5.60336">
        <ele>350.9</ele>
        <time>2021-04-03T11:59:58Z</time>
      </trkpt>
      <trkpt lat="46.64212" lon="5.60335">
        <ele>351.3</ele>
        <time>2021-04-03T12:00:02Z</time>
      </trkpt>
      <trkpt lat="46.64206" lon="5.60335">
        <ele>351.7</ele>
        <time>2021-04-03T12:00:07Z</time>
      </trkpt>
      <trkpt lat="46.64201" lon="5.60336">
        <ele>352</ele>
        <time>2021-04-03T12:00:12Z</time>
      </trkpt>
      <trkpt lat="46.64196" lon="5.60335">
        <ele>352.3</ele>
        <time>2021-04-03T12:00:18Z</time>
      </trkpt>
      <trkpt lat="46.64192" lon="5.60333">
        <ele>352.6</ele>
        <time>2021-04-03T12:00:23Z</time>
      </trkpt>
      <trkpt lat="46.64187" lon="5.60331">
        <ele>352.9</ele>
        <time>2021-04-03T12:00:27Z</time>
      </trkpt>
      <trkpt lat="46.64183" lon="5.60328">
        <ele>353.1</ele>
        <time>2021-04-03T12:00:31Z</time>
      </trkpt>
      <trkpt lat="46.64179" lon="5.60326">
        <ele>353.4</ele>
        <time>2021-04-03T12:00:36Z</time>
      </trkpt>
      <trkpt lat="46.64173" lon="5.60324">
        <ele>354</ele>
        <time>2021-04-03T12:00:42Z</time>
      </trkpt>
      <trkpt lat="46.64168" lon="5.60323">
        <ele>354.5</ele>
        <time>2021-04-03T12:00:47Z</time>
      </trkpt>
      <trkpt lat="46.64163" lon="5.60323">
        <ele>355</ele>
        <time>2021-04-03T12:00:51Z</time>
      </trkpt>
      <trkpt lat="46.64158" lon="5.60323">
        <ele>355.4</ele>
        <time>2021-04-03T12:00:56Z</time>
      </trkpt>
      <trkpt lat="46.64153" lon="5.60322">
        <ele>355.7</ele>
        <time>2021-04-03T12:01:02Z</time>
      </trkpt>
      <trkpt lat="46.64148" lon="5.60323">
        <ele>355.8</ele>
        <time>2021-04-03T12:01:06Z</time>
      </trkpt>
      <trkpt lat="46.64144" lon="5.60324">
        <ele>355.9</ele>
        <time>2021-04-03T12:01:10Z</time>
      </trkpt>
      <trkpt lat="46.64139" lon="5.60325">
        <ele>355.8</ele>
        <time>2021-04-03T12:01:14Z</time>
      </trkpt>
      <trkpt lat="46.64134" lon="5.60326">
        <ele>355.6</ele>
        <time>2021-04-03T12:01:18Z</time>
      </trkpt>
      <trkpt lat="46.64129" lon="5.60327">
        <ele>355.6</ele>
        <time>2021-04-03T12:01:22Z</time>
      </trkpt>
      <trkpt lat="46.64125" lon="5.60328">
        <ele>355.4</ele>
        <time>2021-04-03T12:01:28Z</time>
      </trkpt>
      <trkpt lat="46.64119" lon="5.60329">
        <ele>354.8</ele>
        <time>2021-04-03T12:01:35Z</time>
      </trkpt>
      <trkpt lat="46.64114" lon="5.60328">
        <ele>354.5</ele>
        <time>2021-04-03T12:01:40Z</time>
      </trkpt>
      <trkpt lat="46.64109" lon="5.6033">
        <ele>354.5</ele>
        <time>2021-04-03T12:01:45Z</time>
      </trkpt>
      <trkpt lat="46.64105" lon="5.60329">
        <ele>354.6</ele>
        <time>2021-04-03T12:01:49Z</time>
      </trkpt>
      <trkpt lat="46.641" lon="5.60329">
        <ele>354.6</ele>
        <time>2021-04-03T12:01:54Z</time>
      </trkpt>
      <trkpt lat="46.64095" lon="5.6033">
        <ele>354.7</ele>
        <time>2021-04-03T12:01:58Z</time>
      </trkpt>
      <trkpt lat="46.6409" lon="5.60332">
        <ele>354.9</ele>
        <time>2021-04-03T12:02:02Z</time>
      </trkpt>
      <trkpt lat="46.64085" lon="5.60334">
        <ele>355.2</ele>
        <time>2021-04-03T12:02:06Z</time>
      </trkpt>
      <trkpt lat="46.6408" lon="5.60335">
        <ele>355.5</ele>
        <time>2021-04-03T12:02:12Z</time>
      </trkpt>
      <trkpt lat="46.64075" lon="5.60336">
        <ele>356.1</ele>
        <time>2021-04-03T12:02:17Z</time>
      </trkpt>
      <trkpt lat="46.6407" lon="5.60339">
        <ele>356.2</ele>
        <time>2021-04-03T12:02:22Z</time>
      </trkpt>
      <trkpt lat="46.64066" lon="5.60343">
        <ele>356.2</ele>
        <time>2021-04-03T12:02:27Z</time>
      </trkpt>
      <trkpt lat="46.64061" lon="5.60346">
        <ele>356</ele>
        <time>2021-04-03T12:02:33Z</time>
      </trkpt>
      <trkpt lat="46.64057" lon="5.60349">
        <ele>356</ele>
        <time>2021-04-03T12:02:38Z</time>
      </trkpt>
      <trkpt lat="46.64052" lon="5.60353">
        <ele>356</ele>
        <time>2021-04-03T12:02:43Z</time>
      </trkpt>
      <trkpt lat="46.64047" lon="5.60356">
        <ele>356.3</ele>
        <time>2021-04-03T12:02:48Z</time>
      </trkpt>
      <trkpt lat="46.64043" lon="5.60359">
        <ele>356.5</ele>
        <time>2021-04-03T12:02:52Z</time>
      </trkpt>
      <trkpt lat="46.64039" lon="5.60363">
        <ele>356.8</ele>
        <time>2021-04-03T12:02:57Z</time>
      </trkpt>
      <trkpt lat="46.64035" lon="5.60366">
        <ele>357.1</ele>
        <time>2021-04-03T12:03:01Z</time>
      </trkpt>
      <trkpt lat="46.6403" lon="5.60369">
        <ele>357.2</ele>
        <time>2021-04-03T12:03:06Z</time>
      </trkpt>
      <trkpt lat="46.64026" lon="5.60373">
        <ele>357.6</ele>
        <time>2021-04-03T12:03:12Z</time>
      </trkpt>
      <trkpt lat="46.64021" lon="5.60375">
        <ele>357.8</ele>
        <time>2021-04-03T12:03:19Z</time>
      </trkpt>
      <trkpt lat="46.64016" lon="5.60378">
        <ele>357.4</ele>
        <time>2021-04-03T12:03:24Z</time>
      </trkpt>
      <trkpt lat="46.64011" lon="5.60381">
        <ele>357.3</ele>
        <time>2021-04-03T12:03:29Z</time>
      </trkpt>
      <trkpt lat="46.64007" lon="5.60383">
        <ele>357.1</ele>
        <time>2021-04-03T12:03:33Z</time>
      </trkpt>
      <trkpt lat="46.64002" lon="5.60386">
        <ele>357</ele>
        <time>2021-04-03T12:03:37Z</time>
      </trkpt>
      <trkpt lat="46.63998" lon="5.60389">
        <ele>357.1</ele>
        <time>2021-04-03T12:03:41Z</time>
      </trkpt>
      <trkpt lat="46.63993" lon="5.60392">
        <ele>357.6</ele>
        <time>2021-04-03T12:03:46Z</time>
      </trkpt>
      <trkpt lat="46.63989" lon="5.60397">
        <ele>358.1</ele>
        <time>2021-04-03T12:03:53Z</time>
      </trkpt>
      <trkpt lat="46.63984" lon="5.60401">
        <ele>357.9</ele>
        <time>2021-04-03T12:03:57Z</time>
      </trkpt>
      <trkpt lat="46.63981" lon="5.60406">
        <ele>357.7</ele>
        <time>2021-04-03T12:04:01Z</time>
      </trkpt>
      <trkpt lat="46.63976" lon="5.6041">
        <ele>357.7</ele>
        <time>2021-04-03T12:04:07Z</time>
      </trkpt>
      <trkpt lat="46.63972" lon="5.60414">
        <ele>357.9</ele>
        <time>2021-04-03T12:04:12Z</time>
      </trkpt>
      <trkpt lat="46.63967" lon="5.60418">
        <ele>358.3</ele>
        <time>2021-04-03T12:04:17Z</time>
      </trkpt>
      <trkpt lat="46.63962" lon="5.60419">
        <ele>358.9</ele>
        <time>2021-04-03T12:04:22Z</time>
      </trkpt>
      <trkpt lat="46.63957" lon="5.60423">
        <ele>359.1</ele>
        <time>2021-04-03T12:04:27Z</time>
      </trkpt>
      <trkpt lat="46.63952" lon="5.60426">
        <ele>359.3</ele>
        <time>2021-04-03T12:04:31Z</time>
      </trkpt>
      <trkpt lat="46.63948" lon="5.60428">
        <ele>358.3</ele>
        <time>2021-04-03T12:04:36Z</time>
      </trkpt>
      <trkpt lat="46.63943" lon="5.6043">
        <ele>356.6</ele>
        <time>2021-04-03T12:04:41Z</time>
      </trkpt>
      <trkpt lat="46.63938" lon="5.60433">
        <ele>355.5</ele>
        <time>2021-04-03T12:04:47Z</time>
      </trkpt>
      <trkpt lat="46.63933" lon="5.60436">
        <ele>355.8</ele>
        <time>2021-04-03T12:04:51Z</time>
      </trkpt>
      <trkpt lat="46.63928" lon="5.60437">
        <ele>355.7</ele>
        <time>2021-04-03T12:04:55Z</time>
      </trkpt>
      <trkpt lat="46.63924" lon="5.60442">
        <ele>354.8</ele>
        <time>2021-04-03T12:05:00Z</time>
      </trkpt>
      <trkpt lat="46.63919" lon="5.60443">
        <ele>353.9</ele>
        <time>2021-04-03T12:05:04Z</time>
      </trkpt>
      <trkpt lat="46.63914" lon="5.60444">
        <ele>352.8</ele>
        <time>2021-04-03T12:05:08Z</time>
      </trkpt>
      <trkpt lat="46.6391" lon="5.60447">
        <ele>351.1</ele>
        <time>2021-04-03T12:05:14Z</time>
      </trkpt>
      <trkpt lat="46.63906" lon="5.60453">
        <ele>350.7</ele>
        <time>2021-04-03T12:05:19Z</time>
      </trkpt>
      <trkpt lat="46.63902" lon="5.60457">
        <ele>351.3</ele>
        <time>2021-04-03T12:05:24Z</time>
      </trkpt>
      <trkpt lat="46.63898" lon="5.60458">
        <ele>351.9</ele>
        <time>2021-04-03T12:05:28Z</time>
      </trkpt>
      <trkpt lat="46.63893" lon="5.6046">
        <ele>352.9</ele>
        <time>2021-04-03T12:05:32Z</time>
      </trkpt>
      <trkpt lat="46.63888" lon="5.60463">
        <ele>354.2</ele>
        <time>2021-04-03T12:05:37Z</time>
      </trkpt>
      <trkpt lat="46.63884" lon="5.60465">
        <ele>355.1</ele>
        <time>2021-04-03T12:05:43Z</time>
      </trkpt>
      <trkpt lat="46.63879" lon="5.60468">
        <ele>355.4</ele>
        <time>2021-04-03T12:05:49Z</time>
      </trkpt>
      <trkpt lat="46.63875" lon="5.60471">
        <ele>355.4</ele>
        <time>2021-04-03T12:05:53Z</time>
      </trkpt>
      <trkpt lat="46.6387" lon="5.60474">
        <ele>355.6</ele>
        <time>2021-04-03T12:05:57Z</time>
      </trkpt>
      <trkpt lat="46.63866" lon="5.60477">
        <ele>355.8</ele>
        <time>2021-04-03T12:06:01Z</time>
      </trkpt>
      <trkpt lat="46.63861" lon="5.60478">
        <ele>356</ele>
        <time>2021-04-03T12:06:06Z</time>
      </trkpt>
      <trkpt lat="46.63856" lon="5.60478">
        <ele>356.6</ele>
        <time>2021-04-03T12:06:11Z</time>
      </trkpt>
      <trkpt lat="46.63851" lon="5.60481">
        <ele>357.3</ele>
        <time>2021-04-03T12:06:18Z</time>
      </trkpt>
      <trkpt lat="46.63846" lon="5.60481">
        <ele>357.2</ele>
        <time>2021-04-03T12:06:23Z</time>
      </trkpt>
      <trkpt lat="46.63841" lon="5.60483">
        <ele>356.7</ele>
        <time>2021-04-03T12:06:27Z</time>
      </trkpt>
      <trkpt lat="46.63836" lon="5.60486">
        <ele>356.5</ele>
        <time>2021-04-03T12:06:31Z</time>
      </trkpt>
      <trkpt lat="46.63831" lon="5.60485">
        <ele>357.3</ele>
        <time>2021-04-03T12:06:35Z</time>
      </trkpt>
      <trkpt lat="46.63826" lon="5.60485">
        <ele>358</ele>
        <time>2021-04-03T12:06:39Z</time>
      </trkpt>
      <trkpt lat="46.63821" lon="5.60486">
        <ele>358.5</ele>
        <time>2021-04-03T12:06:43Z</time>
      </trkpt>
      <trkpt lat="46.63817" lon="5.60489">
        <ele>358.8</ele>
        <time>2021-04-03T12:06:47Z</time>
      </trkpt>
      <trkpt lat="46.63812" lon="5.60488">
        <ele>359.6</ele>
        <time>2021-04-03T12:06:51Z</time>
      </trkpt>
      <trkpt lat="46.63806" lon="5.60488">
        <ele>361.6</ele>
        <time>2021-04-03T12:06:55Z</time>
      </trkpt>
      <trkpt lat="46.63801" lon="5.60488">
        <ele>363.8</ele>
        <time>2021-04-03T12:07:00Z</time>
      </trkpt>
      <trkpt lat="46.63796" lon="5.60491">
        <ele>364.9</ele>
        <time>2021-04-03T12:07:05Z</time>
      </trkpt>
      <trkpt lat="46.63791" lon="5.60494">
        <ele>366</ele>
        <time>2021-04-03T12:07:10Z</time>
      </trkpt>
      <trkpt lat="46.63786" lon="5.60495">
        <ele>366.8</ele>
        <time>2021-04-03T12:07:14Z</time>
      </trkpt>
      <trkpt lat="46.63781" lon="5.60498">
        <ele>368.1</ele>
        <time>2021-04-03T12:07:20Z</time>
      </trkpt>
      <trkpt lat="46.63777" lon="5.60501">
        <ele>368.8</ele>
        <time>2021-04-03T12:07:26Z</time>
      </trkpt>
      <trkpt lat="46.63772" lon="5.60504">
        <ele>369.3</ele>
        <time>2021-04-03T12:07:33Z</time>
      </trkpt>
      <trkpt lat="46.63768" lon="5.60508">
        <ele>369.6</ele>
        <time>2021-04-03T12:07:37Z</time>
      </trkpt>
      <trkpt lat="46.63765" lon="5.60513">
        <ele>369.7</ele>
        <time>2021-04-03T12:07:41Z</time>
      </trkpt>
      <trkpt lat="46.63761" lon="5.60517">
        <ele>369.5</ele>
        <time>2021-04-03T12:07:46Z</time>
      </trkpt>
      <trkpt lat="46.63756" lon="5.60519">
        <ele>369.1</ele>
        <time>2021-04-03T12:07:51Z</time>
      </trkpt>
      <trkpt lat="46.63752" lon="5.60523">
        <ele>368.7</ele>
        <time>2021-04-03T12:07:57Z</time>
      </trkpt>
      <trkpt lat="46.63748" lon="5.60525">
        <ele>368.1</ele>
        <time>2021-04-03T12:08:04Z</time>
      </trkpt>
      <trkpt lat="46.63743" lon="5.60529">
        <ele>367.9</ele>
        <time>2021-04-03T12:08:09Z</time>
      </trkpt>
      <trkpt lat="46.63739" lon="5.60534">
        <ele>367.9</ele>
        <time>2021-04-03T12:08:13Z</time>
      </trkpt>
      <trkpt lat="46.63734" lon="5.6054">
        <ele>368.1</ele>
        <time>2021-04-03T12:08:17Z</time>
      </trkpt>
      <trkpt lat="46.63729" lon="5.60544">
        <ele>368.7</ele>
        <time>2021-04-03T12:08:21Z</time>
      </trkpt>
      <trkpt lat="46.63725" lon="5.60549">
        <ele>369</ele>
        <time>2021-04-03T12:08:26Z</time>
      </trkpt>
      <trkpt lat="46.63721" lon="5.60552">
        <ele>368.9</ele>
        <time>2021-04-03T12:08:31Z</time>
      </trkpt>
      <trkpt lat="46.63717" lon="5.60556">
        <ele>368.5</ele>
        <time>2021-04-03T12:08:36Z</time>
      </trkpt>
      <trkpt lat="46.63712" lon="5.60559">
        <ele>368.1</ele>
        <time>2021-04-03T12:08:42Z</time>
      </trkpt>
      <trkpt lat="46.63707" lon="5.60561">
        <ele>367.8</ele>
        <time>2021-04-03T12:08:47Z</time>
      </trkpt>
      <trkpt lat="46.63703" lon="5.60566">
        <ele>367.8</ele>
        <time>2021-04-03T12:08:53Z</time>
      </trkpt>
      <trkpt lat="46.637" lon="5.6057">
        <ele>367.9</ele>
        <time>2021-04-03T12:08:57Z</time>
      </trkpt>
      <trkpt lat="46.63695" lon="5.60574">
        <ele>367.7</ele>
        <time>2021-04-03T12:09:01Z</time>
      </trkpt>
      <trkpt lat="46.63691" lon="5.60577">
        <ele>367.6</ele>
        <time>2021-04-03T12:09:05Z</time>
      </trkpt>
      <trkpt lat="46.63686" lon="5.6058">
        <ele>367.8</ele>
        <time>2021-04-03T12:09:09Z</time>
      </trkpt>
      <trkpt lat="46.63682" lon="5.60582">
        <ele>368</ele>
        <time>2021-04-03T12:09:13Z</time>
      </trkpt>
      <trkpt lat="46.63677" lon="5.60585">
        <ele>368.1</ele>
        <time>2021-04-03T12:09:18Z</time>
      </trkpt>
      <trkpt lat="46.63673" lon="5.60588">
        <ele>368</ele>
        <time>2021-04-03T12:09:23Z</time>
      </trkpt>
      <trkpt lat="46.63668" lon="5.60592">
        <ele>367.9</ele>
        <time>2021-04-03T12:09:28Z</time>
      </trkpt>
      <trkpt lat="46.63664" lon="5.60596">
        <ele>367.4</ele>
        <time>2021-04-03T12:09:32Z</time>
      </trkpt>
      <trkpt lat="46.6366" lon="5.606">
        <ele>367.2</ele>
        <time>2021-04-03T12:09:36Z</time>
      </trkpt>
      <trkpt lat="46.63656" lon="5.60602">
        <ele>367.1</ele>
        <time>2021-04-03T12:09:41Z</time>
      </trkpt>
      <trkpt lat="46.63651" lon="5.60604">
        <ele>367.3</ele>
        <time>2021-04-03T12:09:46Z</time>
      </trkpt>
      <trkpt lat="46.63647" lon="5.60609">
        <ele>366.9</ele>
        <time>2021-04-03T12:09:51Z</time>
      </trkpt>
      <trkpt lat="46.63643" lon="5.60613">
        <ele>366.2</ele>
        <time>2021-04-03T12:09:55Z</time>
      </trkpt>
      <trkpt lat="46.63639" lon="5.60617">
        <ele>365.6</ele>
        <time>2021-04-03T12:10:00Z</time>
      </trkpt>
      <trkpt lat="46.63635" lon="5.60619">
        <ele>365.6</ele>
        <time>2021-04-03T12:10:04Z</time>
      </trkpt>
      <trkpt lat="46.6363" lon="5.60622">
        <ele>365.8</ele>
        <time>2021-04-03T12:10:08Z</time>
      </trkpt>
      <trkpt lat="46.63626" lon="5.60626">
        <ele>366.4</ele>
        <time>2021-04-03T12:10:12Z</time>
      </trkpt>
      <trkpt lat="46.63622" lon="5.6063">
        <ele>367.1</ele>
        <time>2021-04-03T12:10:17Z</time>
      </trkpt>
      <trkpt lat="46.63617" lon="5.60631">
        <ele>369.5</ele>
        <time>2021-04-03T12:10:21Z</time>
      </trkpt>
      <trkpt lat="46.63613" lon="5.60634">
        <ele>370.6</ele>
        <time>2021-04-03T12:10:25Z</time>
      </trkpt>
      <trkpt lat="46.63609" lon="5.60638">
        <ele>371.6</ele>
        <time>2021-04-03T12:10:29Z</time>
      </trkpt>
      <trkpt lat="46.63605" lon="5.60641">
        <ele>372.4</ele>
        <time>2021-04-03T12:10:34Z</time>
      </trkpt>
      <trkpt lat="46.636" lon="5.60645">
        <ele>373</ele>
        <time>2021-04-03T12:10:40Z</time>
      </trkpt>
      <trkpt lat="46.63595" lon="5.60647">
        <ele>373.3</ele>
        <time>2021-04-03T12:10:45Z</time>
      </trkpt>
      <trkpt lat="46.63591" lon="5.6065">
        <ele>373.3</ele>
        <time>2021-04-03T12:10:50Z</time>
      </trkpt>
      <trkpt lat="46.6359" lon="5.60657">
        <ele>373.3</ele>
        <time>2021-04-03T12:10:59Z</time>
      </trkpt>
      <trkpt lat="46.63587" lon="5.60661">
        <ele>373.5</ele>
        <time>2021-04-03T12:12:17Z</time>
      </trkpt>
      <trkpt lat="46.63581" lon="5.60658">
        <ele>373.2</ele>
        <time>2021-04-03T12:12:22Z</time>
      </trkpt>
      <trkpt lat="46.63576" lon="5.60656">
        <ele>372.5</ele>
        <time>2021-04-03T12:12:27Z</time>
      </trkpt>
      <trkpt lat="46.63571" lon="5.6066">
        <ele>372.4</ele>
        <time>2021-04-03T12:12:32Z</time>
      </trkpt>
      <trkpt lat="46.63566" lon="5.60665">
        <ele>372.9</ele>
        <time>2021-04-03T12:12:36Z</time>
      </trkpt>
      <trkpt lat="46.63561" lon="5.6067">
        <ele>374.4</ele>
        <time>2021-04-03T12:12:40Z</time>
      </trkpt>
      <trkpt lat="46.63557" lon="5.60674">
        <ele>376.4</ele>
        <time>2021-04-03T12:12:44Z</time>
      </trkpt>
      <trkpt lat="46.63552" lon="5.60677">
        <ele>378</ele>
        <time>2021-04-03T12:12:49Z</time>
      </trkpt>
      <trkpt lat="46.63548" lon="5.60681">
        <ele>378.9</ele>
        <time>2021-04-03T12:12:54Z</time>
      </trkpt>
      <trkpt lat="46.63544" lon="5.60686">
        <ele>379.8</ele>
        <time>2021-04-03T12:12:59Z</time>
      </trkpt>
      <trkpt lat="46.63541" lon="5.60691">
        <ele>380.1</ele>
        <time>2021-04-03T12:13:05Z</time>
      </trkpt>
      <trkpt lat="46.63536" lon="5.60694">
        <ele>378.7</ele>
        <time>2021-04-03T12:13:12Z</time>
      </trkpt>
      <trkpt lat="46.63531" lon="5.60698">
        <ele>377.5</ele>
        <time>2021-04-03T12:13:17Z</time>
      </trkpt>
      <trkpt lat="46.63527" lon="5.60704">
        <ele>375.9</ele>
        <time>2021-04-03T12:13:22Z</time>
      </trkpt>
      <trkpt lat="46.63524" lon="5.60708">
        <ele>374.5</ele>
        <time>2021-04-03T12:13:26Z</time>
      </trkpt>
      <trkpt lat="46.6352" lon="5.60713">
        <ele>372.9</ele>
        <time>2021-04-03T12:13:30Z</time>
      </trkpt>
      <trkpt lat="46.63515" lon="5.60717">
        <ele>371.8</ele>
        <time>2021-04-03T12:13:34Z</time>
      </trkpt>
      <trkpt lat="46.63512" lon="5.60723">
        <ele>370.9</ele>
        <time>2021-04-03T12:13:39Z</time>
      </trkpt>
      <trkpt lat="46.63508" lon="5.60729">
        <ele>370.3</ele>
        <time>2021-04-03T12:13:44Z</time>
      </trkpt>
      <trkpt lat="46.63504" lon="5.60733">
        <ele>369.9</ele>
        <time>2021-04-03T12:13:48Z</time>
      </trkpt>
      <trkpt lat="46.635" lon="5.60737">
        <ele>369.5</ele>
        <time>2021-04-03T12:13:52Z</time>
      </trkpt>
      <trkpt lat="46.63498" lon="5.60743">
        <ele>369</ele>
        <time>2021-04-03T12:13:57Z</time>
      </trkpt>
      <trkpt lat="46.63498" lon="5.60751">
        <ele>368.5</ele>
        <time>2021-04-03T12:14:01Z</time>
      </trkpt>
      <trkpt lat="46.63495" lon="5.60758">
        <ele>368.2</ele>
        <time>2021-04-03T12:14:05Z</time>
      </trkpt>
      <trkpt lat="46.63492" lon="5.60762">
        <ele>368.1</ele>
        <time>2021-04-03T12:14:09Z</time>
      </trkpt>
      <trkpt lat="46.63489" lon="5.60768">
        <ele>368.6</ele>
        <time>2021-04-03T12:14:14Z</time>
      </trkpt>
      <trkpt lat="46.63486" lon="5.60774">
        <ele>369.5</ele>
        <time>2021-04-03T12:14:20Z</time>
      </trkpt>
      <trkpt lat="46.63483" lon="5.6078">
        <ele>370.5</ele>
        <time>2021-04-03T12:14:25Z</time>
      </trkpt>
      <trkpt lat="46.6348" lon="5.60785">
        <ele>371.5</ele>
        <time>2021-04-03T12:14:30Z</time>
      </trkpt>
      <trkpt lat="46.63477" lon="5.60792">
        <ele>373.8</ele>
        <time>2021-04-03T12:14:36Z</time>
      </trkpt>
      <trkpt lat="46.63475" lon="5.60798">
        <ele>375.7</ele>
        <time>2021-04-03T12:14:41Z</time>
      </trkpt>
      <trkpt lat="46.63473" lon="5.60805">
        <ele>377.2</ele>
        <time>2021-04-03T12:14:45Z</time>
      </trkpt>
      <trkpt lat="46.63472" lon="5.60811">
        <ele>378.3</ele>
        <time>2021-04-03T12:14:50Z</time>
      </trkpt>
      <trkpt lat="46.63471" lon="5.60819">
        <ele>378</ele>
        <time>2021-04-03T12:14:55Z</time>
      </trkpt>
      <trkpt lat="46.63469" lon="5.60825">
        <ele>377.5</ele>
        <time>2021-04-03T12:14:59Z</time>
      </trkpt>
      <trkpt lat="46.63468" lon="5.60832">
        <ele>377.9</ele>
        <time>2021-04-03T12:15:04Z</time>
      </trkpt>
      <trkpt lat="46.63466" lon="5.60839">
        <ele>378.7</ele>
        <time>2021-04-03T12:15:10Z</time>
      </trkpt>
      <trkpt lat="46.63464" lon="5.60845">
        <ele>379.3</ele>
        <time>2021-04-03T12:15:14Z</time>
      </trkpt>
      <trkpt lat="46.63461" lon="5.60852">
        <ele>379.7</ele>
        <time>2021-04-03T12:15:18Z</time>
      </trkpt>
      <trkpt lat="46.63459" lon="5.60859">
        <ele>380</ele>
        <time>2021-04-03T12:15:22Z</time>
      </trkpt>
      <trkpt lat="46.63459" lon="5.60866">
        <ele>380.6</ele>
        <time>2021-04-03T12:15:26Z</time>
      </trkpt>
      <trkpt lat="46.63459" lon="5.60873">
        <ele>381.4</ele>
        <time>2021-04-03T12:15:30Z</time>
      </trkpt>
      <trkpt lat="46.63458" lon="5.60881">
        <ele>382.6</ele>
        <time>2021-04-03T12:15:35Z</time>
      </trkpt>
      <trkpt lat="46.63455" lon="5.60888">
        <ele>383.7</ele>
        <time>2021-04-03T12:15:40Z</time>
      </trkpt>
      <trkpt lat="46.63454" lon="5.60894">
        <ele>384.6</ele>
        <time>2021-04-03T12:15:44Z</time>
      </trkpt>
      <trkpt lat="46.63454" lon="5.60902">
        <ele>385.5</ele>
        <time>2021-04-03T12:15:48Z</time>
      </trkpt>
      <trkpt lat="46.63456" lon="5.60908">
        <ele>386.5</ele>
        <time>2021-04-03T12:15:53Z</time>
      </trkpt>
      <trkpt lat="46.63457" lon="5.60915">
        <ele>386.2</ele>
        <time>2021-04-03T12:15:58Z</time>
      </trkpt>
      <trkpt lat="46.63457" lon="5.60922">
        <ele>385.3</ele>
        <time>2021-04-03T12:16:03Z</time>
      </trkpt>
      <trkpt lat="46.63457" lon="5.60929">
        <ele>384.2</ele>
        <time>2021-04-03T12:16:08Z</time>
      </trkpt>
      <trkpt lat="46.63459" lon="5.60936">
        <ele>383.8</ele>
        <time>2021-04-03T12:16:13Z</time>
      </trkpt>
      <trkpt lat="46.63459" lon="5.60942">
        <ele>383.2</ele>
        <time>2021-04-03T12:16:17Z</time>
      </trkpt>
      <trkpt lat="46.6346" lon="5.6095">
        <ele>382.4</ele>
        <time>2021-04-03T12:16:22Z</time>
      </trkpt>
      <trkpt lat="46.6346" lon="5.60957">
        <ele>382</ele>
        <time>2021-04-03T12:16:27Z</time>
      </trkpt>
      <trkpt lat="46.63459" lon="5.60965">
        <ele>382.3</ele>
        <time>2021-04-03T12:16:32Z</time>
      </trkpt>
      <trkpt lat="46.6346" lon="5.60972">
        <ele>381.9</ele>
        <time>2021-04-03T12:16:37Z</time>
      </trkpt>
      <trkpt lat="46.63461" lon="5.60979">
        <ele>380.6</ele>
        <time>2021-04-03T12:16:46Z</time>
      </trkpt>
      <trkpt lat="46.6346" lon="5.60985">
        <ele>380.2</ele>
        <time>2021-04-03T12:16:51Z</time>
      </trkpt>
      <trkpt lat="46.63459" lon="5.60992">
        <ele>379.9</ele>
        <time>2021-04-03T12:16:55Z</time>
      </trkpt>
      <trkpt lat="46.63458" lon="5.60998">
        <ele>380.4</ele>
        <time>2021-04-03T12:17:01Z</time>
      </trkpt>
      <trkpt lat="46.63455" lon="5.61003">
        <ele>382.8</ele>
        <time>2021-04-03T12:17:18Z</time>
      </trkpt>
      <trkpt lat="46.63452" lon="5.61009">
        <ele>383.4</ele>
        <time>2021-04-03T12:17:31Z</time>
      </trkpt>
      <trkpt lat="46.63457" lon="5.6101">
        <ele>383.8</ele>
        <time>2021-04-03T12:17:44Z</time>
      </trkpt>
      <trkpt lat="46.6346" lon="5.61015">
        <ele>384.3</ele>
        <time>2021-04-03T12:17:50Z</time>
      </trkpt>
      <trkpt lat="46.63463" lon="5.6102">
        <ele>384.6</ele>
        <time>2021-04-03T12:17:55Z</time>
      </trkpt>
      <trkpt lat="46.63466" lon="5.61026">
        <ele>385.1</ele>
        <time>2021-04-03T12:18:00Z</time>
      </trkpt>
      <trkpt lat="46.63466" lon="5.61032">
        <ele>385.6</ele>
        <time>2021-04-03T12:18:04Z</time>
      </trkpt>
      <trkpt lat="46.63468" lon="5.6104">
        <ele>386.4</ele>
        <time>2021-04-03T12:18:09Z</time>
      </trkpt>
      <trkpt lat="46.63468" lon="5.61047">
        <ele>387.4</ele>
        <time>2021-04-03T12:18:14Z</time>
      </trkpt>
      <trkpt lat="46.6347" lon="5.61054">
        <ele>388.5</ele>
        <time>2021-04-03T12:18:19Z</time>
      </trkpt>
      <trkpt lat="46.63471" lon="5.61061">
        <ele>389.3</ele>
        <time>2021-04-03T12:18:23Z</time>
      </trkpt>
      <trkpt lat="46.63472" lon="5.61069">
        <ele>390.1</ele>
        <time>2021-04-03T12:18:27Z</time>
      </trkpt>
      <trkpt lat="46.63473" lon="5.61075">
        <ele>390.5</ele>
        <time>2021-04-03T12:18:31Z</time>
      </trkpt>
      <trkpt lat="46.63473" lon="5.61082">
        <ele>391</ele>
        <time>2021-04-03T12:18:35Z</time>
      </trkpt>
      <trkpt lat="46.63473" lon="5.6109">
        <ele>390.4</ele>
        <time>2021-04-03T12:18:41Z</time>
      </trkpt>
      <trkpt lat="46.63474" lon="5.61096">
        <ele>389.1</ele>
        <time>2021-04-03T12:18:45Z</time>
      </trkpt>
      <trkpt lat="46.63476" lon="5.61103">
        <ele>386.5</ele>
        <time>2021-04-03T12:18:51Z</time>
      </trkpt>
      <trkpt lat="46.63476" lon="5.6111">
        <ele>384.5</ele>
        <time>2021-04-03T12:18:56Z</time>
      </trkpt>
      <trkpt lat="46.63476" lon="5.61117">
        <ele>383.4</ele>
        <time>2021-04-03T12:19:00Z</time>
      </trkpt>
      <trkpt lat="46.63475" lon="5.61125">
        <ele>382.7</ele>
        <time>2021-04-03T12:19:04Z</time>
      </trkpt>
      <trkpt lat="46.63474" lon="5.61133">
        <ele>382.2</ele>
        <time>2021-04-03T12:19:08Z</time>
      </trkpt>
      <trkpt lat="46.63473" lon="5.6114">
        <ele>382</ele>
        <time>2021-04-03T12:19:12Z</time>
      </trkpt>
      <trkpt lat="46.63472" lon="5.61146">
        <ele>381.9</ele>
        <time>2021-04-03T12:19:16Z</time>
      </trkpt>
      <trkpt lat="46.63473" lon="5.61153">
        <ele>381.9</ele>
        <time>2021-04-03T12:19:21Z</time>
      </trkpt>
      <trkpt lat="46.63475" lon="5.6116">
        <ele>382.2</ele>
        <time>2021-04-03T12:19:27Z</time>
      </trkpt>
      <trkpt lat="46.63477" lon="5.61168">
        <ele>383.1</ele>
        <time>2021-04-03T12:19:32Z</time>
      </trkpt>
      <trkpt lat="46.63478" lon="5.61174">
        <ele>384.1</ele>
        <time>2021-04-03T12:19:36Z</time>
      </trkpt>
      <trkpt lat="46.6348" lon="5.61182">
        <ele>386</ele>
        <time>2021-04-03T12:19:41Z</time>
      </trkpt>
      <trkpt lat="46.63484" lon="5.61187">
        <ele>387.5</ele>
        <time>2021-04-03T12:19:45Z</time>
      </trkpt>
      <trkpt lat="46.63487" lon="5.61192">
        <ele>387.8</ele>
        <time>2021-04-03T12:19:50Z</time>
      </trkpt>
      <trkpt lat="46.6349" lon="5.61198">
        <ele>387.8</ele>
        <time>2021-04-03T12:19:55Z</time>
      </trkpt>
      <trkpt lat="46.63494" lon="5.61202">
        <ele>387.3</ele>
        <time>2021-04-03T12:20:05Z</time>
      </trkpt>
      <trkpt lat="46.6349" lon="5.61203">
        <ele>390</ele>
        <time>2021-04-03T12:20:37Z</time>
      </trkpt>
      <trkpt lat="46.63485" lon="5.61206">
        <ele>394.3</ele>
        <time>2021-04-03T12:20:57Z</time>
      </trkpt>
      <trkpt lat="46.63483" lon="5.61212">
        <ele>395.4</ele>
        <time>2021-04-03T12:21:14Z</time>
      </trkpt>
      <trkpt lat="46.63488" lon="5.61213">
        <ele>399.7</ele>
        <time>2021-04-03T12:21:31Z</time>
      </trkpt>
      <trkpt lat="46.63492" lon="5.61217">
        <ele>401.3</ele>
        <time>2021-04-03T12:21:38Z</time>
      </trkpt>
      <trkpt lat="46.63496" lon="5.61221">
        <ele>402.2</ele>
        <time>2021-04-03T12:21:44Z</time>
      </trkpt>
      <trkpt lat="46.63499" lon="5.61226">
        <ele>403.1</ele>
        <time>2021-04-03T12:21:50Z</time>
      </trkpt>
      <trkpt lat="46.63503" lon="5.6123">
        <ele>403.6</ele>
        <time>2021-04-03T12:21:54Z</time>
      </trkpt>
      <trkpt lat="46.63507" lon="5.61234">
        <ele>404</ele>
        <time>2021-04-03T12:21:59Z</time>
      </trkpt>
      <trkpt lat="46.63512" lon="5.61238">
        <ele>404</ele>
        <time>2021-04-03T12:22:03Z</time>
      </trkpt>
      <trkpt lat="46.63518" lon="5.61243">
        <ele>403.9</ele>
        <time>2021-04-03T12:22:07Z</time>
      </trkpt>
      <trkpt lat="46.63522" lon="5.61247">
        <ele>403.7</ele>
        <time>2021-04-03T12:22:11Z</time>
      </trkpt>
      <trkpt lat="46.63526" lon="5.61251">
        <ele>403.8</ele>
        <time>2021-04-03T12:22:15Z</time>
      </trkpt>
      <trkpt lat="46.6353" lon="5.61255">
        <ele>404.2</ele>
        <time>2021-04-03T12:22:19Z</time>
      </trkpt>
      <trkpt lat="46.63533" lon="5.61262">
        <ele>404.8</ele>
        <time>2021-04-03T12:22:24Z</time>
      </trkpt>
      <trkpt lat="46.63535" lon="5.61268">
        <ele>405.2</ele>
        <time>2021-04-03T12:22:29Z</time>
      </trkpt>
      <trkpt lat="46.63537" lon="5.61274">
        <ele>405.3</ele>
        <time>2021-04-03T12:22:34Z</time>
      </trkpt>
      <trkpt lat="46.63538" lon="5.61281">
        <ele>405.8</ele>
        <time>2021-04-03T12:22:38Z</time>
      </trkpt>
      <trkpt lat="46.6354" lon="5.61289">
        <ele>406.3</ele>
        <time>2021-04-03T12:22:43Z</time>
      </trkpt>
      <trkpt lat="46.63542" lon="5.61295">
        <ele>406.3</ele>
        <time>2021-04-03T12:22:48Z</time>
      </trkpt>
      <trkpt lat="46.63542" lon="5.61303">
        <ele>406.2</ele>
        <time>2021-04-03T12:22:53Z</time>
      </trkpt>
      <trkpt lat="46.63542" lon="5.61309">
        <ele>406.2</ele>
        <time>2021-04-03T12:22:57Z</time>
      </trkpt>
      <trkpt lat="46.63544" lon="5.61315">
        <ele>406.3</ele>
        <time>2021-04-03T12:23:02Z</time>
      </trkpt>
      <trkpt lat="46.63546" lon="5.61322">
        <ele>406.4</ele>
        <time>2021-04-03T12:23:07Z</time>
      </trkpt>
      <trkpt lat="46.63548" lon="5.61328">
        <ele>406.1</ele>
        <time>2021-04-03T12:23:12Z</time>
      </trkpt>
      <trkpt lat="46.63551" lon="5.61334">
        <ele>406</ele>
        <time>2021-04-03T12:23:16Z</time>
      </trkpt>
      <trkpt lat="46.63554" lon="5.6134">
        <ele>406</ele>
        <time>2021-04-03T12:23:20Z</time>
      </trkpt>
      <trkpt lat="46.63556" lon="5.61346">
        <ele>406.1</ele>
        <time>2021-04-03T12:23:24Z</time>
      </trkpt>
      <trkpt lat="46.63559" lon="5.61352">
        <ele>406.2</ele>
        <time>2021-04-03T12:23:28Z</time>
      </trkpt>
      <trkpt lat="46.63563" lon="5.61358">
        <ele>406.1</ele>
        <time>2021-04-03T12:23:33Z</time>
      </trkpt>
      <trkpt lat="46.63566" lon="5.61362">
        <ele>405.9</ele>
        <time>2021-04-03T12:23:38Z</time>
      </trkpt>
      <trkpt lat="46.63569" lon="5.61369">
        <ele>406.2</ele>
        <time>2021-04-03T12:23:43Z</time>
      </trkpt>
      <trkpt lat="46.63572" lon="5.61374">
        <ele>406.6</ele>
        <time>2021-04-03T12:23:47Z</time>
      </trkpt>
      <trkpt lat="46.63575" lon="5.61381">
        <ele>407</ele>
        <time>2021-04-03T12:23:52Z</time>
      </trkpt>
      <trkpt lat="46.63579" lon="5.61387">
        <ele>407.4</ele>
        <time>2021-04-03T12:23:57Z</time>
      </trkpt>
      <trkpt lat="46.63583" lon="5.6139">
        <ele>407.8</ele>
        <time>2021-04-03T12:24:01Z</time>
      </trkpt>
      <trkpt lat="46.63587" lon="5.61394">
        <ele>408.1</ele>
        <time>2021-04-03T12:24:05Z</time>
      </trkpt>
      <trkpt lat="46.63592" lon="5.61398">
        <ele>408.1</ele>
        <time>2021-04-03T12:24:09Z</time>
      </trkpt>
      <trkpt lat="46.63595" lon="5.61404">
        <ele>408.1</ele>
        <time>2021-04-03T12:24:14Z</time>
      </trkpt>
      <trkpt lat="46.63597" lon="5.61411">
        <ele>408.1</ele>
        <time>2021-04-03T12:24:19Z</time>
      </trkpt>
      <trkpt lat="46.63599" lon="5.61416">
        <ele>408.1</ele>
        <time>2021-04-03T12:24:24Z</time>
      </trkpt>
      <trkpt lat="46.63603" lon="5.61422">
        <ele>408.1</ele>
        <time>2021-04-03T12:24:29Z</time>
      </trkpt>
      <trkpt lat="46.63607" lon="5.61428">
        <ele>408.2</ele>
        <time>2021-04-03T12:24:34Z</time>
      </trkpt>
      <trkpt lat="46.63611" lon="5.61433">
        <ele>408.3</ele>
        <time>2021-04-03T12:24:38Z</time>
      </trkpt>
      <trkpt lat="46.63616" lon="5.61437">
        <ele>408.3</ele>
        <time>2021-04-03T12:24:42Z</time>
      </trkpt>
      <trkpt lat="46.63619" lon="5.61443">
        <ele>408.4</ele>
        <time>2021-04-03T12:24:46Z</time>
      </trkpt>
      <trkpt lat="46.6362" lon="5.6145">
        <ele>408.4</ele>
        <time>2021-04-03T12:24:50Z</time>
      </trkpt>
      <trkpt lat="46.63622" lon="5.61456">
        <ele>408.6</ele>
        <time>2021-04-03T12:24:55Z</time>
      </trkpt>
      <trkpt lat="46.63623" lon="5.61463">
        <ele>408.4</ele>
        <time>2021-04-03T12:25:00Z</time>
      </trkpt>
      <trkpt lat="46.63625" lon="5.6147">
        <ele>407.8</ele>
        <time>2021-04-03T12:25:05Z</time>
      </trkpt>
      <trkpt lat="46.63625" lon="5.61477">
        <ele>407.1</ele>
        <time>2021-04-03T12:25:09Z</time>
      </trkpt>
      <trkpt lat="46.63626" lon="5.61484">
        <ele>406.3</ele>
        <time>2021-04-03T12:25:13Z</time>
      </trkpt>
      <trkpt lat="46.63627" lon="5.61491">
        <ele>405.3</ele>
        <time>2021-04-03T12:25:17Z</time>
      </trkpt>
      <trkpt lat="46.6363" lon="5.61496">
        <ele>403.8</ele>
        <time>2021-04-03T12:25:22Z</time>
      </trkpt>
      <trkpt lat="46.63633" lon="5.61502">
        <ele>402.7</ele>
        <time>2021-04-03T12:25:27Z</time>
      </trkpt>
      <trkpt lat="46.63636" lon="5.61507">
        <ele>402</ele>
        <time>2021-04-03T12:25:31Z</time>
      </trkpt>
      <trkpt lat="46.63639" lon="5.61512">
        <ele>401.5</ele>
        <time>2021-04-03T12:25:35Z</time>
      </trkpt>
      <trkpt lat="46.63642" lon="5.61519">
        <ele>400.8</ele>
        <time>2021-04-03T12:25:39Z</time>
      </trkpt>
      <trkpt lat="46.63645" lon="5.61524">
        <ele>400.5</ele>
        <time>2021-04-03T12:25:43Z</time>
      </trkpt>
      <trkpt lat="46.63647" lon="5.6153">
        <ele>400.4</ele>
        <time>2021-04-03T12:25:48Z</time>
      </trkpt>
      <trkpt lat="46.63651" lon="5.61535">
        <ele>400.2</ele>
        <time>2021-04-03T12:25:54Z</time>
      </trkpt>
      <trkpt lat="46.63655" lon="5.61539">
        <ele>399.7</ele>
        <time>2021-04-03T12:25:58Z</time>
      </trkpt>
      <trkpt lat="46.63658" lon="5.61545">
        <ele>398.9</ele>
        <time>2021-04-03T12:26:04Z</time>
      </trkpt>
      <trkpt lat="46.63662" lon="5.61549">
        <ele>398.2</ele>
        <time>2021-04-03T12:26:09Z</time>
      </trkpt>
      <trkpt lat="46.63666" lon="5.61553">
        <ele>397.5</ele>
        <time>2021-04-03T12:26:14Z</time>
      </trkpt>
      <trkpt lat="46.6367" lon="5.61557">
        <ele>397</ele>
        <time>2021-04-03T12:26:19Z</time>
      </trkpt>
      <trkpt lat="46.63675" lon="5.6156">
        <ele>396.6</ele>
        <time>2021-04-03T12:26:24Z</time>
      </trkpt>
      <trkpt lat="46.63679" lon="5.61562">
        <ele>396.3</ele>
        <time>2021-04-03T12:26:29Z</time>
      </trkpt>
      <trkpt lat="46.63685" lon="5.61563">
        <ele>396.4</ele>
        <time>2021-04-03T12:26:33Z</time>
      </trkpt>
      <trkpt lat="46.6369" lon="5.61564">
        <ele>396.6</ele>
        <time>2021-04-03T12:26:37Z</time>
      </trkpt>
      <trkpt lat="46.63695" lon="5.61566">
        <ele>396.9</ele>
        <time>2021-04-03T12:26:41Z</time>
      </trkpt>
      <trkpt lat="46.637" lon="5.61567">
        <ele>397.1</ele>
        <time>2021-04-03T12:26:45Z</time>
      </trkpt>
      <trkpt lat="46.63705" lon="5.61568">
        <ele>397.2</ele>
        <time>2021-04-03T12:26:49Z</time>
      </trkpt>
      <trkpt lat="46.63709" lon="5.61567">
        <ele>397.3</ele>
        <time>2021-04-03T12:26:53Z</time>
      </trkpt>
      <trkpt lat="46.63715" lon="5.61567">
        <ele>397.4</ele>
        <time>2021-04-03T12:26:58Z</time>
      </trkpt>
      <trkpt lat="46.6372" lon="5.61568">
        <ele>397.6</ele>
        <time>2021-04-03T12:27:03Z</time>
      </trkpt>
      <trkpt lat="46.63724" lon="5.61569">
        <ele>397.6</ele>
        <time>2021-04-03T12:27:07Z</time>
      </trkpt>
      <trkpt lat="46.63729" lon="5.61572">
        <ele>397.6</ele>
        <time>2021-04-03T12:27:12Z</time>
      </trkpt>
      <trkpt lat="46.63734" lon="5.61572">
        <ele>397.8</ele>
        <time>2021-04-03T12:27:16Z</time>
      </trkpt>
      <trkpt lat="46.63738" lon="5.61573">
        <ele>397.9</ele>
        <time>2021-04-03T12:27:21Z</time>
      </trkpt>
      <trkpt lat="46.63742" lon="5.61577">
        <ele>398.4</ele>
        <time>2021-04-03T12:27:27Z</time>
      </trkpt>
      <trkpt lat="46.63746" lon="5.61581">
        <ele>399.1</ele>
        <time>2021-04-03T12:27:33Z</time>
      </trkpt>
      <trkpt lat="46.63751" lon="5.61582">
        <ele>399.6</ele>
        <time>2021-04-03T12:27:37Z</time>
      </trkpt>
      <trkpt lat="46.63757" lon="5.61581">
        <ele>399.8</ele>
        <time>2021-04-03T12:27:41Z</time>
      </trkpt>
      <trkpt lat="46.63761" lon="5.61579">
        <ele>399.8</ele>
        <time>2021-04-03T12:27:46Z</time>
      </trkpt>
      <trkpt lat="46.63766" lon="5.61579">
        <ele>399.8</ele>
        <time>2021-04-03T12:27:52Z</time>
      </trkpt>
      <trkpt lat="46.63772" lon="5.6158">
        <ele>399.6</ele>
        <time>2021-04-03T12:27:58Z</time>
      </trkpt>
      <trkpt lat="46.63776" lon="5.61583">
        <ele>399.5</ele>
        <time>2021-04-03T12:28:02Z</time>
      </trkpt>
      <trkpt lat="46.63782" lon="5.61587">
        <ele>399.3</ele>
        <time>2021-04-03T12:28:06Z</time>
      </trkpt>
      <trkpt lat="46.63786" lon="5.61589">
        <ele>399.4</ele>
        <time>2021-04-03T12:28:10Z</time>
      </trkpt>
      <trkpt lat="46.63791" lon="5.61593">
        <ele>399.5</ele>
        <time>2021-04-03T12:28:15Z</time>
      </trkpt>
      <trkpt lat="46.63795" lon="5.61598">
        <ele>399.6</ele>
        <time>2021-04-03T12:28:21Z</time>
      </trkpt>
      <trkpt lat="46.63798" lon="5.61603">
        <ele>399.7</ele>
        <time>2021-04-03T12:28:25Z</time>
      </trkpt>
      <trkpt lat="46.63802" lon="5.61608">
        <ele>399.7</ele>
        <time>2021-04-03T12:28:29Z</time>
      </trkpt>
      <trkpt lat="46.63806" lon="5.61613">
        <ele>399.9</ele>
        <time>2021-04-03T12:28:34Z</time>
      </trkpt>
      <trkpt lat="46.63811" lon="5.61616">
        <ele>399.9</ele>
        <time>2021-04-03T12:28:39Z</time>
      </trkpt>
      <trkpt lat="46.63815" lon="5.6162">
        <ele>399.8</ele>
        <time>2021-04-03T12:28:44Z</time>
      </trkpt>
      <trkpt lat="46.63819" lon="5.61625">
        <ele>399.9</ele>
        <time>2021-04-03T12:28:48Z</time>
      </trkpt>
      <trkpt lat="46.63823" lon="5.61628">
        <ele>399.9</ele>
        <time>2021-04-03T12:28:53Z</time>
      </trkpt>
      <trkpt lat="46.63829" lon="5.61629">
        <ele>399.9</ele>
        <time>2021-04-03T12:28:58Z</time>
      </trkpt>
      <trkpt lat="46.63833" lon="5.61631">
        <ele>400.1</ele>
        <time>2021-04-03T12:29:02Z</time>
      </trkpt>
      <trkpt lat="46.63839" lon="5.61635">
        <ele>400.5</ele>
        <time>2021-04-03T12:29:06Z</time>
      </trkpt>
      <trkpt lat="46.63844" lon="5.61641">
        <ele>401.2</ele>
        <time>2021-04-03T12:29:10Z</time>
      </trkpt>
      <trkpt lat="46.63849" lon="5.61643">
        <ele>401.6</ele>
        <time>2021-04-03T12:29:15Z</time>
      </trkpt>
      <trkpt lat="46.63855" lon="5.61646">
        <ele>401.6</ele>
        <time>2021-04-03T12:29:20Z</time>
      </trkpt>
      <trkpt lat="46.63859" lon="5.61649">
        <ele>401.7</ele>
        <time>2021-04-03T12:29:24Z</time>
      </trkpt>
      <trkpt lat="46.63864" lon="5.61652">
        <ele>402.7</ele>
        <time>2021-04-03T12:29:29Z</time>
      </trkpt>
      <trkpt lat="46.63869" lon="5.61655">
        <ele>403.9</ele>
        <time>2021-04-03T12:29:34Z</time>
      </trkpt>
      <trkpt lat="46.63873" lon="5.6166">
        <ele>404.5</ele>
        <time>2021-04-03T12:29:39Z</time>
      </trkpt>
      <trkpt lat="46.63877" lon="5.61663">
        <ele>404.1</ele>
        <time>2021-04-03T12:29:46Z</time>
      </trkpt>
      <trkpt lat="46.63881" lon="5.61668">
        <ele>403.7</ele>
        <time>2021-04-03T12:29:51Z</time>
      </trkpt>
      <trkpt lat="46.63886" lon="5.61672">
        <ele>403.8</ele>
        <time>2021-04-03T12:29:56Z</time>
      </trkpt>
      <trkpt lat="46.63888" lon="5.61678">
        <ele>404</ele>
        <time>2021-04-03T12:30:02Z</time>
      </trkpt>
      <trkpt lat="46.63893" lon="5.61679">
        <ele>404.5</ele>
        <time>2021-04-03T12:30:08Z</time>
      </trkpt>
      <trkpt lat="46.63898" lon="5.61678">
        <ele>405.1</ele>
        <time>2021-04-03T12:30:14Z</time>
      </trkpt>
      <trkpt lat="46.63903" lon="5.61678">
        <ele>405.4</ele>
        <time>2021-04-03T12:30:18Z</time>
      </trkpt>
      <trkpt lat="46.63909" lon="5.61679">
        <ele>405.5</ele>
        <time>2021-04-03T12:30:22Z</time>
      </trkpt>
      <trkpt lat="46.63913" lon="5.61684">
        <ele>405.7</ele>
        <time>2021-04-03T12:30:26Z</time>
      </trkpt>
      <trkpt lat="46.63918" lon="5.61688">
        <ele>405.7</ele>
        <time>2021-04-03T12:30:31Z</time>
      </trkpt>
      <trkpt lat="46.63923" lon="5.6169">
        <ele>405.7</ele>
        <time>2021-04-03T12:30:37Z</time>
      </trkpt>
      <trkpt lat="46.63928" lon="5.61693">
        <ele>405.7</ele>
        <time>2021-04-03T12:30:42Z</time>
      </trkpt>
      <trkpt lat="46.63933" lon="5.61696">
        <ele>405.7</ele>
        <time>2021-04-03T12:30:47Z</time>
      </trkpt>
      <trkpt lat="46.63937" lon="5.617">
        <ele>405.5</ele>
        <time>2021-04-03T12:30:52Z</time>
      </trkpt>
      <trkpt lat="46.63941" lon="5.61705">
        <ele>405.1</ele>
        <time>2021-04-03T12:30:57Z</time>
      </trkpt>
      <trkpt lat="46.63944" lon="5.61712">
        <ele>404.7</ele>
        <time>2021-04-03T12:31:02Z</time>
      </trkpt>
      <trkpt lat="46.63946" lon="5.61719">
        <ele>404.4</ele>
        <time>2021-04-03T12:31:07Z</time>
      </trkpt>
      <trkpt lat="46.6395" lon="5.61723">
        <ele>404.1</ele>
        <time>2021-04-03T12:31:11Z</time>
      </trkpt>
      <trkpt lat="46.63953" lon="5.61728">
        <ele>403.6</ele>
        <time>2021-04-03T12:31:16Z</time>
      </trkpt>
      <trkpt lat="46.63955" lon="5.61734">
        <ele>403.4</ele>
        <time>2021-04-03T12:31:20Z</time>
      </trkpt>
      <trkpt lat="46.63956" lon="5.61741">
        <ele>403.2</ele>
        <time>2021-04-03T12:31:24Z</time>
      </trkpt>
      <trkpt lat="46.63958" lon="5.61747">
        <ele>403</ele>
        <time>2021-04-03T12:31:29Z</time>
      </trkpt>
      <trkpt lat="46.6396" lon="5.61754">
        <ele>402.6</ele>
        <time>2021-04-03T12:31:34Z</time>
      </trkpt>
      <trkpt lat="46.63962" lon="5.61762">
        <ele>402.2</ele>
        <time>2021-04-03T12:31:40Z</time>
      </trkpt>
      <trkpt lat="46.63964" lon="5.61769">
        <ele>402.3</ele>
        <time>2021-04-03T12:31:44Z</time>
      </trkpt>
      <trkpt lat="46.63967" lon="5.61777">
        <ele>402.6</ele>
        <time>2021-04-03T12:31:48Z</time>
      </trkpt>
      <trkpt lat="46.63968" lon="5.61785">
        <ele>402.9</ele>
        <time>2021-04-03T12:31:53Z</time>
      </trkpt>
      <trkpt lat="46.63968" lon="5.61792">
        <ele>403.1</ele>
        <time>2021-04-03T12:31:59Z</time>
      </trkpt>
      <trkpt lat="46.63968" lon="5.61799">
        <ele>403.7</ele>
        <time>2021-04-03T12:32:09Z</time>
      </trkpt>
      <trkpt lat="46.63967" lon="5.61806">
        <ele>404.4</ele>
        <time>2021-04-03T12:32:21Z</time>
      </trkpt>
      <trkpt lat="46.63963" lon="5.6181">
        <ele>405.4</ele>
        <time>2021-04-03T12:32:41Z</time>
      </trkpt>
      <trkpt lat="46.63965" lon="5.61818">
        <ele>405.6</ele>
        <time>2021-04-03T12:32:46Z</time>
      </trkpt>
      <trkpt lat="46.63967" lon="5.61824">
        <ele>406.3</ele>
        <time>2021-04-03T12:32:52Z</time>
      </trkpt>
      <trkpt lat="46.63962" lon="5.61756">
        <ele>487.6</ele>
        <time>2021-04-03T12:34:51Z</time>
      </trkpt>
      <trkpt lat="46.63967" lon="5.61759">
        <ele>489</ele>
        <time>2021-04-03T12:34:56Z</time>
      </trkpt>
      <trkpt lat="46.63968" lon="5.61766">
        <ele>487</ele>
        <time>2021-04-03T12:35:02Z</time>
      </trkpt>
      <trkpt lat="46.63974" lon="5.61771">
        <ele>478</ele>
        <time>2021-04-03T12:35:42Z</time>
      </trkpt>
      <trkpt lat="46.6397" lon="5.61765">
        <ele>477.9</ele>
        <time>2021-04-03T12:35:48Z</time>
      </trkpt>
      <trkpt lat="46.6397" lon="5.61766">
        <ele>474.8</ele>
        <time>2021-04-03T12:36:02Z</time>
      </trkpt>
      <trkpt lat="46.63969" lon="5.61773">
        <ele>470.5</ele>
        <time>2021-04-03T12:36:10Z</time>
      </trkpt>
      <trkpt lat="46.63974" lon="5.61772">
        <ele>464.5</ele>
        <time>2021-04-03T12:36:27Z</time>
      </trkpt>
      <trkpt lat="46.63977" lon="5.61777">
        <ele>462.8</ele>
        <time>2021-04-03T12:36:35Z</time>
      </trkpt>
      <trkpt lat="46.63981" lon="5.6178">
        <ele>461</ele>
        <time>2021-04-03T12:36:45Z</time>
      </trkpt>
      <trkpt lat="46.63752" lon="5.61779">
        <ele>411.2</ele>
        <time>2021-04-03T12:43:21Z</time>
      </trkpt>
      <trkpt lat="46.63754" lon="5.61789">
        <ele>409.6</ele>
        <time>2021-04-03T12:43:25Z</time>
      </trkpt>
      <trkpt lat="46.63753" lon="5.61795">
        <ele>408.3</ele>
        <time>2021-04-03T12:43:29Z</time>
      </trkpt>
      <trkpt lat="46.63746" lon="5.61807">
        <ele>389.7</ele>
        <time>2021-04-03T12:43:58Z</time>
      </trkpt>
      <trkpt lat="46.63743" lon="5.61797">
        <ele>390.5</ele>
        <time>2021-04-03T12:44:02Z</time>
      </trkpt>
      <trkpt lat="46.63738" lon="5.6179">
        <ele>392.1</ele>
        <time>2021-04-03T12:44:06Z</time>
      </trkpt>
      <trkpt lat="46.63734" lon="5.61786">
        <ele>394</ele>
        <time>2021-04-03T12:44:10Z</time>
      </trkpt>
      <trkpt lat="46.63728" lon="5.6178">
        <ele>396.7</ele>
        <time>2021-04-03T12:44:14Z</time>
      </trkpt>
      <trkpt lat="46.63724" lon="5.61769">
        <ele>401</ele>
        <time>2021-04-03T12:44:18Z</time>
      </trkpt>
      <trkpt lat="46.63719" lon="5.61765">
        <ele>404.2</ele>
        <time>2021-04-03T12:44:23Z</time>
      </trkpt>
      <trkpt lat="46.63712" lon="5.61754">
        <ele>409.8</ele>
        <time>2021-04-03T12:44:27Z</time>
      </trkpt>
      <trkpt lat="46.63707" lon="5.61744">
        <ele>416.2</ele>
        <time>2021-04-03T12:44:31Z</time>
      </trkpt>
      <trkpt lat="46.63702" lon="5.61736">
        <ele>421.6</ele>
        <time>2021-04-03T12:44:35Z</time>
      </trkpt>
      <trkpt lat="46.63698" lon="5.61731">
        <ele>425.8</ele>
        <time>2021-04-03T12:44:39Z</time>
      </trkpt>
      <trkpt lat="46.63693" lon="5.61727">
        <ele>429</ele>
        <time>2021-04-03T12:44:43Z</time>
      </trkpt>
      <trkpt lat="46.63689" lon="5.61725">
        <ele>431.5</ele>
        <time>2021-04-03T12:44:47Z</time>
      </trkpt>
      <trkpt lat="46.63684" lon="5.61725">
        <ele>433.6</ele>
        <time>2021-04-03T12:44:53Z</time>
      </trkpt>
      <trkpt lat="46.6368" lon="5.61725">
        <ele>434.5</ele>
        <time>2021-04-03T12:44:58Z</time>
      </trkpt>
      <trkpt lat="46.63674" lon="5.61724">
        <ele>435.5</ele>
        <time>2021-04-03T12:45:03Z</time>
      </trkpt>
      <trkpt lat="46.63669" lon="5.61725">
        <ele>437</ele>
        <time>2021-04-03T12:45:09Z</time>
      </trkpt>
      <trkpt lat="46.63661" lon="5.61727">
        <ele>438</ele>
        <time>2021-04-03T12:45:13Z</time>
      </trkpt>
      <trkpt lat="46.63657" lon="5.61727">
        <ele>438.5</ele>
        <time>2021-04-03T12:45:17Z</time>
      </trkpt>
      <trkpt lat="46.63652" lon="5.61729">
        <ele>438.9</ele>
        <time>2021-04-03T12:45:21Z</time>
      </trkpt>
      <trkpt lat="46.63646" lon="5.61729">
        <ele>438.8</ele>
        <time>2021-04-03T12:45:25Z</time>
      </trkpt>
      <trkpt lat="46.63641" lon="5.61728">
        <ele>438.7</ele>
        <time>2021-04-03T12:45:29Z</time>
      </trkpt>
      <trkpt lat="46.63635" lon="5.61727">
        <ele>438.8</ele>
        <time>2021-04-03T12:45:34Z</time>
      </trkpt>
      <trkpt lat="46.63631" lon="5.61724">
        <ele>438.7</ele>
        <time>2021-04-03T12:45:38Z</time>
      </trkpt>
      <trkpt lat="46.63626" lon="5.61722">
        <ele>438.6</ele>
        <time>2021-04-03T12:45:42Z</time>
      </trkpt>
      <trkpt lat="46.63621" lon="5.61721">
        <ele>438.7</ele>
        <time>2021-04-03T12:45:47Z</time>
      </trkpt>
      <trkpt lat="46.63615" lon="5.6172">
        <ele>438.4</ele>
        <time>2021-04-03T12:45:52Z</time>
      </trkpt>
      <trkpt lat="46.6361" lon="5.6172">
        <ele>436.2</ele>
        <time>2021-04-03T12:45:59Z</time>
      </trkpt>
      <trkpt lat="46.63606" lon="5.61719">
        <ele>434.7</ele>
        <time>2021-04-03T12:46:05Z</time>
      </trkpt>
      <trkpt lat="46.63601" lon="5.6172">
        <ele>433.6</ele>
        <time>2021-04-03T12:46:11Z</time>
      </trkpt>
      <trkpt lat="46.63596" lon="5.61717">
        <ele>432.1</ele>
        <time>2021-04-03T12:46:19Z</time>
      </trkpt>
      <trkpt lat="46.63591" lon="5.61713">
        <ele>431.1</ele>
        <time>2021-04-03T12:46:25Z</time>
      </trkpt>
      <trkpt lat="46.63586" lon="5.61711">
        <ele>430.2</ele>
        <time>2021-04-03T12:46:32Z</time>
      </trkpt>
      <trkpt lat="46.63582" lon="5.61706">
        <ele>430.7</ele>
        <time>2021-04-03T12:46:36Z</time>
      </trkpt>
      <trkpt lat="46.63578" lon="5.61701">
        <ele>431.5</ele>
        <time>2021-04-03T12:46:40Z</time>
      </trkpt>
      <trkpt lat="46.63573" lon="5.61697">
        <ele>432.6</ele>
        <time>2021-04-03T12:46:44Z</time>
      </trkpt>
      <trkpt lat="46.63568" lon="5.61696">
        <ele>433.5</ele>
        <time>2021-04-03T12:46:48Z</time>
      </trkpt>
      <trkpt lat="46.63562" lon="5.61694">
        <ele>434.6</ele>
        <time>2021-04-03T12:46:52Z</time>
      </trkpt>
      <trkpt lat="46.63557" lon="5.61692">
        <ele>436.1</ele>
        <time>2021-04-03T12:46:56Z</time>
      </trkpt>
      <trkpt lat="46.63552" lon="5.61689">
        <ele>437.5</ele>
        <time>2021-04-03T12:47:00Z</time>
      </trkpt>
      <trkpt lat="46.63547" lon="5.61686">
        <ele>438.9</ele>
        <time>2021-04-03T12:47:05Z</time>
      </trkpt>
      <trkpt lat="46.63544" lon="5.6168">
        <ele>439.7</ele>
        <time>2021-04-03T12:47:09Z</time>
      </trkpt>
      <trkpt lat="46.63541" lon="5.61673">
        <ele>440.5</ele>
        <time>2021-04-03T12:47:13Z</time>
      </trkpt>
      <trkpt lat="46.63537" lon="5.61669">
        <ele>440.8</ele>
        <time>2021-04-03T12:47:17Z</time>
      </trkpt>
      <trkpt lat="46.63531" lon="5.61666">
        <ele>440.6</ele>
        <time>2021-04-03T12:47:21Z</time>
      </trkpt>
      <trkpt lat="46.63526" lon="5.61663">
        <ele>440.3</ele>
        <time>2021-04-03T12:47:25Z</time>
      </trkpt>
      <trkpt lat="46.63522" lon="5.61662">
        <ele>439.9</ele>
        <time>2021-04-03T12:47:29Z</time>
      </trkpt>
      <trkpt lat="46.63517" lon="5.61661">
        <ele>439.9</ele>
        <time>2021-04-03T12:47:33Z</time>
      </trkpt>
      <trkpt lat="46.63512" lon="5.61659">
        <ele>440.7</ele>
        <time>2021-04-03T12:47:37Z</time>
      </trkpt>
      <trkpt lat="46.63507" lon="5.61657">
        <ele>441.8</ele>
        <time>2021-04-03T12:47:42Z</time>
      </trkpt>
      <trkpt lat="46.63502" lon="5.61654">
        <ele>442.4</ele>
        <time>2021-04-03T12:47:49Z</time>
      </trkpt>
      <trkpt lat="46.63498" lon="5.61653">
        <ele>442.2</ele>
        <time>2021-04-03T12:47:56Z</time>
      </trkpt>
      <trkpt lat="46.63493" lon="5.61652">
        <ele>442.2</ele>
        <time>2021-04-03T12:48:04Z</time>
      </trkpt>
      <trkpt lat="46.63488" lon="5.61654">
        <ele>442.4</ele>
        <time>2021-04-03T12:48:12Z</time>
      </trkpt>
      <trkpt lat="46.63483" lon="5.61653">
        <ele>442.6</ele>
        <time>2021-04-03T12:48:16Z</time>
      </trkpt>
      <trkpt lat="46.63476" lon="5.61652">
        <ele>443.7</ele>
        <time>2021-04-03T12:48:20Z</time>
      </trkpt>
      <trkpt lat="46.63467" lon="5.6165">
        <ele>445.8</ele>
        <time>2021-04-03T12:48:24Z</time>
      </trkpt>
      <trkpt lat="46.63462" lon="5.61651">
        <ele>447.2</ele>
        <time>2021-04-03T12:48:28Z</time>
      </trkpt>
      <trkpt lat="46.63457" lon="5.61653">
        <ele>448.2</ele>
        <time>2021-04-03T12:48:33Z</time>
      </trkpt>
      <trkpt lat="46.63453" lon="5.61657">
        <ele>449</ele>
        <time>2021-04-03T12:48:38Z</time>
      </trkpt>
      <trkpt lat="46.6345" lon="5.61662">
        <ele>449.9</ele>
        <time>2021-04-03T12:48:46Z</time>
      </trkpt>
      <trkpt lat="46.63445" lon="5.61664">
        <ele>450.9</ele>
        <time>2021-04-03T12:48:55Z</time>
      </trkpt>
      <trkpt lat="46.63441" lon="5.61668">
        <ele>451.6</ele>
        <time>2021-04-03T12:48:59Z</time>
      </trkpt>
      <trkpt lat="46.63434" lon="5.61671">
        <ele>450.9</ele>
        <time>2021-04-03T12:49:07Z</time>
      </trkpt>
      <trkpt lat="46.63429" lon="5.61675">
        <ele>448.4</ele>
        <time>2021-04-03T12:49:11Z</time>
      </trkpt>
      <trkpt lat="46.63425" lon="5.61678">
        <ele>447</ele>
        <time>2021-04-03T12:49:17Z</time>
      </trkpt>
      <trkpt lat="46.6342" lon="5.61679">
        <ele>447.2</ele>
        <time>2021-04-03T12:49:26Z</time>
      </trkpt>
      <trkpt lat="46.63416" lon="5.61684">
        <ele>448.9</ele>
        <time>2021-04-03T12:49:33Z</time>
      </trkpt>
      <trkpt lat="46.63415" lon="5.61678">
        <ele>449.3</ele>
        <time>2021-04-03T12:49:53Z</time>
      </trkpt>
      <trkpt lat="46.63414" lon="5.61671">
        <ele>450.2</ele>
        <time>2021-04-03T12:50:01Z</time>
      </trkpt>
      <trkpt lat="46.6341" lon="5.61667">
        <ele>450.7</ele>
        <time>2021-04-03T12:50:11Z</time>
      </trkpt>
      <trkpt lat="46.63406" lon="5.61669">
        <ele>450.5</ele>
        <time>2021-04-03T12:50:16Z</time>
      </trkpt>
      <trkpt lat="46.63403" lon="5.61673">
        <ele>448.4</ele>
        <time>2021-04-03T12:50:24Z</time>
      </trkpt>
      <trkpt lat="46.63399" lon="5.61668">
        <ele>448.9</ele>
        <time>2021-04-03T12:50:37Z</time>
      </trkpt>
      <trkpt lat="46.63395" lon="5.61665">
        <ele>449</ele>
        <time>2021-04-03T12:50:42Z</time>
      </trkpt>
      <trkpt lat="46.63398" lon="5.61671">
        <ele>450.7</ele>
        <time>2021-04-03T12:51:59Z</time>
      </trkpt>
      <trkpt lat="46.63401" lon="5.61676">
        <ele>450.2</ele>
        <time>2021-04-03T12:52:09Z</time>
      </trkpt>
      <trkpt lat="46.63405" lon="5.6168">
        <ele>449.9</ele>
        <time>2021-04-03T12:52:13Z</time>
      </trkpt>
      <trkpt lat="46.63409" lon="5.61684">
        <ele>449.5</ele>
        <time>2021-04-03T12:52:19Z</time>
      </trkpt>
      <trkpt lat="46.63404" lon="5.61685">
        <ele>449.3</ele>
        <time>2021-04-03T12:52:30Z</time>
      </trkpt>
      <trkpt lat="46.63396" lon="5.61682">
        <ele>449.9</ele>
        <time>2021-04-03T12:52:34Z</time>
      </trkpt>
      <trkpt lat="46.63388" lon="5.61681">
        <ele>452</ele>
        <time>2021-04-03T12:52:38Z</time>
      </trkpt>
      <trkpt lat="46.63384" lon="5.61682">
        <ele>454.4</ele>
        <time>2021-04-03T12:52:44Z</time>
      </trkpt>
      <trkpt lat="46.63379" lon="5.61681">
        <ele>455.8</ele>
        <time>2021-04-03T12:52:50Z</time>
      </trkpt>
      <trkpt lat="46.63374" lon="5.6168">
        <ele>456.4</ele>
        <time>2021-04-03T12:52:54Z</time>
      </trkpt>
      <trkpt lat="46.63369" lon="5.61678">
        <ele>456.8</ele>
        <time>2021-04-03T12:53:01Z</time>
      </trkpt>
      <trkpt lat="46.63363" lon="5.61676">
        <ele>455.9</ele>
        <time>2021-04-03T12:53:05Z</time>
      </trkpt>
      <trkpt lat="46.63361" lon="5.6167">
        <ele>454.9</ele>
        <time>2021-04-03T12:53:11Z</time>
      </trkpt>
      <trkpt lat="46.63358" lon="5.61664">
        <ele>454.1</ele>
        <time>2021-04-03T12:53:19Z</time>
      </trkpt>
      <trkpt lat="46.63353" lon="5.61661">
        <ele>453</ele>
        <time>2021-04-03T12:53:23Z</time>
      </trkpt>
      <trkpt lat="46.6335" lon="5.61655">
        <ele>451.8</ele>
        <time>2021-04-03T12:53:31Z</time>
      </trkpt>
      <trkpt lat="46.63351" lon="5.61648">
        <ele>449.5</ele>
        <time>2021-04-03T12:53:56Z</time>
      </trkpt>
      <trkpt lat="46.63348" lon="5.61643">
        <ele>449</ele>
        <time>2021-04-03T12:54:09Z</time>
      </trkpt>
      <trkpt lat="46.63344" lon="5.6164">
        <ele>448.7</ele>
        <time>2021-04-03T12:54:37Z</time>
      </trkpt>
      <trkpt lat="46.63337" lon="5.61634">
        <ele>448.4</ele>
        <time>2021-04-03T12:54:41Z</time>
      </trkpt>
      <trkpt lat="46.63332" lon="5.61628">
        <ele>447.7</ele>
        <time>2021-04-03T12:54:45Z</time>
      </trkpt>
      <trkpt lat="46.63328" lon="5.61624">
        <ele>447</ele>
        <time>2021-04-03T12:54:49Z</time>
      </trkpt>
      <trkpt lat="46.63323" lon="5.6162">
        <ele>446.1</ele>
        <time>2021-04-03T12:54:54Z</time>
      </trkpt>
      <trkpt lat="46.63321" lon="5.61613">
        <ele>445.5</ele>
        <time>2021-04-03T12:54:58Z</time>
      </trkpt>
      <trkpt lat="46.63319" lon="5.61607">
        <ele>445</ele>
        <time>2021-04-03T12:55:02Z</time>
      </trkpt>
      <trkpt lat="46.63317" lon="5.616">
        <ele>444.4</ele>
        <time>2021-04-03T12:55:07Z</time>
      </trkpt>
      <trkpt lat="46.63314" lon="5.61595">
        <ele>443.8</ele>
        <time>2021-04-03T12:55:12Z</time>
      </trkpt>
      <trkpt lat="46.63311" lon="5.61589">
        <ele>443.3</ele>
        <time>2021-04-03T12:55:17Z</time>
      </trkpt>
      <trkpt lat="46.63315" lon="5.61585">
        <ele>439.4</ele>
        <time>2021-04-03T12:55:48Z</time>
      </trkpt>
      <trkpt lat="46.63317" lon="5.61579">
        <ele>439.9</ele>
        <time>2021-04-03T12:56:13Z</time>
      </trkpt>
      <trkpt lat="46.63315" lon="5.61572">
        <ele>440.8</ele>
        <time>2021-04-03T12:56:17Z</time>
      </trkpt>
      <trkpt lat="46.63311" lon="5.61564">
        <ele>441.5</ele>
        <time>2021-04-03T12:56:21Z</time>
      </trkpt>
      <trkpt lat="46.63308" lon="5.61558">
        <ele>442.3</ele>
        <time>2021-04-03T12:56:25Z</time>
      </trkpt>
      <trkpt lat="46.63307" lon="5.61551">
        <ele>443.5</ele>
        <time>2021-04-03T12:56:30Z</time>
      </trkpt>
      <trkpt lat="46.63306" lon="5.61544">
        <ele>444.3</ele>
        <time>2021-04-03T12:56:34Z</time>
      </trkpt>
      <trkpt lat="46.63307" lon="5.61537">
        <ele>445.6</ele>
        <time>2021-04-03T12:56:39Z</time>
      </trkpt>
      <trkpt lat="46.63308" lon="5.6153">
        <ele>446.6</ele>
        <time>2021-04-03T12:56:43Z</time>
      </trkpt>
      <trkpt lat="46.63307" lon="5.61523">
        <ele>447.6</ele>
        <time>2021-04-03T12:56:48Z</time>
      </trkpt>
      <trkpt lat="46.63307" lon="5.61516">
        <ele>448.5</ele>
        <time>2021-04-03T12:56:53Z</time>
      </trkpt>
      <trkpt lat="46.63308" lon="5.61509">
        <ele>449.6</ele>
        <time>2021-04-03T12:56:58Z</time>
      </trkpt>
      <trkpt lat="46.63308" lon="5.61502">
        <ele>451.6</ele>
        <time>2021-04-03T12:57:03Z</time>
      </trkpt>
      <trkpt lat="46.63306" lon="5.61496">
        <ele>455.5</ele>
        <time>2021-04-03T12:57:14Z</time>
      </trkpt>
      <trkpt lat="46.63302" lon="5.61493">
        <ele>456.4</ele>
        <time>2021-04-03T12:57:22Z</time>
      </trkpt>
      <trkpt lat="46.63306" lon="5.61489">
        <ele>453.3</ele>
        <time>2021-04-03T12:57:43Z</time>
      </trkpt>
      <trkpt lat="46.63306" lon="5.61483">
        <ele>452.8</ele>
        <time>2021-04-03T12:57:49Z</time>
      </trkpt>
      <trkpt lat="46.63309" lon="5.61477">
        <ele>452.7</ele>
        <time>2021-04-03T12:57:55Z</time>
      </trkpt>
      <trkpt lat="46.63309" lon="5.61469">
        <ele>453.1</ele>
        <time>2021-04-03T12:58:01Z</time>
      </trkpt>
      <trkpt lat="46.63306" lon="5.61463">
        <ele>454</ele>
        <time>2021-04-03T12:58:07Z</time>
      </trkpt>
      <trkpt lat="46.63303" lon="5.61456">
        <ele>455.1</ele>
        <time>2021-04-03T12:58:13Z</time>
      </trkpt>
      <trkpt lat="46.633" lon="5.6145">
        <ele>455.9</ele>
        <time>2021-04-03T12:58:17Z</time>
      </trkpt>
      <trkpt lat="46.63296" lon="5.61445">
        <ele>456.5</ele>
        <time>2021-04-03T12:58:21Z</time>
      </trkpt>
      <trkpt lat="46.63291" lon="5.6144">
        <ele>457</ele>
        <time>2021-04-03T12:58:25Z</time>
      </trkpt>
      <trkpt lat="46.63287" lon="5.61435">
        <ele>457.4</ele>
        <time>2021-04-03T12:58:30Z</time>
      </trkpt>
      <trkpt lat="46.63283" lon="5.6143">
        <ele>457.7</ele>
        <time>2021-04-03T12:58:35Z</time>
      </trkpt>
      <trkpt lat="46.6328" lon="5.61425">
        <ele>458</ele>
        <time>2021-04-03T12:58:40Z</time>
      </trkpt>
      <trkpt lat="46.63275" lon="5.61421">
        <ele>457.9</ele>
        <time>2021-04-03T12:58:44Z</time>
      </trkpt>
      <trkpt lat="46.63271" lon="5.61418">
        <ele>457.8</ele>
        <time>2021-04-03T12:58:50Z</time>
      </trkpt>
      <trkpt lat="46.63268" lon="5.61412">
        <ele>458.2</ele>
        <time>2021-04-03T12:58:58Z</time>
      </trkpt>
      <trkpt lat="46.63265" lon="5.61408">
        <ele>458.6</ele>
        <time>2021-04-03T12:59:03Z</time>
      </trkpt>
      <trkpt lat="46.63261" lon="5.61404">
        <ele>459</ele>
        <time>2021-04-03T12:59:07Z</time>
      </trkpt>
      <trkpt lat="46.63258" lon="5.61398">
        <ele>459.4</ele>
        <time>2021-04-03T12:59:11Z</time>
      </trkpt>
      <trkpt lat="46.63253" lon="5.61395">
        <ele>459.9</ele>
        <time>2021-04-03T12:59:15Z</time>
      </trkpt>
      <trkpt lat="46.63249" lon="5.61389">
        <ele>460.6</ele>
        <time>2021-04-03T12:59:19Z</time>
      </trkpt>
      <trkpt lat="46.63246" lon="5.61384">
        <ele>461.7</ele>
        <time>2021-04-03T12:59:23Z</time>
      </trkpt>
      <trkpt lat="46.63242" lon="5.6138">
        <ele>462.4</ele>
        <time>2021-04-03T12:59:27Z</time>
      </trkpt>
      <trkpt lat="46.63238" lon="5.61378">
        <ele>462.3</ele>
        <time>2021-04-03T12:59:31Z</time>
      </trkpt>
      <trkpt lat="46.63233" lon="5.61374">
        <ele>462.2</ele>
        <time>2021-04-03T12:59:36Z</time>
      </trkpt>
      <trkpt lat="46.63233" lon="5.61367">
        <ele>462</ele>
        <time>2021-04-03T12:59:41Z</time>
      </trkpt>
      <trkpt lat="46.6323" lon="5.61361">
        <ele>462.6</ele>
        <time>2021-04-03T12:59:45Z</time>
      </trkpt>
      <trkpt lat="46.63227" lon="5.61356">
        <ele>463.3</ele>
        <time>2021-04-03T12:59:49Z</time>
      </trkpt>
      <trkpt lat="46.63223" lon="5.61352">
        <ele>463.2</ele>
        <time>2021-04-03T12:59:54Z</time>
      </trkpt>
      <trkpt lat="46.63218" lon="5.61348">
        <ele>463</ele>
        <time>2021-04-03T12:59:59Z</time>
      </trkpt>
      <trkpt lat="46.63214" lon="5.61343">
        <ele>463.9</ele>
        <time>2021-04-03T13:00:04Z</time>
      </trkpt>
      <trkpt lat="46.6321" lon="5.61338">
        <ele>464.8</ele>
        <time>2021-04-03T13:00:08Z</time>
      </trkpt>
      <trkpt lat="46.63206" lon="5.61334">
        <ele>465.7</ele>
        <time>2021-04-03T13:00:12Z</time>
      </trkpt>
      <trkpt lat="46.63202" lon="5.61331">
        <ele>462.7</ele>
        <time>2021-04-03T13:00:21Z</time>
      </trkpt>
      <trkpt lat="46.63197" lon="5.61329">
        <ele>455.9</ele>
        <time>2021-04-03T13:00:31Z</time>
      </trkpt>
      <trkpt lat="46.63192" lon="5.61331">
        <ele>450.8</ele>
        <time>2021-04-03T13:00:38Z</time>
      </trkpt>
      <trkpt lat="46.63188" lon="5.61335">
        <ele>443.9</ele>
        <time>2021-04-03T13:00:47Z</time>
      </trkpt>
      <trkpt lat="46.63183" lon="5.61332">
        <ele>438.9</ele>
        <time>2021-04-03T13:00:53Z</time>
      </trkpt>
      <trkpt lat="46.6318" lon="5.61327">
        <ele>434.4</ele>
        <time>2021-04-03T13:00:59Z</time>
      </trkpt>
      <trkpt lat="46.63176" lon="5.61323">
        <ele>432.4</ele>
        <time>2021-04-03T13:01:04Z</time>
      </trkpt>
      <trkpt lat="46.63171" lon="5.6132">
        <ele>431.8</ele>
        <time>2021-04-03T13:01:09Z</time>
      </trkpt>
      <trkpt lat="46.63164" lon="5.61311">
        <ele>434</ele>
        <time>2021-04-03T13:01:13Z</time>
      </trkpt>
      <trkpt lat="46.63149" lon="5.61287">
        <ele>447.7</ele>
        <time>2021-04-03T13:01:17Z</time>
      </trkpt>
      <trkpt lat="46.63144" lon="5.61281">
        <ele>453.9</ele>
        <time>2021-04-03T13:01:21Z</time>
      </trkpt>
      <trkpt lat="46.63139" lon="5.61277">
        <ele>457.2</ele>
        <time>2021-04-03T13:01:25Z</time>
      </trkpt>
      <trkpt lat="46.63135" lon="5.61272">
        <ele>459</ele>
        <time>2021-04-03T13:01:30Z</time>
      </trkpt>
      <trkpt lat="46.6313" lon="5.61268">
        <ele>460.1</ele>
        <time>2021-04-03T13:01:35Z</time>
      </trkpt>
      <trkpt lat="46.63126" lon="5.61267">
        <ele>460.8</ele>
        <time>2021-04-03T13:01:39Z</time>
      </trkpt>
      <trkpt lat="46.6312" lon="5.61267">
        <ele>461.8</ele>
        <time>2021-04-03T13:01:44Z</time>
      </trkpt>
      <trkpt lat="46.63116" lon="5.61269">
        <ele>462.7</ele>
        <time>2021-04-03T13:01:48Z</time>
      </trkpt>
      <trkpt lat="46.63111" lon="5.6127">
        <ele>463.3</ele>
        <time>2021-04-03T13:01:52Z</time>
      </trkpt>
      <trkpt lat="46.63111" lon="5.61282">
        <ele>461.8</ele>
        <time>2021-04-03T13:01:56Z</time>
      </trkpt>
      <trkpt lat="46.63109" lon="5.61288">
        <ele>460.7</ele>
        <time>2021-04-03T13:02:00Z</time>
      </trkpt>
      <trkpt lat="46.63104" lon="5.6129">
        <ele>459.9</ele>
        <time>2021-04-03T13:02:08Z</time>
      </trkpt>
      <trkpt lat="46.631" lon="5.6129">
        <ele>459.7</ele>
        <time>2021-04-03T13:02:13Z</time>
      </trkpt>
      <trkpt lat="46.63095" lon="5.61293">
        <ele>459.1</ele>
        <time>2021-04-03T13:02:20Z</time>
      </trkpt>
      <trkpt lat="46.63091" lon="5.61296">
        <ele>458.1</ele>
        <time>2021-04-03T13:02:26Z</time>
      </trkpt>
      <trkpt lat="46.63088" lon="5.61301">
        <ele>457.1</ele>
        <time>2021-04-03T13:02:30Z</time>
      </trkpt>
      <trkpt lat="46.63084" lon="5.61306">
        <ele>456</ele>
        <time>2021-04-03T13:02:34Z</time>
      </trkpt>
      <trkpt lat="46.6308" lon="5.61309">
        <ele>454.6</ele>
        <time>2021-04-03T13:02:41Z</time>
      </trkpt>
      <trkpt lat="46.63074" lon="5.61312">
        <ele>452.6</ele>
        <time>2021-04-03T13:02:46Z</time>
      </trkpt>
      <trkpt lat="46.63067" lon="5.61311">
        <ele>452</ele>
        <time>2021-04-03T13:02:50Z</time>
      </trkpt>
      <trkpt lat="46.63062" lon="5.61311">
        <ele>452</ele>
        <time>2021-04-03T13:02:55Z</time>
      </trkpt>
      <trkpt lat="46.63057" lon="5.61315">
        <ele>452.8</ele>
        <time>2021-04-03T13:03:01Z</time>
      </trkpt>
      <trkpt lat="46.63054" lon="5.6132">
        <ele>453.6</ele>
        <time>2021-04-03T13:03:06Z</time>
      </trkpt>
      <trkpt lat="46.6305" lon="5.61326">
        <ele>454.4</ele>
        <time>2021-04-03T13:03:11Z</time>
      </trkpt>
      <trkpt lat="46.6304" lon="5.61322">
        <ele>455</ele>
        <time>2021-04-03T13:03:15Z</time>
      </trkpt>
      <trkpt lat="46.63034" lon="5.61318">
        <ele>455.9</ele>
        <time>2021-04-03T13:03:19Z</time>
      </trkpt>
      <trkpt lat="46.63029" lon="5.61315">
        <ele>457.4</ele>
        <time>2021-04-03T13:03:23Z</time>
      </trkpt>
      <trkpt lat="46.63026" lon="5.61321">
        <ele>459.4</ele>
        <time>2021-04-03T13:03:30Z</time>
      </trkpt>
      <trkpt lat="46.63026" lon="5.61328">
        <ele>458.8</ele>
        <time>2021-04-03T13:03:34Z</time>
      </trkpt>
      <trkpt lat="46.63023" lon="5.61333">
        <ele>457.6</ele>
        <time>2021-04-03T13:03:38Z</time>
      </trkpt>
      <trkpt lat="46.63018" lon="5.61335">
        <ele>456.2</ele>
        <time>2021-04-03T13:03:43Z</time>
      </trkpt>
      <trkpt lat="46.63013" lon="5.61338">
        <ele>454.5</ele>
        <time>2021-04-03T13:03:49Z</time>
      </trkpt>
      <trkpt lat="46.63009" lon="5.61343">
        <ele>452</ele>
        <time>2021-04-03T13:03:55Z</time>
      </trkpt>
      <trkpt lat="46.63004" lon="5.61344">
        <ele>448.5</ele>
        <time>2021-04-03T13:04:04Z</time>
      </trkpt>
      <trkpt lat="46.63" lon="5.61341">
        <ele>447.4</ele>
        <time>2021-04-03T13:04:10Z</time>
      </trkpt>
      <trkpt lat="46.62995" lon="5.61339">
        <ele>448.7</ele>
        <time>2021-04-03T13:04:14Z</time>
      </trkpt>
      <trkpt lat="46.62989" lon="5.61342">
        <ele>450.4</ele>
        <time>2021-04-03T13:04:19Z</time>
      </trkpt>
      <trkpt lat="46.62985" lon="5.61344">
        <ele>451.9</ele>
        <time>2021-04-03T13:04:23Z</time>
      </trkpt>
      <trkpt lat="46.62979" lon="5.61348">
        <ele>453.9</ele>
        <time>2021-04-03T13:04:27Z</time>
      </trkpt>
      <trkpt lat="46.62974" lon="5.61349">
        <ele>456.1</ele>
        <time>2021-04-03T13:04:31Z</time>
      </trkpt>
      <trkpt lat="46.6297" lon="5.61351">
        <ele>458.6</ele>
        <time>2021-04-03T13:04:36Z</time>
      </trkpt>
      <trkpt lat="46.62965" lon="5.61354">
        <ele>460.1</ele>
        <time>2021-04-03T13:04:40Z</time>
      </trkpt>
      <trkpt lat="46.6296" lon="5.61355">
        <ele>461.6</ele>
        <time>2021-04-03T13:04:44Z</time>
      </trkpt>
      <trkpt lat="46.62956" lon="5.61355">
        <ele>463.1</ele>
        <time>2021-04-03T13:04:49Z</time>
      </trkpt>
      <trkpt lat="46.6295" lon="5.61355">
        <ele>463.3</ele>
        <time>2021-04-03T13:04:55Z</time>
      </trkpt>
      <trkpt lat="46.62945" lon="5.61355">
        <ele>463.7</ele>
        <time>2021-04-03T13:05:00Z</time>
      </trkpt>
      <trkpt lat="46.6294" lon="5.61356">
        <ele>464.1</ele>
        <time>2021-04-03T13:05:06Z</time>
      </trkpt>
      <trkpt lat="46.62934" lon="5.61354">
        <ele>464.5</ele>
        <time>2021-04-03T13:05:12Z</time>
      </trkpt>
      <trkpt lat="46.62928" lon="5.61353">
        <ele>464.3</ele>
        <time>2021-04-03T13:05:16Z</time>
      </trkpt>
      <trkpt lat="46.62923" lon="5.61355">
        <ele>463.8</ele>
        <time>2021-04-03T13:05:21Z</time>
      </trkpt>
      <trkpt lat="46.62918" lon="5.61357">
        <ele>463.3</ele>
        <time>2021-04-03T13:05:26Z</time>
      </trkpt>
      <trkpt lat="46.62913" lon="5.6136">
        <ele>462.8</ele>
        <time>2021-04-03T13:05:30Z</time>
      </trkpt>
      <trkpt lat="46.62908" lon="5.61364">
        <ele>461.9</ele>
        <time>2021-04-03T13:05:36Z</time>
      </trkpt>
      <trkpt lat="46.62903" lon="5.61366">
        <ele>461</ele>
        <time>2021-04-03T13:05:43Z</time>
      </trkpt>
      <trkpt lat="46.62899" lon="5.61366">
        <ele>460.2</ele>
        <time>2021-04-03T13:05:48Z</time>
      </trkpt>
      <trkpt lat="46.62895" lon="5.6137">
        <ele>458.2</ele>
        <time>2021-04-03T13:05:53Z</time>
      </trkpt>
      <trkpt lat="46.6289" lon="5.61373">
        <ele>456</ele>
        <time>2021-04-03T13:05:57Z</time>
      </trkpt>
      <trkpt lat="46.62886" lon="5.61377">
        <ele>454</ele>
        <time>2021-04-03T13:06:03Z</time>
      </trkpt>
      <trkpt lat="46.62882" lon="5.61381">
        <ele>452.5</ele>
        <time>2021-04-03T13:06:08Z</time>
      </trkpt>
      <trkpt lat="46.62878" lon="5.61384">
        <ele>451.2</ele>
        <time>2021-04-03T13:06:13Z</time>
      </trkpt>
      <trkpt lat="46.62875" lon="5.61389">
        <ele>450</ele>
        <time>2021-04-03T13:06:17Z</time>
      </trkpt>
      <trkpt lat="46.6287" lon="5.61394">
        <ele>448.9</ele>
        <time>2021-04-03T13:06:21Z</time>
      </trkpt>
      <trkpt lat="46.62865" lon="5.61396">
        <ele>448.1</ele>
        <time>2021-04-03T13:06:25Z</time>
      </trkpt>
      <trkpt lat="46.6286" lon="5.61394">
        <ele>448.5</ele>
        <time>2021-04-03T13:06:29Z</time>
      </trkpt>
      <trkpt lat="46.62855" lon="5.61391">
        <ele>448.6</ele>
        <time>2021-04-03T13:06:33Z</time>
      </trkpt>
      <trkpt lat="46.6285" lon="5.61394">
        <ele>448.8</ele>
        <time>2021-04-03T13:06:38Z</time>
      </trkpt>
      <trkpt lat="46.62846" lon="5.61393">
        <ele>449</ele>
        <time>2021-04-03T13:06:44Z</time>
      </trkpt>
      <trkpt lat="46.62841" lon="5.6139">
        <ele>449.3</ele>
        <time>2021-04-03T13:06:50Z</time>
      </trkpt>
      <trkpt lat="46.62836" lon="5.6139">
        <ele>450.8</ele>
        <time>2021-04-03T13:06:56Z</time>
      </trkpt>
      <trkpt lat="46.62832" lon="5.61392">
        <ele>452.3</ele>
        <time>2021-04-03T13:07:02Z</time>
      </trkpt>
      <trkpt lat="46.62827" lon="5.61391">
        <ele>453.7</ele>
        <time>2021-04-03T13:07:07Z</time>
      </trkpt>
      <trkpt lat="46.62822" lon="5.61392">
        <ele>454.8</ele>
        <time>2021-04-03T13:07:11Z</time>
      </trkpt>
      <trkpt lat="46.62817" lon="5.61391">
        <ele>456.1</ele>
        <time>2021-04-03T13:07:16Z</time>
      </trkpt>
      <trkpt lat="46.62813" lon="5.61392">
        <ele>456.9</ele>
        <time>2021-04-03T13:07:20Z</time>
      </trkpt>
      <trkpt lat="46.62807" lon="5.61394">
        <ele>458</ele>
        <time>2021-04-03T13:07:25Z</time>
      </trkpt>
      <trkpt lat="46.62802" lon="5.61392">
        <ele>458.8</ele>
        <time>2021-04-03T13:07:30Z</time>
      </trkpt>
      <trkpt lat="46.62796" lon="5.61389">
        <ele>461.4</ele>
        <time>2021-04-03T13:07:34Z</time>
      </trkpt>
      <trkpt lat="46.62788" lon="5.61385">
        <ele>464.7</ele>
        <time>2021-04-03T13:07:38Z</time>
      </trkpt>
      <trkpt lat="46.62782" lon="5.61384">
        <ele>467.7</ele>
        <time>2021-04-03T13:07:42Z</time>
      </trkpt>
      <trkpt lat="46.62777" lon="5.61381">
        <ele>470.5</ele>
        <time>2021-04-03T13:07:48Z</time>
      </trkpt>
      <trkpt lat="46.62773" lon="5.61382">
        <ele>470.5</ele>
        <time>2021-04-03T13:07:55Z</time>
      </trkpt>
      <trkpt lat="46.62767" lon="5.61386">
        <ele>468.2</ele>
        <time>2021-04-03T13:08:01Z</time>
      </trkpt>
      <trkpt lat="46.62762" lon="5.61386">
        <ele>465.3</ele>
        <time>2021-04-03T13:08:09Z</time>
      </trkpt>
      <trkpt lat="46.62757" lon="5.61384">
        <ele>463.4</ele>
        <time>2021-04-03T13:08:16Z</time>
      </trkpt>
      <trkpt lat="46.62752" lon="5.61379">
        <ele>462.1</ele>
        <time>2021-04-03T13:08:21Z</time>
      </trkpt>
      <trkpt lat="46.62745" lon="5.6138">
        <ele>462.7</ele>
        <time>2021-04-03T13:08:25Z</time>
      </trkpt>
      <trkpt lat="46.62741" lon="5.61383">
        <ele>462.4</ele>
        <time>2021-04-03T13:08:36Z</time>
      </trkpt>
      <trkpt lat="46.62736" lon="5.61382">
        <ele>461.7</ele>
        <time>2021-04-03T13:08:41Z</time>
      </trkpt>
      <trkpt lat="46.62732" lon="5.61382">
        <ele>461.3</ele>
        <time>2021-04-03T13:08:53Z</time>
      </trkpt>
      <trkpt lat="46.62731" lon="5.61375">
        <ele>462.8</ele>
        <time>2021-04-03T13:09:19Z</time>
      </trkpt>
      <trkpt lat="46.62727" lon="5.61371">
        <ele>462.9</ele>
        <time>2021-04-03T13:09:23Z</time>
      </trkpt>
      <trkpt lat="46.62723" lon="5.61365">
        <ele>463</ele>
        <time>2021-04-03T13:09:27Z</time>
      </trkpt>
      <trkpt lat="46.6272" lon="5.61361">
        <ele>463.1</ele>
        <time>2021-04-03T13:09:31Z</time>
      </trkpt>
      <trkpt lat="46.62715" lon="5.61359">
        <ele>463.2</ele>
        <time>2021-04-03T13:09:35Z</time>
      </trkpt>
      <trkpt lat="46.62711" lon="5.61355">
        <ele>463.8</ele>
        <time>2021-04-03T13:09:40Z</time>
      </trkpt>
      <trkpt lat="46.62708" lon="5.61349">
        <ele>464</ele>
        <time>2021-04-03T13:09:44Z</time>
      </trkpt>
      <trkpt lat="46.62702" lon="5.61344">
        <ele>463.6</ele>
        <time>2021-04-03T13:09:48Z</time>
      </trkpt>
      <trkpt lat="46.62698" lon="5.61338">
        <ele>463.1</ele>
        <time>2021-04-03T13:09:52Z</time>
      </trkpt>
      <trkpt lat="46.62693" lon="5.61329">
        <ele>462.2</ele>
        <time>2021-04-03T13:09:56Z</time>
      </trkpt>
      <trkpt lat="46.62689" lon="5.61321">
        <ele>462.2</ele>
        <time>2021-04-03T13:10:00Z</time>
      </trkpt>
      <trkpt lat="46.62684" lon="5.6131">
        <ele>463.8</ele>
        <time>2021-04-03T13:10:04Z</time>
      </trkpt>
      <trkpt lat="46.62678" lon="5.61301">
        <ele>467.2</ele>
        <time>2021-04-03T13:10:08Z</time>
      </trkpt>
      <trkpt lat="46.62674" lon="5.61297">
        <ele>469.4</ele>
        <time>2021-04-03T13:10:12Z</time>
      </trkpt>
      <trkpt lat="46.6267" lon="5.61294">
        <ele>470.9</ele>
        <time>2021-04-03T13:10:16Z</time>
      </trkpt>
      <trkpt lat="46.62666" lon="5.61291">
        <ele>471.6</ele>
        <time>2021-04-03T13:10:20Z</time>
      </trkpt>
      <trkpt lat="46.62663" lon="5.61285">
        <ele>471.7</ele>
        <time>2021-04-03T13:10:26Z</time>
      </trkpt>
      <trkpt lat="46.62661" lon="5.6128">
        <ele>471.9</ele>
        <time>2021-04-03T13:10:32Z</time>
      </trkpt>
      <trkpt lat="46.62657" lon="5.61275">
        <ele>472.6</ele>
        <time>2021-04-03T13:10:40Z</time>
      </trkpt>
      <trkpt lat="46.62653" lon="5.61272">
        <ele>470.4</ele>
        <time>2021-04-03T13:10:51Z</time>
      </trkpt>
      <trkpt lat="46.62649" lon="5.61266">
        <ele>467.6</ele>
        <time>2021-04-03T13:10:59Z</time>
      </trkpt>
      <trkpt lat="46.62646" lon="5.61261">
        <ele>466.7</ele>
        <time>2021-04-03T13:11:03Z</time>
      </trkpt>
      <trkpt lat="46.62643" lon="5.61255">
        <ele>465.8</ele>
        <time>2021-04-03T13:11:07Z</time>
      </trkpt>
      <trkpt lat="46.62639" lon="5.61258">
        <ele>458.6</ele>
        <time>2021-04-03T13:11:21Z</time>
      </trkpt>
      <trkpt lat="46.62634" lon="5.61256">
        <ele>454.7</ele>
        <time>2021-04-03T13:11:28Z</time>
      </trkpt>
      <trkpt lat="46.62632" lon="5.61249">
        <ele>452.8</ele>
        <time>2021-04-03T13:11:32Z</time>
      </trkpt>
      <trkpt lat="46.62629" lon="5.61243">
        <ele>449.7</ele>
        <time>2021-04-03T13:11:38Z</time>
      </trkpt>
      <trkpt lat="46.62626" lon="5.61239">
        <ele>447.7</ele>
        <time>2021-04-03T13:11:43Z</time>
      </trkpt>
      <trkpt lat="46.62621" lon="5.61235">
        <ele>447.4</ele>
        <time>2021-04-03T13:11:48Z</time>
      </trkpt>
      <trkpt lat="46.62617" lon="5.61232">
        <ele>446.8</ele>
        <time>2021-04-03T13:11:56Z</time>
      </trkpt>
      <trkpt lat="46.62612" lon="5.6123">
        <ele>446.5</ele>
        <time>2021-04-03T13:12:05Z</time>
      </trkpt>
      <trkpt lat="46.62607" lon="5.61227">
        <ele>446.5</ele>
        <time>2021-04-03T13:12:13Z</time>
      </trkpt>
      <trkpt lat="46.62603" lon="5.61225">
        <ele>446</ele>
        <time>2021-04-03T13:12:20Z</time>
      </trkpt>
      <trkpt lat="46.62598" lon="5.61223">
        <ele>446.2</ele>
        <time>2021-04-03T13:12:26Z</time>
      </trkpt>
      <trkpt lat="46.62593" lon="5.61221">
        <ele>446.5</ele>
        <time>2021-04-03T13:12:30Z</time>
      </trkpt>
      <trkpt lat="46.62587" lon="5.61217">
        <ele>447</ele>
        <time>2021-04-03T13:12:34Z</time>
      </trkpt>
      <trkpt lat="46.62583" lon="5.61212">
        <ele>447.6</ele>
        <time>2021-04-03T13:12:38Z</time>
      </trkpt>
      <trkpt lat="46.62579" lon="5.61207">
        <ele>448</ele>
        <time>2021-04-03T13:12:42Z</time>
      </trkpt>
      <trkpt lat="46.62574" lon="5.61202">
        <ele>448.9</ele>
        <time>2021-04-03T13:12:47Z</time>
      </trkpt>
      <trkpt lat="46.6257" lon="5.61201">
        <ele>449.8</ele>
        <time>2021-04-03T13:12:52Z</time>
      </trkpt>
      <trkpt lat="46.62565" lon="5.61199">
        <ele>450.5</ele>
        <time>2021-04-03T13:12:57Z</time>
      </trkpt>
      <trkpt lat="46.6256" lon="5.61196">
        <ele>451</ele>
        <time>2021-04-03T13:13:02Z</time>
      </trkpt>
      <trkpt lat="46.62555" lon="5.61196">
        <ele>451</ele>
        <time>2021-04-03T13:13:07Z</time>
      </trkpt>
      <trkpt lat="46.62551" lon="5.612">
        <ele>450.7</ele>
        <time>2021-04-03T13:13:13Z</time>
      </trkpt>
      <trkpt lat="46.62545" lon="5.61203">
        <ele>450</ele>
        <time>2021-04-03T13:13:20Z</time>
      </trkpt>
      <trkpt lat="46.62542" lon="5.61217">
        <ele>449.2</ele>
        <time>2021-04-03T13:13:24Z</time>
      </trkpt>
      <trkpt lat="46.62538" lon="5.61217">
        <ele>447.9</ele>
        <time>2021-04-03T13:13:30Z</time>
      </trkpt>
      <trkpt lat="46.62535" lon="5.61211">
        <ele>447.2</ele>
        <time>2021-04-03T13:13:34Z</time>
      </trkpt>
      <trkpt lat="46.62532" lon="5.61205">
        <ele>446.6</ele>
        <time>2021-04-03T13:13:38Z</time>
      </trkpt>
      <trkpt lat="46.62529" lon="5.612">
        <ele>446.2</ele>
        <time>2021-04-03T13:13:42Z</time>
      </trkpt>
      <trkpt lat="46.62527" lon="5.61192">
        <ele>445.8</ele>
        <time>2021-04-03T13:13:46Z</time>
      </trkpt>
      <trkpt lat="46.62523" lon="5.61187">
        <ele>445.2</ele>
        <time>2021-04-03T13:13:50Z</time>
      </trkpt>
      <trkpt lat="46.62519" lon="5.61182">
        <ele>444.3</ele>
        <time>2021-04-03T13:13:55Z</time>
      </trkpt>
      <trkpt lat="46.62515" lon="5.61186">
        <ele>442.9</ele>
        <time>2021-04-03T13:14:01Z</time>
      </trkpt>
      <trkpt lat="46.62511" lon="5.61182">
        <ele>441.3</ele>
        <time>2021-04-03T13:14:07Z</time>
      </trkpt>
      <trkpt lat="46.62506" lon="5.61178">
        <ele>439.9</ele>
        <time>2021-04-03T13:14:12Z</time>
      </trkpt>
      <trkpt lat="46.62501" lon="5.61173">
        <ele>438.7</ele>
        <time>2021-04-03T13:14:17Z</time>
      </trkpt>
      <trkpt lat="46.62497" lon="5.6117">
        <ele>437.7</ele>
        <time>2021-04-03T13:14:22Z</time>
      </trkpt>
      <trkpt lat="46.62493" lon="5.61165">
        <ele>436.8</ele>
        <time>2021-04-03T13:14:26Z</time>
      </trkpt>
      <trkpt lat="46.62489" lon="5.6116">
        <ele>436.2</ele>
        <time>2021-04-03T13:14:30Z</time>
      </trkpt>
      <trkpt lat="46.62483" lon="5.61157">
        <ele>435.4</ele>
        <time>2021-04-03T13:14:35Z</time>
      </trkpt>
      <trkpt lat="46.62478" lon="5.61155">
        <ele>434.5</ele>
        <time>2021-04-03T13:14:40Z</time>
      </trkpt>
      <trkpt lat="46.62474" lon="5.61151">
        <ele>434</ele>
        <time>2021-04-03T13:14:45Z</time>
      </trkpt>
      <trkpt lat="46.6247" lon="5.61148">
        <ele>433.7</ele>
        <time>2021-04-03T13:14:49Z</time>
      </trkpt>
      <trkpt lat="46.62464" lon="5.61146">
        <ele>432.7</ele>
        <time>2021-04-03T13:14:53Z</time>
      </trkpt>
      <trkpt lat="46.62459" lon="5.61143">
        <ele>431.2</ele>
        <time>2021-04-03T13:14:57Z</time>
      </trkpt>
      <trkpt lat="46.62454" lon="5.61141">
        <ele>429.8</ele>
        <time>2021-04-03T13:15:02Z</time>
      </trkpt>
      <trkpt lat="46.62449" lon="5.61138">
        <ele>428.5</ele>
        <time>2021-04-03T13:15:07Z</time>
      </trkpt>
      <trkpt lat="46.62446" lon="5.61133">
        <ele>427.4</ele>
        <time>2021-04-03T13:15:12Z</time>
      </trkpt>
      <trkpt lat="46.62442" lon="5.6113">
        <ele>426.9</ele>
        <time>2021-04-03T13:15:16Z</time>
      </trkpt>
      <trkpt lat="46.62437" lon="5.61127">
        <ele>426.6</ele>
        <time>2021-04-03T13:15:21Z</time>
      </trkpt>
      <trkpt lat="46.62432" lon="5.61125">
        <ele>425.9</ele>
        <time>2021-04-03T13:15:27Z</time>
      </trkpt>
      <trkpt lat="46.62428" lon="5.61125">
        <ele>425.2</ele>
        <time>2021-04-03T13:15:33Z</time>
      </trkpt>
      <trkpt lat="46.62422" lon="5.61124">
        <ele>424.8</ele>
        <time>2021-04-03T13:15:38Z</time>
      </trkpt>
      <trkpt lat="46.62418" lon="5.61121">
        <ele>425</ele>
        <time>2021-04-03T13:15:42Z</time>
      </trkpt>
      <trkpt lat="46.62413" lon="5.61119">
        <ele>425.5</ele>
        <time>2021-04-03T13:15:48Z</time>
      </trkpt>
      <trkpt lat="46.62408" lon="5.61116">
        <ele>426.5</ele>
        <time>2021-04-03T13:15:55Z</time>
      </trkpt>
      <trkpt lat="46.62403" lon="5.61114">
        <ele>427.2</ele>
        <time>2021-04-03T13:16:01Z</time>
      </trkpt>
      <trkpt lat="46.62398" lon="5.61114">
        <ele>427.5</ele>
        <time>2021-04-03T13:16:06Z</time>
      </trkpt>
      <trkpt lat="46.62394" lon="5.61111">
        <ele>428.2</ele>
        <time>2021-04-03T13:16:11Z</time>
      </trkpt>
      <trkpt lat="46.62388" lon="5.61109">
        <ele>428.8</ele>
        <time>2021-04-03T13:16:17Z</time>
      </trkpt>
      <trkpt lat="46.62383" lon="5.61108">
        <ele>429.4</ele>
        <time>2021-04-03T13:16:26Z</time>
      </trkpt>
      <trkpt lat="46.62379" lon="5.61108">
        <ele>429.9</ele>
        <time>2021-04-03T13:16:32Z</time>
      </trkpt>
      <trkpt lat="46.62373" lon="5.61108">
        <ele>430.6</ele>
        <time>2021-04-03T13:16:39Z</time>
      </trkpt>
      <trkpt lat="46.62369" lon="5.61109">
        <ele>430.9</ele>
        <time>2021-04-03T13:16:45Z</time>
      </trkpt>
      <trkpt lat="46.62363" lon="5.61108">
        <ele>431.1</ele>
        <time>2021-04-03T13:16:50Z</time>
      </trkpt>
      <trkpt lat="46.62358" lon="5.61109">
        <ele>431.7</ele>
        <time>2021-04-03T13:16:55Z</time>
      </trkpt>
      <trkpt lat="46.62354" lon="5.6111">
        <ele>433.4</ele>
        <time>2021-04-03T13:17:03Z</time>
      </trkpt>
      <trkpt lat="46.62349" lon="5.61109">
        <ele>438.6</ele>
        <time>2021-04-03T13:17:44Z</time>
      </trkpt>
      <trkpt lat="46.62344" lon="5.61105">
        <ele>445.7</ele>
        <time>2021-04-03T13:18:02Z</time>
      </trkpt>
      <trkpt lat="46.6234" lon="5.61109">
        <ele>447</ele>
        <time>2021-04-03T13:18:35Z</time>
      </trkpt>
      <trkpt lat="46.62336" lon="5.61113">
        <ele>446.4</ele>
        <time>2021-04-03T13:18:43Z</time>
      </trkpt>
      <trkpt lat="46.62331" lon="5.61114">
        <ele>446.1</ele>
        <time>2021-04-03T13:18:49Z</time>
      </trkpt>
      <trkpt lat="46.62326" lon="5.61115">
        <ele>445.8</ele>
        <time>2021-04-03T13:18:55Z</time>
      </trkpt>
      <trkpt lat="46.62321" lon="5.61111">
        <ele>445.8</ele>
        <time>2021-04-03T13:18:59Z</time>
      </trkpt>
      <trkpt lat="46.62316" lon="5.6111">
        <ele>445.8</ele>
        <time>2021-04-03T13:19:03Z</time>
      </trkpt>
      <trkpt lat="46.62312" lon="5.6111">
        <ele>445.8</ele>
        <time>2021-04-03T13:19:08Z</time>
      </trkpt>
      <trkpt lat="46.62308" lon="5.61114">
        <ele>445.3</ele>
        <time>2021-04-03T13:19:14Z</time>
      </trkpt>
      <trkpt lat="46.62303" lon="5.61116">
        <ele>445.1</ele>
        <time>2021-04-03T13:19:19Z</time>
      </trkpt>
      <trkpt lat="46.62299" lon="5.61116">
        <ele>444.8</ele>
        <time>2021-04-03T13:19:24Z</time>
      </trkpt>
      <trkpt lat="46.62293" lon="5.61116">
        <ele>444.4</ele>
        <time>2021-04-03T13:19:30Z</time>
      </trkpt>
      <trkpt lat="46.62288" lon="5.61117">
        <ele>444.1</ele>
        <time>2021-04-03T13:19:35Z</time>
      </trkpt>
      <trkpt lat="46.62283" lon="5.61116">
        <ele>443.9</ele>
        <time>2021-04-03T13:19:42Z</time>
      </trkpt>
      <trkpt lat="46.62278" lon="5.61116">
        <ele>443.4</ele>
        <time>2021-04-03T13:19:48Z</time>
      </trkpt>
      <trkpt lat="46.62274" lon="5.61118">
        <ele>441.5</ele>
        <time>2021-04-03T13:19:56Z</time>
      </trkpt>
      <trkpt lat="46.62269" lon="5.6112">
        <ele>440</ele>
        <time>2021-04-03T13:20:03Z</time>
      </trkpt>
      <trkpt lat="46.62264" lon="5.61122">
        <ele>438.9</ele>
        <time>2021-04-03T13:20:09Z</time>
      </trkpt>
      <trkpt lat="46.62258" lon="5.61122">
        <ele>438.3</ele>
        <time>2021-04-03T13:20:14Z</time>
      </trkpt>
      <trkpt lat="46.62252" lon="5.61123">
        <ele>438.5</ele>
        <time>2021-04-03T13:20:18Z</time>
      </trkpt>
      <trkpt lat="46.62248" lon="5.61122">
        <ele>438.8</ele>
        <time>2021-04-03T13:20:22Z</time>
      </trkpt>
      <trkpt lat="46.62243" lon="5.6112">
        <ele>438.8</ele>
        <time>2021-04-03T13:20:27Z</time>
      </trkpt>
      <trkpt lat="46.62237" lon="5.61115">
        <ele>439</ele>
        <time>2021-04-03T13:20:31Z</time>
      </trkpt>
      <trkpt lat="46.6223" lon="5.61108">
        <ele>439.5</ele>
        <time>2021-04-03T13:20:35Z</time>
      </trkpt>
      <trkpt lat="46.62225" lon="5.61102">
        <ele>439.9</ele>
        <time>2021-04-03T13:20:39Z</time>
      </trkpt>
      <trkpt lat="46.62221" lon="5.61097">
        <ele>440.4</ele>
        <time>2021-04-03T13:20:43Z</time>
      </trkpt>
      <trkpt lat="46.62216" lon="5.61094">
        <ele>441.1</ele>
        <time>2021-04-03T13:20:47Z</time>
      </trkpt>
      <trkpt lat="46.62212" lon="5.61091">
        <ele>441.4</ele>
        <time>2021-04-03T13:20:53Z</time>
      </trkpt>
      <trkpt lat="46.62207" lon="5.61087">
        <ele>441.5</ele>
        <time>2021-04-03T13:20:58Z</time>
      </trkpt>
      <trkpt lat="46.62203" lon="5.61085">
        <ele>441.8</ele>
        <time>2021-04-03T13:21:03Z</time>
      </trkpt>
      <trkpt lat="46.62198" lon="5.61083">
        <ele>442.5</ele>
        <time>2021-04-03T13:21:08Z</time>
      </trkpt>
      <trkpt lat="46.62193" lon="5.61081">
        <ele>443.4</ele>
        <time>2021-04-03T13:21:12Z</time>
      </trkpt>
      <trkpt lat="46.62188" lon="5.61079">
        <ele>445.2</ele>
        <time>2021-04-03T13:21:18Z</time>
      </trkpt>
      <trkpt lat="46.62182" lon="5.61076">
        <ele>448.2</ele>
        <time>2021-04-03T13:21:23Z</time>
      </trkpt>
      <trkpt lat="46.62173" lon="5.61073">
        <ele>454.6</ele>
        <time>2021-04-03T13:21:27Z</time>
      </trkpt>
      <trkpt lat="46.62167" lon="5.6107">
        <ele>459.7</ele>
        <time>2021-04-03T13:21:31Z</time>
      </trkpt>
      <trkpt lat="46.62162" lon="5.6107">
        <ele>465.7</ele>
        <time>2021-04-03T13:21:39Z</time>
      </trkpt>
      <trkpt lat="46.62157" lon="5.6107">
        <ele>467.5</ele>
        <time>2021-04-03T13:21:47Z</time>
      </trkpt>
      <trkpt lat="46.62153" lon="5.6107">
        <ele>467.5</ele>
        <time>2021-04-03T13:21:51Z</time>
      </trkpt>
      <trkpt lat="46.62148" lon="5.61069">
        <ele>467.5</ele>
        <time>2021-04-03T13:21:56Z</time>
      </trkpt>
      <trkpt lat="46.62143" lon="5.61069">
        <ele>467.1</ele>
        <time>2021-04-03T13:22:00Z</time>
      </trkpt>
      <trkpt lat="46.62138" lon="5.61067">
        <ele>466.8</ele>
        <time>2021-04-03T13:22:04Z</time>
      </trkpt>
      <trkpt lat="46.62132" lon="5.61067">
        <ele>466.6</ele>
        <time>2021-04-03T13:22:08Z</time>
      </trkpt>
      <trkpt lat="46.62127" lon="5.61066">
        <ele>467.1</ele>
        <time>2021-04-03T13:22:12Z</time>
      </trkpt>
      <trkpt lat="46.62124" lon="5.61062">
        <ele>468.3</ele>
        <time>2021-04-03T13:22:18Z</time>
      </trkpt>
      <trkpt lat="46.62119" lon="5.61061">
        <ele>470</ele>
        <time>2021-04-03T13:22:26Z</time>
      </trkpt>
      <trkpt lat="46.62114" lon="5.61062">
        <ele>471.4</ele>
        <time>2021-04-03T13:22:32Z</time>
      </trkpt>
      <trkpt lat="46.62109" lon="5.61063">
        <ele>471.9</ele>
        <time>2021-04-03T13:22:36Z</time>
      </trkpt>
      <trkpt lat="46.62104" lon="5.61063">
        <ele>471.9</ele>
        <time>2021-04-03T13:22:41Z</time>
      </trkpt>
      <trkpt lat="46.62099" lon="5.61065">
        <ele>471.2</ele>
        <time>2021-04-03T13:22:47Z</time>
      </trkpt>
      <trkpt lat="46.62094" lon="5.61066">
        <ele>470.3</ele>
        <time>2021-04-03T13:22:52Z</time>
      </trkpt>
      <trkpt lat="46.62089" lon="5.61066">
        <ele>469.7</ele>
        <time>2021-04-03T13:22:56Z</time>
      </trkpt>
      <trkpt lat="46.62084" lon="5.61066">
        <ele>469.4</ele>
        <time>2021-04-03T13:23:01Z</time>
      </trkpt>
      <trkpt lat="46.62079" lon="5.61066">
        <ele>469.1</ele>
        <time>2021-04-03T13:23:06Z</time>
      </trkpt>
      <trkpt lat="46.62074" lon="5.61065">
        <ele>468.9</ele>
        <time>2021-04-03T13:23:10Z</time>
      </trkpt>
      <trkpt lat="46.6207" lon="5.61063">
        <ele>468.4</ele>
        <time>2021-04-03T13:23:15Z</time>
      </trkpt>
      <trkpt lat="46.62064" lon="5.61059">
        <ele>470.1</ele>
        <time>2021-04-03T13:23:19Z</time>
      </trkpt>
      <trkpt lat="46.62059" lon="5.61057">
        <ele>471.8</ele>
        <time>2021-04-03T13:23:24Z</time>
      </trkpt>
      <trkpt lat="46.62054" lon="5.61056">
        <ele>472.9</ele>
        <time>2021-04-03T13:23:29Z</time>
      </trkpt>
      <trkpt lat="46.62049" lon="5.61058">
        <ele>473.7</ele>
        <time>2021-04-03T13:23:34Z</time>
      </trkpt>
      <trkpt lat="46.62044" lon="5.61061">
        <ele>474.3</ele>
        <time>2021-04-03T13:23:39Z</time>
      </trkpt>
      <trkpt lat="46.6204" lon="5.61063">
        <ele>474.5</ele>
        <time>2021-04-03T13:23:44Z</time>
      </trkpt>
      <trkpt lat="46.62035" lon="5.61062">
        <ele>474</ele>
        <time>2021-04-03T13:23:51Z</time>
      </trkpt>
      <trkpt lat="46.6203" lon="5.61061">
        <ele>474</ele>
        <time>2021-04-03T13:23:59Z</time>
      </trkpt>
      <trkpt lat="46.62026" lon="5.61058">
        <ele>475.1</ele>
        <time>2021-04-03T13:24:05Z</time>
      </trkpt>
      <trkpt lat="46.62024" lon="5.6105">
        <ele>476.4</ele>
        <time>2021-04-03T13:24:11Z</time>
      </trkpt>
      <trkpt lat="46.62022" lon="5.61043">
        <ele>477.5</ele>
        <time>2021-04-03T13:24:15Z</time>
      </trkpt>
      <trkpt lat="46.6202" lon="5.61036">
        <ele>479</ele>
        <time>2021-04-03T13:24:20Z</time>
      </trkpt>
      <trkpt lat="46.62018" lon="5.6103">
        <ele>480.9</ele>
        <time>2021-04-03T13:24:25Z</time>
      </trkpt>
      <trkpt lat="46.62016" lon="5.61021">
        <ele>482.7</ele>
        <time>2021-04-03T13:24:29Z</time>
      </trkpt>
      <trkpt lat="46.62014" lon="5.61015">
        <ele>485</ele>
        <time>2021-04-03T13:24:33Z</time>
      </trkpt>
      <trkpt lat="46.62014" lon="5.61008">
        <ele>487.8</ele>
        <time>2021-04-03T13:24:39Z</time>
      </trkpt>
      <trkpt lat="46.62012" lon="5.61001">
        <ele>490.3</ele>
        <time>2021-04-03T13:24:46Z</time>
      </trkpt>
      <trkpt lat="46.62015" lon="5.60996">
        <ele>492.1</ele>
        <time>2021-04-03T13:24:52Z</time>
      </trkpt>
      <trkpt lat="46.6202" lon="5.60987">
        <ele>493.6</ele>
        <time>2021-04-03T13:24:56Z</time>
      </trkpt>
      <trkpt lat="46.62022" lon="5.60982">
        <ele>494.8</ele>
        <time>2021-04-03T13:25:01Z</time>
      </trkpt>
      <trkpt lat="46.62018" lon="5.60984">
        <ele>501.9</ele>
        <time>2021-04-03T13:25:55Z</time>
      </trkpt>
      <trkpt lat="46.62013" lon="5.60985">
        <ele>501.4</ele>
        <time>2021-04-03T13:26:03Z</time>
      </trkpt>
      <trkpt lat="46.62009" lon="5.60989">
        <ele>500.3</ele>
        <time>2021-04-03T13:26:12Z</time>
      </trkpt>
      <trkpt lat="46.62005" lon="5.6099">
        <ele>498.4</ele>
        <time>2021-04-03T13:26:19Z</time>
      </trkpt>
      <trkpt lat="46.62" lon="5.60992">
        <ele>497.5</ele>
        <time>2021-04-03T13:26:35Z</time>
      </trkpt>
      <trkpt lat="46.61995" lon="5.60991">
        <ele>498.1</ele>
        <time>2021-04-03T13:26:44Z</time>
      </trkpt>
      <trkpt lat="46.61992" lon="5.60996">
        <ele>499.2</ele>
        <time>2021-04-03T13:26:53Z</time>
      </trkpt>
      <trkpt lat="46.61987" lon="5.61001">
        <ele>500</ele>
        <time>2021-04-03T13:26:57Z</time>
      </trkpt>
      <trkpt lat="46.61984" lon="5.61007">
        <ele>500.6</ele>
        <time>2021-04-03T13:27:01Z</time>
      </trkpt>
      <trkpt lat="46.61982" lon="5.61013">
        <ele>502.8</ele>
        <time>2021-04-03T13:27:23Z</time>
      </trkpt>
      <trkpt lat="46.61978" lon="5.61017">
        <ele>504.5</ele>
        <time>2021-04-03T13:27:29Z</time>
      </trkpt>
      <trkpt lat="46.61974" lon="5.61021">
        <ele>507.6</ele>
        <time>2021-04-03T13:27:57Z</time>
      </trkpt>
      <trkpt lat="46.61972" lon="5.61027">
        <ele>507.9</ele>
        <time>2021-04-03T13:28:05Z</time>
      </trkpt>
      <trkpt lat="46.61971" lon="5.61035">
        <ele>508.7</ele>
        <time>2021-04-03T13:28:12Z</time>
      </trkpt>
      <trkpt lat="46.6197" lon="5.61042">
        <ele>510.6</ele>
        <time>2021-04-03T13:28:20Z</time>
      </trkpt>
      <trkpt lat="46.61968" lon="5.61048">
        <ele>513.2</ele>
        <time>2021-04-03T13:28:28Z</time>
      </trkpt>
      <trkpt lat="46.61965" lon="5.61054">
        <ele>515.8</ele>
        <time>2021-04-03T13:28:35Z</time>
      </trkpt>
      <trkpt lat="46.61962" lon="5.6106">
        <ele>518.4</ele>
        <time>2021-04-03T13:28:41Z</time>
      </trkpt>
      <trkpt lat="46.61961" lon="5.61068">
        <ele>520.7</ele>
        <time>2021-04-03T13:28:46Z</time>
      </trkpt>
      <trkpt lat="46.61959" lon="5.61074">
        <ele>522.7</ele>
        <time>2021-04-03T13:28:50Z</time>
      </trkpt>
      <trkpt lat="46.61956" lon="5.6108">
        <ele>524.8</ele>
        <time>2021-04-03T13:28:58Z</time>
      </trkpt>
      <trkpt lat="46.61952" lon="5.61083">
        <ele>522.4</ele>
        <time>2021-04-03T13:29:27Z</time>
      </trkpt>
      <trkpt lat="46.61948" lon="5.61087">
        <ele>522.5</ele>
        <time>2021-04-03T13:29:32Z</time>
      </trkpt>
      <trkpt lat="46.61943" lon="5.61088">
        <ele>522.7</ele>
        <time>2021-04-03T13:29:36Z</time>
      </trkpt>
      <trkpt lat="46.61938" lon="5.61089">
        <ele>522.8</ele>
        <time>2021-04-03T13:29:40Z</time>
      </trkpt>
      <trkpt lat="46.61933" lon="5.61089">
        <ele>522.9</ele>
        <time>2021-04-03T13:29:45Z</time>
      </trkpt>
      <trkpt lat="46.61928" lon="5.61091">
        <ele>522.6</ele>
        <time>2021-04-03T13:29:50Z</time>
      </trkpt>
      <trkpt lat="46.61924" lon="5.61095">
        <ele>522.2</ele>
        <time>2021-04-03T13:29:54Z</time>
      </trkpt>
      <trkpt lat="46.61921" lon="5.61101">
        <ele>520.1</ele>
        <time>2021-04-03T13:30:05Z</time>
      </trkpt>
      <trkpt lat="46.61916" lon="5.61104">
        <ele>519.4</ele>
        <time>2021-04-03T13:30:10Z</time>
      </trkpt>
      <trkpt lat="46.61911" lon="5.61106">
        <ele>518.9</ele>
        <time>2021-04-03T13:30:15Z</time>
      </trkpt>
      <trkpt lat="46.61907" lon="5.61108">
        <ele>518.4</ele>
        <time>2021-04-03T13:30:19Z</time>
      </trkpt>
      <trkpt lat="46.61903" lon="5.61112">
        <ele>517.8</ele>
        <time>2021-04-03T13:30:23Z</time>
      </trkpt>
      <trkpt lat="46.61899" lon="5.61116">
        <ele>517.8</ele>
        <time>2021-04-03T13:30:27Z</time>
      </trkpt>
      <trkpt lat="46.61894" lon="5.61119">
        <ele>517.5</ele>
        <time>2021-04-03T13:30:33Z</time>
      </trkpt>
      <trkpt lat="46.6189" lon="5.61122">
        <ele>516.9</ele>
        <time>2021-04-03T13:30:38Z</time>
      </trkpt>
      <trkpt lat="46.61886" lon="5.61125">
        <ele>515.8</ele>
        <time>2021-04-03T13:30:43Z</time>
      </trkpt>
      <trkpt lat="46.61881" lon="5.61127">
        <ele>514.8</ele>
        <time>2021-04-03T13:30:48Z</time>
      </trkpt>
      <trkpt lat="46.61876" lon="5.61127">
        <ele>513.7</ele>
        <time>2021-04-03T13:30:53Z</time>
      </trkpt>
      <trkpt lat="46.61874" lon="5.61122">
        <ele>512.8</ele>
        <time>2021-04-03T13:31:19Z</time>
      </trkpt>
      <trkpt lat="46.61871" lon="5.61116">
        <ele>512.6</ele>
        <time>2021-04-03T13:32:16Z</time>
      </trkpt>
      <trkpt lat="46.61869" lon="5.6111">
        <ele>513.2</ele>
        <time>2021-04-03T13:32:22Z</time>
      </trkpt>
      <trkpt lat="46.61866" lon="5.61104">
        <ele>515.5</ele>
        <time>2021-04-03T13:32:32Z</time>
      </trkpt>
      <trkpt lat="46.61868" lon="5.61097">
        <ele>521.2</ele>
        <time>2021-04-03T13:33:07Z</time>
      </trkpt>
      <trkpt lat="46.61872" lon="5.61096">
        <ele>522.4</ele>
        <time>2021-04-03T13:33:20Z</time>
      </trkpt>
      <trkpt lat="46.61877" lon="5.61091">
        <ele>522.8</ele>
        <time>2021-04-03T13:33:25Z</time>
      </trkpt>
      <trkpt lat="46.6188" lon="5.61086">
        <ele>523.8</ele>
        <time>2021-04-03T13:33:30Z</time>
      </trkpt>
      <trkpt lat="46.61884" lon="5.61083">
        <ele>524.7</ele>
        <time>2021-04-03T13:33:36Z</time>
      </trkpt>
      <trkpt lat="46.61889" lon="5.61083">
        <ele>525.5</ele>
        <time>2021-04-03T13:33:43Z</time>
      </trkpt>
      <trkpt lat="46.61894" lon="5.61081">
        <ele>526.1</ele>
        <time>2021-04-03T13:33:49Z</time>
      </trkpt>
      <trkpt lat="46.61899" lon="5.61079">
        <ele>526.3</ele>
        <time>2021-04-03T13:33:54Z</time>
      </trkpt>
      <trkpt lat="46.61904" lon="5.61078">
        <ele>526.3</ele>
        <time>2021-04-03T13:33:59Z</time>
      </trkpt>
      <trkpt lat="46.61909" lon="5.61074">
        <ele>525.8</ele>
        <time>2021-04-03T13:34:05Z</time>
      </trkpt>
      <trkpt lat="46.61913" lon="5.61069">
        <ele>524.3</ele>
        <time>2021-04-03T13:34:09Z</time>
      </trkpt>
      <trkpt lat="46.61916" lon="5.61064">
        <ele>523.1</ele>
        <time>2021-04-03T13:34:13Z</time>
      </trkpt>
      <trkpt lat="46.61923" lon="5.61059">
        <ele>522.6</ele>
        <time>2021-04-03T13:34:19Z</time>
      </trkpt>
      <trkpt lat="46.61927" lon="5.61057">
        <ele>522.8</ele>
        <time>2021-04-03T13:34:23Z</time>
      </trkpt>
      <trkpt lat="46.6193" lon="5.61051">
        <ele>523.1</ele>
        <time>2021-04-03T13:34:31Z</time>
      </trkpt>
      <trkpt lat="46.61932" lon="5.61045">
        <ele>523.3</ele>
        <time>2021-04-03T13:34:36Z</time>
      </trkpt>
      <trkpt lat="46.61934" lon="5.61039">
        <ele>523.4</ele>
        <time>2021-04-03T13:34:40Z</time>
      </trkpt>
      <trkpt lat="46.61935" lon="5.61031">
        <ele>523.7</ele>
        <time>2021-04-03T13:34:45Z</time>
      </trkpt>
      <trkpt lat="46.61937" lon="5.61024">
        <ele>524.1</ele>
        <time>2021-04-03T13:34:50Z</time>
      </trkpt>
      <trkpt lat="46.61938" lon="5.61017">
        <ele>524.5</ele>
        <time>2021-04-03T13:34:54Z</time>
      </trkpt>
      <trkpt lat="46.6194" lon="5.6101">
        <ele>524.6</ele>
        <time>2021-04-03T13:34:59Z</time>
      </trkpt>
      <trkpt lat="46.61943" lon="5.61003">
        <ele>524.4</ele>
        <time>2021-04-03T13:35:03Z</time>
      </trkpt>
      <trkpt lat="46.61946" lon="5.60998">
        <ele>524</ele>
        <time>2021-04-03T13:35:07Z</time>
      </trkpt>
      <trkpt lat="46.61948" lon="5.60991">
        <ele>523.2</ele>
        <time>2021-04-03T13:35:12Z</time>
      </trkpt>
      <trkpt lat="46.61951" lon="5.60986">
        <ele>522.3</ele>
        <time>2021-04-03T13:35:17Z</time>
      </trkpt>
      <trkpt lat="46.61956" lon="5.60982">
        <ele>521.2</ele>
        <time>2021-04-03T13:35:22Z</time>
      </trkpt>
      <trkpt lat="46.61959" lon="5.60976">
        <ele>519.9</ele>
        <time>2021-04-03T13:35:27Z</time>
      </trkpt>
      <trkpt lat="46.61962" lon="5.60969">
        <ele>518.4</ele>
        <time>2021-04-03T13:35:32Z</time>
      </trkpt>
      <trkpt lat="46.61965" lon="5.60964">
        <ele>517.4</ele>
        <time>2021-04-03T13:35:37Z</time>
      </trkpt>
      <trkpt lat="46.61969" lon="5.60959">
        <ele>516.9</ele>
        <time>2021-04-03T13:35:42Z</time>
      </trkpt>
      <trkpt lat="46.6197" lon="5.60952">
        <ele>516.7</ele>
        <time>2021-04-03T13:35:46Z</time>
      </trkpt>
      <trkpt lat="46.61973" lon="5.60946">
        <ele>516.6</ele>
        <time>2021-04-03T13:35:50Z</time>
      </trkpt>
      <trkpt lat="46.61977" lon="5.6094">
        <ele>516.3</ele>
        <time>2021-04-03T13:35:55Z</time>
      </trkpt>
      <trkpt lat="46.61981" lon="5.60935">
        <ele>516</ele>
        <time>2021-04-03T13:36:00Z</time>
      </trkpt>
      <trkpt lat="46.61984" lon="5.6093">
        <ele>515.4</ele>
        <time>2021-04-03T13:36:06Z</time>
      </trkpt>
      <trkpt lat="46.61988" lon="5.60926">
        <ele>515</ele>
        <time>2021-04-03T13:36:12Z</time>
      </trkpt>
      <trkpt lat="46.61993" lon="5.60923">
        <ele>514.7</ele>
        <time>2021-04-03T13:36:17Z</time>
      </trkpt>
      <trkpt lat="46.62" lon="5.6092">
        <ele>515.1</ele>
        <time>2021-04-03T13:36:21Z</time>
      </trkpt>
      <trkpt lat="46.62008" lon="5.60909">
        <ele>521.5</ele>
        <time>2021-04-03T13:36:25Z</time>
      </trkpt>
      <trkpt lat="46.62013" lon="5.60904">
        <ele>525.8</ele>
        <time>2021-04-03T13:36:29Z</time>
      </trkpt>
      <trkpt lat="46.62018" lon="5.60903">
        <ele>528.7</ele>
        <time>2021-04-03T13:36:33Z</time>
      </trkpt>
      <trkpt lat="46.62023" lon="5.60901">
        <ele>530.6</ele>
        <time>2021-04-03T13:36:37Z</time>
      </trkpt>
      <trkpt lat="46.62027" lon="5.60899">
        <ele>532.1</ele>
        <time>2021-04-03T13:36:41Z</time>
      </trkpt>
      <trkpt lat="46.62032" lon="5.60898">
        <ele>533.1</ele>
        <time>2021-04-03T13:36:46Z</time>
      </trkpt>
      <trkpt lat="46.62036" lon="5.60896">
        <ele>533.4</ele>
        <time>2021-04-03T13:36:52Z</time>
      </trkpt>
      <trkpt lat="46.62041" lon="5.60895">
        <ele>533.3</ele>
        <time>2021-04-03T13:36:57Z</time>
      </trkpt>
      <trkpt lat="46.62045" lon="5.60892">
        <ele>532.8</ele>
        <time>2021-04-03T13:37:02Z</time>
      </trkpt>
      <trkpt lat="46.62049" lon="5.60888">
        <ele>532</ele>
        <time>2021-04-03T13:37:08Z</time>
      </trkpt>
      <trkpt lat="46.62054" lon="5.60886">
        <ele>530.9</ele>
        <time>2021-04-03T13:37:14Z</time>
      </trkpt>
      <trkpt lat="46.62058" lon="5.60882">
        <ele>529.8</ele>
        <time>2021-04-03T13:37:19Z</time>
      </trkpt>
      <trkpt lat="46.62063" lon="5.60878">
        <ele>529.1</ele>
        <time>2021-04-03T13:37:23Z</time>
      </trkpt>
      <trkpt lat="46.62067" lon="5.60876">
        <ele>528.4</ele>
        <time>2021-04-03T13:37:27Z</time>
      </trkpt>
      <trkpt lat="46.62071" lon="5.60871">
        <ele>527</ele>
        <time>2021-04-03T13:37:33Z</time>
      </trkpt>
      <trkpt lat="46.62081" lon="5.60862">
        <ele>531.7</ele>
        <time>2021-04-03T13:37:37Z</time>
      </trkpt>
      <trkpt lat="46.62085" lon="5.60858">
        <ele>533.5</ele>
        <time>2021-04-03T13:37:42Z</time>
      </trkpt>
      <trkpt lat="46.62089" lon="5.60853">
        <ele>533.9</ele>
        <time>2021-04-03T13:37:47Z</time>
      </trkpt>
      <trkpt lat="46.62093" lon="5.6085">
        <ele>533.8</ele>
        <time>2021-04-03T13:37:51Z</time>
      </trkpt>
      <trkpt lat="46.62098" lon="5.60846">
        <ele>533.5</ele>
        <time>2021-04-03T13:37:55Z</time>
      </trkpt>
      <trkpt lat="46.62102" lon="5.60842">
        <ele>533.1</ele>
        <time>2021-04-03T13:38:00Z</time>
      </trkpt>
      <trkpt lat="46.62106" lon="5.60838">
        <ele>532.8</ele>
        <time>2021-04-03T13:38:04Z</time>
      </trkpt>
      <trkpt lat="46.62109" lon="5.60834">
        <ele>532.4</ele>
        <time>2021-04-03T13:38:08Z</time>
      </trkpt>
      <trkpt lat="46.62112" lon="5.60827">
        <ele>532.7</ele>
        <time>2021-04-03T13:38:13Z</time>
      </trkpt>
      <trkpt lat="46.62115" lon="5.60821">
        <ele>533</ele>
        <time>2021-04-03T13:38:18Z</time>
      </trkpt>
      <trkpt lat="46.62118" lon="5.60817">
        <ele>532.6</ele>
        <time>2021-04-03T13:38:24Z</time>
      </trkpt>
      <trkpt lat="46.62122" lon="5.60812">
        <ele>532</ele>
        <time>2021-04-03T13:38:29Z</time>
      </trkpt>
      <trkpt lat="46.62125" lon="5.60805">
        <ele>531.3</ele>
        <time>2021-04-03T13:38:34Z</time>
      </trkpt>
      <trkpt lat="46.62126" lon="5.60799">
        <ele>530.7</ele>
        <time>2021-04-03T13:38:38Z</time>
      </trkpt>
      <trkpt lat="46.62128" lon="5.60793">
        <ele>530.2</ele>
        <time>2021-04-03T13:38:42Z</time>
      </trkpt>
      <trkpt lat="46.62131" lon="5.60787">
        <ele>529.5</ele>
        <time>2021-04-03T13:38:47Z</time>
      </trkpt>
      <trkpt lat="46.62133" lon="5.60782">
        <ele>528.9</ele>
        <time>2021-04-03T13:38:52Z</time>
      </trkpt>
      <trkpt lat="46.62136" lon="5.60776">
        <ele>528.5</ele>
        <time>2021-04-03T13:38:57Z</time>
      </trkpt>
      <trkpt lat="46.62139" lon="5.60771">
        <ele>528.3</ele>
        <time>2021-04-03T13:39:02Z</time>
      </trkpt>
      <trkpt lat="46.62143" lon="5.60767">
        <ele>528</ele>
        <time>2021-04-03T13:39:07Z</time>
      </trkpt>
      <trkpt lat="46.62148" lon="5.60763">
        <ele>527.5</ele>
        <time>2021-04-03T13:39:12Z</time>
      </trkpt>
      <trkpt lat="46.62151" lon="5.60759">
        <ele>527</ele>
        <time>2021-04-03T13:39:16Z</time>
      </trkpt>
      <trkpt lat="46.62154" lon="5.60754">
        <ele>526.4</ele>
        <time>2021-04-03T13:39:22Z</time>
      </trkpt>
      <trkpt lat="46.62157" lon="5.60747">
        <ele>526</ele>
        <time>2021-04-03T13:39:35Z</time>
      </trkpt>
      <trkpt lat="46.62159" lon="5.6074">
        <ele>525.8</ele>
        <time>2021-04-03T13:39:41Z</time>
      </trkpt>
      <trkpt lat="46.62163" lon="5.60735">
        <ele>525.7</ele>
        <time>2021-04-03T13:39:46Z</time>
      </trkpt>
      <trkpt lat="46.62166" lon="5.60728">
        <ele>525.8</ele>
        <time>2021-04-03T13:39:51Z</time>
      </trkpt>
      <trkpt lat="46.62168" lon="5.60721">
        <ele>526.2</ele>
        <time>2021-04-03T13:39:56Z</time>
      </trkpt>
      <trkpt lat="46.62171" lon="5.60714">
        <ele>527.2</ele>
        <time>2021-04-03T13:40:02Z</time>
      </trkpt>
      <trkpt lat="46.62174" lon="5.60708">
        <ele>527.4</ele>
        <time>2021-04-03T13:40:06Z</time>
      </trkpt>
      <trkpt lat="46.62177" lon="5.60703">
        <ele>528.4</ele>
        <time>2021-04-03T13:40:11Z</time>
      </trkpt>
      <trkpt lat="46.6218" lon="5.60697">
        <ele>530.5</ele>
        <time>2021-04-03T13:40:17Z</time>
      </trkpt>
      <trkpt lat="46.62183" lon="5.60692">
        <ele>530.8</ele>
        <time>2021-04-03T13:40:25Z</time>
      </trkpt>
      <trkpt lat="46.62187" lon="5.60686">
        <ele>529.6</ele>
        <time>2021-04-03T13:40:31Z</time>
      </trkpt>
      <trkpt lat="46.6219" lon="5.6068">
        <ele>529.4</ele>
        <time>2021-04-03T13:40:36Z</time>
      </trkpt>
      <trkpt lat="46.62194" lon="5.60677">
        <ele>529.4</ele>
        <time>2021-04-03T13:40:42Z</time>
      </trkpt>
      <trkpt lat="46.62199" lon="5.60674">
        <ele>529.4</ele>
        <time>2021-04-03T13:40:46Z</time>
      </trkpt>
      <trkpt lat="46.62204" lon="5.60669">
        <ele>529</ele>
        <time>2021-04-03T13:40:50Z</time>
      </trkpt>
      <trkpt lat="46.62209" lon="5.60665">
        <ele>528.5</ele>
        <time>2021-04-03T13:40:54Z</time>
      </trkpt>
      <trkpt lat="46.62215" lon="5.60662">
        <ele>527.8</ele>
        <time>2021-04-03T13:40:59Z</time>
      </trkpt>
      <trkpt lat="46.62219" lon="5.60659">
        <ele>527.3</ele>
        <time>2021-04-03T13:41:04Z</time>
      </trkpt>
      <trkpt lat="46.62222" lon="5.60653">
        <ele>526.9</ele>
        <time>2021-04-03T13:41:10Z</time>
      </trkpt>
      <trkpt lat="46.62225" lon="5.60648">
        <ele>527.6</ele>
        <time>2021-04-03T13:41:14Z</time>
      </trkpt>
      <trkpt lat="46.62229" lon="5.60643">
        <ele>528.9</ele>
        <time>2021-04-03T13:41:22Z</time>
      </trkpt>
      <trkpt lat="46.62235" lon="5.6064">
        <ele>528.9</ele>
        <time>2021-04-03T13:41:29Z</time>
      </trkpt>
      <trkpt lat="46.62243" lon="5.60631">
        <ele>527.9</ele>
        <time>2021-04-03T13:41:33Z</time>
      </trkpt>
      <trkpt lat="46.62246" lon="5.60626">
        <ele>527</ele>
        <time>2021-04-03T13:41:38Z</time>
      </trkpt>
      <trkpt lat="46.6225" lon="5.60622">
        <ele>526.5</ele>
        <time>2021-04-03T13:41:43Z</time>
      </trkpt>
      <trkpt lat="46.62254" lon="5.60618">
        <ele>526.2</ele>
        <time>2021-04-03T13:41:48Z</time>
      </trkpt>
      <trkpt lat="46.62258" lon="5.6061">
        <ele>525.2</ele>
        <time>2021-04-03T13:42:04Z</time>
      </trkpt>
      <trkpt lat="46.62262" lon="5.60606">
        <ele>524.3</ele>
        <time>2021-04-03T13:42:08Z</time>
      </trkpt>
      <trkpt lat="46.62267" lon="5.60604">
        <ele>523.5</ele>
        <time>2021-04-03T13:42:13Z</time>
      </trkpt>
      <trkpt lat="46.62272" lon="5.60602">
        <ele>523.7</ele>
        <time>2021-04-03T13:42:17Z</time>
      </trkpt>
      <trkpt lat="46.62276" lon="5.606">
        <ele>524.4</ele>
        <time>2021-04-03T13:42:22Z</time>
      </trkpt>
      <trkpt lat="46.62284" lon="5.60591">
        <ele>525.1</ele>
        <time>2021-04-03T13:42:26Z</time>
      </trkpt>
      <trkpt lat="46.62288" lon="5.60589">
        <ele>526.1</ele>
        <time>2021-04-03T13:42:32Z</time>
      </trkpt>
      <trkpt lat="46.62292" lon="5.60587">
        <ele>526</ele>
        <time>2021-04-03T13:42:37Z</time>
      </trkpt>
      <trkpt lat="46.62298" lon="5.60581">
        <ele>525.9</ele>
        <time>2021-04-03T13:42:41Z</time>
      </trkpt>
      <trkpt lat="46.62301" lon="5.60574">
        <ele>525.8</ele>
        <time>2021-04-03T13:42:45Z</time>
      </trkpt>
      <trkpt lat="46.62305" lon="5.6057">
        <ele>525.3</ele>
        <time>2021-04-03T13:42:50Z</time>
      </trkpt>
      <trkpt lat="46.6231" lon="5.60567">
        <ele>524.6</ele>
        <time>2021-04-03T13:42:55Z</time>
      </trkpt>
      <trkpt lat="46.62314" lon="5.60563">
        <ele>523.7</ele>
        <time>2021-04-03T13:43:00Z</time>
      </trkpt>
      <trkpt lat="46.62318" lon="5.60555">
        <ele>522.1</ele>
        <time>2021-04-03T13:43:04Z</time>
      </trkpt>
      <trkpt lat="46.62322" lon="5.60555">
        <ele>520.3</ele>
        <time>2021-04-03T13:43:12Z</time>
      </trkpt>
      <trkpt lat="46.62327" lon="5.60553">
        <ele>519.5</ele>
        <time>2021-04-03T13:43:17Z</time>
      </trkpt>
      <trkpt lat="46.62333" lon="5.60555">
        <ele>519.2</ele>
        <time>2021-04-03T13:43:33Z</time>
      </trkpt>
      <trkpt lat="46.62339" lon="5.60558">
        <ele>519.3</ele>
        <time>2021-04-03T13:43:37Z</time>
      </trkpt>
      <trkpt lat="46.62344" lon="5.60558">
        <ele>519.5</ele>
        <time>2021-04-03T13:43:41Z</time>
      </trkpt>
      <trkpt lat="46.6235" lon="5.60556">
        <ele>519.2</ele>
        <time>2021-04-03T13:43:45Z</time>
      </trkpt>
      <trkpt lat="46.62355" lon="5.60553">
        <ele>518.6</ele>
        <time>2021-04-03T13:43:49Z</time>
      </trkpt>
      <trkpt lat="46.6236" lon="5.60552">
        <ele>517.2</ele>
        <time>2021-04-03T13:43:57Z</time>
      </trkpt>
      <trkpt lat="46.62365" lon="5.60552">
        <ele>517.2</ele>
        <time>2021-04-03T13:44:02Z</time>
      </trkpt>
      <trkpt lat="46.62373" lon="5.6055">
        <ele>519</ele>
        <time>2021-04-03T13:44:06Z</time>
      </trkpt>
      <trkpt lat="46.6238" lon="5.60548">
        <ele>520.5</ele>
        <time>2021-04-03T13:44:10Z</time>
      </trkpt>
      <trkpt lat="46.62384" lon="5.60544">
        <ele>521.1</ele>
        <time>2021-04-03T13:44:16Z</time>
      </trkpt>
      <trkpt lat="46.62392" lon="5.60545">
        <ele>521.3</ele>
        <time>2021-04-03T13:44:33Z</time>
      </trkpt>
      <trkpt lat="46.62398" lon="5.60549">
        <ele>519.8</ele>
        <time>2021-04-03T13:44:37Z</time>
      </trkpt>
      <trkpt lat="46.62404" lon="5.60552">
        <ele>519.6</ele>
        <time>2021-04-03T13:46:33Z</time>
      </trkpt>
      <trkpt lat="46.62409" lon="5.60552">
        <ele>520.3</ele>
        <time>2021-04-03T13:46:37Z</time>
      </trkpt>
      <trkpt lat="46.62415" lon="5.60547">
        <ele>520.3</ele>
        <time>2021-04-03T13:46:49Z</time>
      </trkpt>
      <trkpt lat="46.6242" lon="5.60544">
        <ele>520.4</ele>
        <time>2021-04-03T13:46:53Z</time>
      </trkpt>
      <trkpt lat="46.62426" lon="5.60544">
        <ele>520.6</ele>
        <time>2021-04-03T13:46:58Z</time>
      </trkpt>
      <trkpt lat="46.62431" lon="5.60543">
        <ele>520.8</ele>
        <time>2021-04-03T13:47:02Z</time>
      </trkpt>
      <trkpt lat="46.62436" lon="5.60542">
        <ele>520.7</ele>
        <time>2021-04-03T13:47:07Z</time>
      </trkpt>
      <trkpt lat="46.62441" lon="5.60544">
        <ele>521</ele>
        <time>2021-04-03T13:47:14Z</time>
      </trkpt>
      <trkpt lat="46.62446" lon="5.60545">
        <ele>521.1</ele>
        <time>2021-04-03T13:47:21Z</time>
      </trkpt>
      <trkpt lat="46.62451" lon="5.60546">
        <ele>521.3</ele>
        <time>2021-04-03T13:47:26Z</time>
      </trkpt>
      <trkpt lat="46.62456" lon="5.60546">
        <ele>521.3</ele>
        <time>2021-04-03T13:47:30Z</time>
      </trkpt>
      <trkpt lat="46.6246" lon="5.60547">
        <ele>521.1</ele>
        <time>2021-04-03T13:47:34Z</time>
      </trkpt>
      <trkpt lat="46.62465" lon="5.60546">
        <ele>520.9</ele>
        <time>2021-04-03T13:47:38Z</time>
      </trkpt>
      <trkpt lat="46.6247" lon="5.60545">
        <ele>520.7</ele>
        <time>2021-04-03T13:47:43Z</time>
      </trkpt>
      <trkpt lat="46.62475" lon="5.60545">
        <ele>520.4</ele>
        <time>2021-04-03T13:47:48Z</time>
      </trkpt>
      <trkpt lat="46.6248" lon="5.60542">
        <ele>519.8</ele>
        <time>2021-04-03T13:47:53Z</time>
      </trkpt>
      <trkpt lat="46.62484" lon="5.60541">
        <ele>519.2</ele>
        <time>2021-04-03T13:47:57Z</time>
      </trkpt>
      <trkpt lat="46.62489" lon="5.60541">
        <ele>518.3</ele>
        <time>2021-04-03T13:48:02Z</time>
      </trkpt>
      <trkpt lat="46.62494" lon="5.60543">
        <ele>517.3</ele>
        <time>2021-04-03T13:48:07Z</time>
      </trkpt>
      <trkpt lat="46.62499" lon="5.60545">
        <ele>516.3</ele>
        <time>2021-04-03T13:48:12Z</time>
      </trkpt>
      <trkpt lat="46.62504" lon="5.60547">
        <ele>515.8</ele>
        <time>2021-04-03T13:48:17Z</time>
      </trkpt>
      <trkpt lat="46.62509" lon="5.60549">
        <ele>515.7</ele>
        <time>2021-04-03T13:48:22Z</time>
      </trkpt>
      <trkpt lat="46.62513" lon="5.60553">
        <ele>515.9</ele>
        <time>2021-04-03T13:48:27Z</time>
      </trkpt>
      <trkpt lat="46.62516" lon="5.60557">
        <ele>516</ele>
        <time>2021-04-03T13:48:34Z</time>
      </trkpt>
      <trkpt lat="46.6252" lon="5.60562">
        <ele>515.8</ele>
        <time>2021-04-03T13:48:41Z</time>
      </trkpt>
      <trkpt lat="46.62525" lon="5.60563">
        <ele>515.8</ele>
        <time>2021-04-03T13:48:48Z</time>
      </trkpt>
      <trkpt lat="46.6253" lon="5.60567">
        <ele>516.2</ele>
        <time>2021-04-03T13:49:01Z</time>
      </trkpt>
      <trkpt lat="46.62535" lon="5.60571">
        <ele>516.8</ele>
        <time>2021-04-03T13:49:05Z</time>
      </trkpt>
      <trkpt lat="46.62541" lon="5.6057">
        <ele>517.9</ele>
        <time>2021-04-03T13:49:09Z</time>
      </trkpt>
      <trkpt lat="46.62545" lon="5.60567">
        <ele>519.2</ele>
        <time>2021-04-03T13:49:15Z</time>
      </trkpt>
      <trkpt lat="46.62549" lon="5.60563">
        <ele>520.6</ele>
        <time>2021-04-03T13:49:26Z</time>
      </trkpt>
      <trkpt lat="46.62553" lon="5.60561">
        <ele>521.2</ele>
        <time>2021-04-03T13:49:31Z</time>
      </trkpt>
      <trkpt lat="46.62556" lon="5.60555">
        <ele>522</ele>
        <time>2021-04-03T13:49:49Z</time>
      </trkpt>
      <trkpt lat="46.6256" lon="5.60546">
        <ele>522.6</ele>
        <time>2021-04-03T13:49:53Z</time>
      </trkpt>
      <trkpt lat="46.62563" lon="5.60537">
        <ele>523</ele>
        <time>2021-04-03T13:49:57Z</time>
      </trkpt>
      <trkpt lat="46.62564" lon="5.60531">
        <ele>523.3</ele>
        <time>2021-04-03T13:50:02Z</time>
      </trkpt>
      <trkpt lat="46.62566" lon="5.60525">
        <ele>523.5</ele>
        <time>2021-04-03T13:50:08Z</time>
      </trkpt>
      <trkpt lat="46.62569" lon="5.60518">
        <ele>523.5</ele>
        <time>2021-04-03T13:50:13Z</time>
      </trkpt>
      <trkpt lat="46.62571" lon="5.60512">
        <ele>523.5</ele>
        <time>2021-04-03T13:50:19Z</time>
      </trkpt>
      <trkpt lat="46.62573" lon="5.60505">
        <ele>523.3</ele>
        <time>2021-04-03T13:50:24Z</time>
      </trkpt>
      <trkpt lat="46.62574" lon="5.60498">
        <ele>523.2</ele>
        <time>2021-04-03T13:50:28Z</time>
      </trkpt>
      <trkpt lat="46.62577" lon="5.60492">
        <ele>522.8</ele>
        <time>2021-04-03T13:50:33Z</time>
      </trkpt>
      <trkpt lat="46.62581" lon="5.60488">
        <ele>522.2</ele>
        <time>2021-04-03T13:50:38Z</time>
      </trkpt>
      <trkpt lat="46.62584" lon="5.60482">
        <ele>521.4</ele>
        <time>2021-04-03T13:50:43Z</time>
      </trkpt>
      <trkpt lat="46.62587" lon="5.60476">
        <ele>520.5</ele>
        <time>2021-04-03T13:50:47Z</time>
      </trkpt>
      <trkpt lat="46.6259" lon="5.6047">
        <ele>519.5</ele>
        <time>2021-04-03T13:50:51Z</time>
      </trkpt>
      <trkpt lat="46.62593" lon="5.60464">
        <ele>518.4</ele>
        <time>2021-04-03T13:50:56Z</time>
      </trkpt>
      <trkpt lat="46.62596" lon="5.60459">
        <ele>517.2</ele>
        <time>2021-04-03T13:51:02Z</time>
      </trkpt>
      <trkpt lat="46.62599" lon="5.60453">
        <ele>516.3</ele>
        <time>2021-04-03T13:51:07Z</time>
      </trkpt>
      <trkpt lat="46.62603" lon="5.60447">
        <ele>515.1</ele>
        <time>2021-04-03T13:51:13Z</time>
      </trkpt>
      <trkpt lat="46.62605" lon="5.60441">
        <ele>514.1</ele>
        <time>2021-04-03T13:51:19Z</time>
      </trkpt>
      <trkpt lat="46.62606" lon="5.60434">
        <ele>513.6</ele>
        <time>2021-04-03T13:51:26Z</time>
      </trkpt>
      <trkpt lat="46.62607" lon="5.60428">
        <ele>513.7</ele>
        <time>2021-04-03T13:51:32Z</time>
      </trkpt>
      <trkpt lat="46.62616" lon="5.60417">
        <ele>520.4</ele>
        <time>2021-04-03T13:51:36Z</time>
      </trkpt>
      <trkpt lat="46.62618" lon="5.60411">
        <ele>523.7</ele>
        <time>2021-04-03T13:51:40Z</time>
      </trkpt>
      <trkpt lat="46.62619" lon="5.60404">
        <ele>525.7</ele>
        <time>2021-04-03T13:51:44Z</time>
      </trkpt>
      <trkpt lat="46.62619" lon="5.60396">
        <ele>527.3</ele>
        <time>2021-04-03T13:51:49Z</time>
      </trkpt>
      <trkpt lat="46.62623" lon="5.6039">
        <ele>528.2</ele>
        <time>2021-04-03T13:51:54Z</time>
      </trkpt>
      <trkpt lat="46.62625" lon="5.60384">
        <ele>528.6</ele>
        <time>2021-04-03T13:51:58Z</time>
      </trkpt>
      <trkpt lat="46.62626" lon="5.60377">
        <ele>529</ele>
        <time>2021-04-03T13:52:03Z</time>
      </trkpt>
      <trkpt lat="46.62629" lon="5.60371">
        <ele>529.6</ele>
        <time>2021-04-03T13:52:09Z</time>
      </trkpt>
      <trkpt lat="46.62632" lon="5.60365">
        <ele>529.8</ele>
        <time>2021-04-03T13:52:14Z</time>
      </trkpt>
      <trkpt lat="46.62635" lon="5.60359">
        <ele>529.9</ele>
        <time>2021-04-03T13:52:19Z</time>
      </trkpt>
      <trkpt lat="46.62639" lon="5.60355">
        <ele>530</ele>
        <time>2021-04-03T13:52:24Z</time>
      </trkpt>
      <trkpt lat="46.62644" lon="5.60351">
        <ele>529.9</ele>
        <time>2021-04-03T13:52:29Z</time>
      </trkpt>
      <trkpt lat="46.62648" lon="5.60347">
        <ele>529.7</ele>
        <time>2021-04-03T13:52:33Z</time>
      </trkpt>
      <trkpt lat="46.62651" lon="5.60343">
        <ele>529.6</ele>
        <time>2021-04-03T13:52:38Z</time>
      </trkpt>
      <trkpt lat="46.62656" lon="5.6034">
        <ele>529.6</ele>
        <time>2021-04-03T13:52:44Z</time>
      </trkpt>
      <trkpt lat="46.62659" lon="5.60335">
        <ele>530.1</ele>
        <time>2021-04-03T13:52:54Z</time>
      </trkpt>
      <trkpt lat="46.62662" lon="5.6033">
        <ele>531.5</ele>
        <time>2021-04-03T13:53:01Z</time>
      </trkpt>
      <trkpt lat="46.62666" lon="5.60324">
        <ele>532.9</ele>
        <time>2021-04-03T13:53:06Z</time>
      </trkpt>
      <trkpt lat="46.62669" lon="5.60319">
        <ele>534.8</ele>
        <time>2021-04-03T13:53:10Z</time>
      </trkpt>
      <trkpt lat="46.62674" lon="5.60316">
        <ele>537.5</ele>
        <time>2021-04-03T13:53:15Z</time>
      </trkpt>
      <trkpt lat="46.62679" lon="5.60314">
        <ele>539.8</ele>
        <time>2021-04-03T13:53:20Z</time>
      </trkpt>
      <trkpt lat="46.62683" lon="5.60311">
        <ele>540.7</ele>
        <time>2021-04-03T13:53:24Z</time>
      </trkpt>
      <trkpt lat="46.62688" lon="5.60306">
        <ele>541.3</ele>
        <time>2021-04-03T13:53:29Z</time>
      </trkpt>
      <trkpt lat="46.62691" lon="5.60302">
        <ele>541.8</ele>
        <time>2021-04-03T13:53:36Z</time>
      </trkpt>
      <trkpt lat="46.62695" lon="5.60297">
        <ele>541.6</ele>
        <time>2021-04-03T13:53:41Z</time>
      </trkpt>
      <trkpt lat="46.62696" lon="5.60291">
        <ele>540.8</ele>
        <time>2021-04-03T13:53:45Z</time>
      </trkpt>
      <trkpt lat="46.62698" lon="5.60284">
        <ele>539.4</ele>
        <time>2021-04-03T13:53:49Z</time>
      </trkpt>
      <trkpt lat="46.627" lon="5.60278">
        <ele>537.4</ele>
        <time>2021-04-03T13:53:53Z</time>
      </trkpt>
      <trkpt lat="46.62702" lon="5.60272">
        <ele>535.2</ele>
        <time>2021-04-03T13:53:57Z</time>
      </trkpt>
      <trkpt lat="46.62705" lon="5.60267">
        <ele>532.7</ele>
        <time>2021-04-03T13:54:02Z</time>
      </trkpt>
      <trkpt lat="46.62708" lon="5.60261">
        <ele>530.3</ele>
        <time>2021-04-03T13:54:07Z</time>
      </trkpt>
      <trkpt lat="46.62709" lon="5.60254">
        <ele>528.9</ele>
        <time>2021-04-03T13:54:11Z</time>
      </trkpt>
      <trkpt lat="46.62711" lon="5.60248">
        <ele>527.3</ele>
        <time>2021-04-03T13:54:16Z</time>
      </trkpt>
      <trkpt lat="46.62713" lon="5.60241">
        <ele>525.9</ele>
        <time>2021-04-03T13:54:21Z</time>
      </trkpt>
      <trkpt lat="46.62715" lon="5.60234">
        <ele>524.8</ele>
        <time>2021-04-03T13:54:26Z</time>
      </trkpt>
      <trkpt lat="46.62717" lon="5.60227">
        <ele>524</ele>
        <time>2021-04-03T13:54:32Z</time>
      </trkpt>
      <trkpt lat="46.62717" lon="5.6022">
        <ele>523.7</ele>
        <time>2021-04-03T13:54:38Z</time>
      </trkpt>
      <trkpt lat="46.62718" lon="5.60213">
        <ele>523.5</ele>
        <time>2021-04-03T13:54:44Z</time>
      </trkpt>
      <trkpt lat="46.6272" lon="5.60206">
        <ele>523.1</ele>
        <time>2021-04-03T13:54:51Z</time>
      </trkpt>
      <trkpt lat="46.62722" lon="5.60198">
        <ele>523.1</ele>
        <time>2021-04-03T13:54:57Z</time>
      </trkpt>
      <trkpt lat="46.62726" lon="5.60193">
        <ele>523.1</ele>
        <time>2021-04-03T13:55:03Z</time>
      </trkpt>
      <trkpt lat="46.6273" lon="5.60189">
        <ele>523.7</ele>
        <time>2021-04-03T13:55:08Z</time>
      </trkpt>
      <trkpt lat="46.62732" lon="5.60182">
        <ele>524.1</ele>
        <time>2021-04-03T13:55:13Z</time>
      </trkpt>
      <trkpt lat="46.62733" lon="5.60175">
        <ele>524.2</ele>
        <time>2021-04-03T13:55:18Z</time>
      </trkpt>
      <trkpt lat="46.62736" lon="5.6017">
        <ele>524.2</ele>
        <time>2021-04-03T13:55:24Z</time>
      </trkpt>
      <trkpt lat="46.62737" lon="5.60163">
        <ele>524</ele>
        <time>2021-04-03T13:55:32Z</time>
      </trkpt>
      <trkpt lat="46.62741" lon="5.60158">
        <ele>523.9</ele>
        <time>2021-04-03T13:55:37Z</time>
      </trkpt>
      <trkpt lat="46.62744" lon="5.60153">
        <ele>523.8</ele>
        <time>2021-04-03T13:55:44Z</time>
      </trkpt>
      <trkpt lat="46.62747" lon="5.60147">
        <ele>523.8</ele>
        <time>2021-04-03T13:55:50Z</time>
      </trkpt>
      <trkpt lat="46.62752" lon="5.60144">
        <ele>524</ele>
        <time>2021-04-03T13:55:56Z</time>
      </trkpt>
      <trkpt lat="46.62756" lon="5.60139">
        <ele>524.3</ele>
        <time>2021-04-03T13:56:00Z</time>
      </trkpt>
      <trkpt lat="46.62761" lon="5.60135">
        <ele>524.8</ele>
        <time>2021-04-03T13:56:04Z</time>
      </trkpt>
      <trkpt lat="46.62765" lon="5.60131">
        <ele>525.4</ele>
        <time>2021-04-03T13:56:08Z</time>
      </trkpt>
      <trkpt lat="46.62769" lon="5.60128">
        <ele>526.5</ele>
        <time>2021-04-03T13:56:13Z</time>
      </trkpt>
      <trkpt lat="46.62774" lon="5.60124">
        <ele>527.5</ele>
        <time>2021-04-03T13:56:17Z</time>
      </trkpt>
      <trkpt lat="46.62777" lon="5.60121">
        <ele>528.2</ele>
        <time>2021-04-03T13:56:21Z</time>
      </trkpt>
      <trkpt lat="46.62781" lon="5.60117">
        <ele>529</ele>
        <time>2021-04-03T13:56:25Z</time>
      </trkpt>
      <trkpt lat="46.62785" lon="5.60113">
        <ele>529.3</ele>
        <time>2021-04-03T13:56:30Z</time>
      </trkpt>
      <trkpt lat="46.6279" lon="5.60111">
        <ele>529.3</ele>
        <time>2021-04-03T13:56:34Z</time>
      </trkpt>
      <trkpt lat="46.62794" lon="5.60108">
        <ele>529.2</ele>
        <time>2021-04-03T13:56:38Z</time>
      </trkpt>
      <trkpt lat="46.62798" lon="5.60104">
        <ele>529.1</ele>
        <time>2021-04-03T13:56:43Z</time>
      </trkpt>
      <trkpt lat="46.62802" lon="5.601">
        <ele>529.4</ele>
        <time>2021-04-03T13:56:49Z</time>
      </trkpt>
      <trkpt lat="46.62805" lon="5.60095">
        <ele>530.2</ele>
        <time>2021-04-03T13:56:54Z</time>
      </trkpt>
      <trkpt lat="46.6281" lon="5.60092">
        <ele>530.6</ele>
        <time>2021-04-03T13:56:58Z</time>
      </trkpt>
      <trkpt lat="46.62813" lon="5.60087">
        <ele>531.9</ele>
        <time>2021-04-03T13:57:05Z</time>
      </trkpt>
      <trkpt lat="46.62815" lon="5.6008">
        <ele>532.9</ele>
        <time>2021-04-03T13:57:10Z</time>
      </trkpt>
      <trkpt lat="46.62819" lon="5.60074">
        <ele>533.6</ele>
        <time>2021-04-03T13:57:14Z</time>
      </trkpt>
      <trkpt lat="46.62822" lon="5.60069">
        <ele>534.3</ele>
        <time>2021-04-03T13:57:19Z</time>
      </trkpt>
      <trkpt lat="46.62825" lon="5.60064">
        <ele>534.5</ele>
        <time>2021-04-03T13:57:24Z</time>
      </trkpt>
      <trkpt lat="46.62828" lon="5.60057">
        <ele>535</ele>
        <time>2021-04-03T13:57:29Z</time>
      </trkpt>
      <trkpt lat="46.62831" lon="5.60051">
        <ele>535.9</ele>
        <time>2021-04-03T13:57:35Z</time>
      </trkpt>
      <trkpt lat="46.62836" lon="5.60045">
        <ele>536.8</ele>
        <time>2021-04-03T13:57:40Z</time>
      </trkpt>
      <trkpt lat="46.62841" lon="5.60039">
        <ele>536.2</ele>
        <time>2021-04-03T13:57:44Z</time>
      </trkpt>
      <trkpt lat="46.62846" lon="5.60034">
        <ele>535.4</ele>
        <time>2021-04-03T13:57:48Z</time>
      </trkpt>
      <trkpt lat="46.62851" lon="5.6003">
        <ele>534.4</ele>
        <time>2021-04-03T13:57:52Z</time>
      </trkpt>
      <trkpt lat="46.62854" lon="5.60025">
        <ele>533.7</ele>
        <time>2021-04-03T13:57:58Z</time>
      </trkpt>
      <trkpt lat="46.62858" lon="5.6002">
        <ele>533.1</ele>
        <time>2021-04-03T13:58:03Z</time>
      </trkpt>
      <trkpt lat="46.62862" lon="5.60015">
        <ele>532.5</ele>
        <time>2021-04-03T13:58:10Z</time>
      </trkpt>
      <trkpt lat="46.62864" lon="5.60008">
        <ele>532.6</ele>
        <time>2021-04-03T13:58:15Z</time>
      </trkpt>
      <trkpt lat="46.62866" lon="5.60001">
        <ele>533.2</ele>
        <time>2021-04-03T13:58:20Z</time>
      </trkpt>
      <trkpt lat="46.62869" lon="5.59996">
        <ele>534.3</ele>
        <time>2021-04-03T13:58:24Z</time>
      </trkpt>
      <trkpt lat="46.62872" lon="5.5999">
        <ele>536.2</ele>
        <time>2021-04-03T13:58:28Z</time>
      </trkpt>
      <trkpt lat="46.62874" lon="5.59983">
        <ele>538.7</ele>
        <time>2021-04-03T13:58:33Z</time>
      </trkpt>
      <trkpt lat="46.62875" lon="5.59976">
        <ele>540.2</ele>
        <time>2021-04-03T13:58:38Z</time>
      </trkpt>
      <trkpt lat="46.62877" lon="5.59968">
        <ele>541</ele>
        <time>2021-04-03T13:58:43Z</time>
      </trkpt>
      <trkpt lat="46.62877" lon="5.59962">
        <ele>541.8</ele>
        <time>2021-04-03T13:58:48Z</time>
      </trkpt>
      <trkpt lat="46.62877" lon="5.59955">
        <ele>542.7</ele>
        <time>2021-04-03T13:58:55Z</time>
      </trkpt>
      <trkpt lat="46.62878" lon="5.59946">
        <ele>543.4</ele>
        <time>2021-04-03T13:59:13Z</time>
      </trkpt>
      <trkpt lat="46.62882" lon="5.59939">
        <ele>543.5</ele>
        <time>2021-04-03T13:59:17Z</time>
      </trkpt>
      <trkpt lat="46.62882" lon="5.59931">
        <ele>544</ele>
        <time>2021-04-03T13:59:21Z</time>
      </trkpt>
      <trkpt lat="46.62883" lon="5.59924">
        <ele>543.4</ele>
        <time>2021-04-03T13:59:27Z</time>
      </trkpt>
      <trkpt lat="46.62883" lon="5.59915">
        <ele>544.5</ele>
        <time>2021-04-03T13:59:31Z</time>
      </trkpt>
      <trkpt lat="46.62884" lon="5.59908">
        <ele>544.2</ele>
        <time>2021-04-03T13:59:35Z</time>
      </trkpt>
      <trkpt lat="46.62886" lon="5.59902">
        <ele>542.5</ele>
        <time>2021-04-03T13:59:39Z</time>
      </trkpt>
      <trkpt lat="46.62886" lon="5.59895">
        <ele>539.7</ele>
        <time>2021-04-03T13:59:44Z</time>
      </trkpt>
      <trkpt lat="46.62886" lon="5.59888">
        <ele>536.7</ele>
        <time>2021-04-03T13:59:49Z</time>
      </trkpt>
      <trkpt lat="46.62888" lon="5.59881">
        <ele>533</ele>
        <time>2021-04-03T13:59:55Z</time>
      </trkpt>
      <trkpt lat="46.6289" lon="5.59873">
        <ele>532.5</ele>
        <time>2021-04-03T13:59:59Z</time>
      </trkpt>
      <trkpt lat="46.62892" lon="5.59867">
        <ele>533.4</ele>
        <time>2021-04-03T14:00:03Z</time>
      </trkpt>
      <trkpt lat="46.62896" lon="5.59862">
        <ele>535.9</ele>
        <time>2021-04-03T14:00:07Z</time>
      </trkpt>
      <trkpt lat="46.629" lon="5.59857">
        <ele>537.6</ele>
        <time>2021-04-03T14:00:12Z</time>
      </trkpt>
      <trkpt lat="46.62904" lon="5.59852">
        <ele>539.5</ele>
        <time>2021-04-03T14:00:18Z</time>
      </trkpt>
      <trkpt lat="46.62906" lon="5.59846">
        <ele>542</ele>
        <time>2021-04-03T14:00:24Z</time>
      </trkpt>
      <trkpt lat="46.62908" lon="5.59839">
        <ele>543.7</ele>
        <time>2021-04-03T14:00:29Z</time>
      </trkpt>
      <trkpt lat="46.62912" lon="5.59835">
        <ele>547.6</ele>
        <time>2021-04-03T14:00:38Z</time>
      </trkpt>
      <trkpt lat="46.62917" lon="5.59833">
        <ele>551.7</ele>
        <time>2021-04-03T14:00:53Z</time>
      </trkpt>
      <trkpt lat="46.6292" lon="5.59828">
        <ele>553.4</ele>
        <time>2021-04-03T14:01:00Z</time>
      </trkpt>
      <trkpt lat="46.62925" lon="5.59825">
        <ele>554.3</ele>
        <time>2021-04-03T14:01:04Z</time>
      </trkpt>
      <trkpt lat="46.62926" lon="5.59818">
        <ele>552.9</ele>
        <time>2021-04-03T14:01:09Z</time>
      </trkpt>
      <trkpt lat="46.62923" lon="5.59811">
        <ele>548.9</ele>
        <time>2021-04-03T14:01:13Z</time>
      </trkpt>
      <trkpt lat="46.62923" lon="5.59804">
        <ele>544.9</ele>
        <time>2021-04-03T14:01:17Z</time>
      </trkpt>
      <trkpt lat="46.62927" lon="5.598">
        <ele>541.3</ele>
        <time>2021-04-03T14:01:23Z</time>
      </trkpt>
      <trkpt lat="46.62931" lon="5.59795">
        <ele>539.7</ele>
        <time>2021-04-03T14:01:27Z</time>
      </trkpt>
      <trkpt lat="46.62935" lon="5.59797">
        <ele>534.6</ele>
        <time>2021-04-03T14:01:41Z</time>
      </trkpt>
      <trkpt lat="46.6294" lon="5.59804">
        <ele>533.5</ele>
        <time>2021-04-03T14:01:45Z</time>
      </trkpt>
      <trkpt lat="46.62943" lon="5.59808">
        <ele>532.4</ele>
        <time>2021-04-03T14:01:51Z</time>
      </trkpt>
      <trkpt lat="46.62947" lon="5.59813">
        <ele>532</ele>
        <time>2021-04-03T14:01:58Z</time>
      </trkpt>
      <trkpt lat="46.6295" lon="5.59819">
        <ele>532.5</ele>
        <time>2021-04-03T14:02:02Z</time>
      </trkpt>
      <trkpt lat="46.62954" lon="5.59823">
        <ele>533.7</ele>
        <time>2021-04-03T14:02:06Z</time>
      </trkpt>
      <trkpt lat="46.62959" lon="5.59828">
        <ele>535.8</ele>
        <time>2021-04-03T14:02:12Z</time>
      </trkpt>
      <trkpt lat="46.62963" lon="5.59832">
        <ele>537.3</ele>
        <time>2021-04-03T14:02:16Z</time>
      </trkpt>
      <trkpt lat="46.62967" lon="5.59836">
        <ele>538.5</ele>
        <time>2021-04-03T14:02:20Z</time>
      </trkpt>
      <trkpt lat="46.6297" lon="5.59841">
        <ele>541.7</ele>
        <time>2021-04-03T14:02:28Z</time>
      </trkpt>
      <trkpt lat="46.62974" lon="5.59845">
        <ele>543.5</ele>
        <time>2021-04-03T14:02:33Z</time>
      </trkpt>
      <trkpt lat="46.62979" lon="5.5985">
        <ele>544.2</ele>
        <time>2021-04-03T14:02:37Z</time>
      </trkpt>
      <trkpt lat="46.62983" lon="5.59856">
        <ele>543.6</ele>
        <time>2021-04-03T14:02:41Z</time>
      </trkpt>
      <trkpt lat="46.62986" lon="5.59861">
        <ele>542.1</ele>
        <time>2021-04-03T14:02:45Z</time>
      </trkpt>
      <trkpt lat="46.62991" lon="5.5986">
        <ele>540.4</ele>
        <time>2021-04-03T14:02:56Z</time>
      </trkpt>
      <trkpt lat="46.62996" lon="5.59857">
        <ele>542</ele>
        <time>2021-04-03T14:03:03Z</time>
      </trkpt>
      <trkpt lat="46.63" lon="5.59854">
        <ele>543.7</ele>
        <time>2021-04-03T14:03:10Z</time>
      </trkpt>
      <trkpt lat="46.63005" lon="5.59851">
        <ele>545.5</ele>
        <time>2021-04-03T14:03:18Z</time>
      </trkpt>
      <trkpt lat="46.63009" lon="5.59847">
        <ele>546.2</ele>
        <time>2021-04-03T14:03:23Z</time>
      </trkpt>
      <trkpt lat="46.63014" lon="5.59844">
        <ele>547.1</ele>
        <time>2021-04-03T14:03:28Z</time>
      </trkpt>
      <trkpt lat="46.6302" lon="5.59846">
        <ele>548</ele>
        <time>2021-04-03T14:03:33Z</time>
      </trkpt>
      <trkpt lat="46.63024" lon="5.59849">
        <ele>548.3</ele>
        <time>2021-04-03T14:03:37Z</time>
      </trkpt>
      <trkpt lat="46.63029" lon="5.5985">
        <ele>548.3</ele>
        <time>2021-04-03T14:03:42Z</time>
      </trkpt>
      <trkpt lat="46.63034" lon="5.59852">
        <ele>547.3</ele>
        <time>2021-04-03T14:03:48Z</time>
      </trkpt>
      <trkpt lat="46.63038" lon="5.59849">
        <ele>545.7</ele>
        <time>2021-04-03T14:03:55Z</time>
      </trkpt>
      <trkpt lat="46.63044" lon="5.5985">
        <ele>545.7</ele>
        <time>2021-04-03T14:04:03Z</time>
      </trkpt>
      <trkpt lat="46.63049" lon="5.59852">
        <ele>546.4</ele>
        <time>2021-04-03T14:04:07Z</time>
      </trkpt>
      <trkpt lat="46.63055" lon="5.59853">
        <ele>547.3</ele>
        <time>2021-04-03T14:04:11Z</time>
      </trkpt>
      <trkpt lat="46.6306" lon="5.59854">
        <ele>548.5</ele>
        <time>2021-04-03T14:04:16Z</time>
      </trkpt>
      <trkpt lat="46.63065" lon="5.59855">
        <ele>549.8</ele>
        <time>2021-04-03T14:04:22Z</time>
      </trkpt>
      <trkpt lat="46.63069" lon="5.59852">
        <ele>550.7</ele>
        <time>2021-04-03T14:04:28Z</time>
      </trkpt>
      <trkpt lat="46.63074" lon="5.59853">
        <ele>550.6</ele>
        <time>2021-04-03T14:04:35Z</time>
      </trkpt>
      <trkpt lat="46.63079" lon="5.59853">
        <ele>551.4</ele>
        <time>2021-04-03T14:04:42Z</time>
      </trkpt>
      <trkpt lat="46.63085" lon="5.59854">
        <ele>552.1</ele>
        <time>2021-04-03T14:04:47Z</time>
      </trkpt>
      <trkpt lat="46.63089" lon="5.5985">
        <ele>552.8</ele>
        <time>2021-04-03T14:04:52Z</time>
      </trkpt>
      <trkpt lat="46.63093" lon="5.59848">
        <ele>553.3</ele>
        <time>2021-04-03T14:04:56Z</time>
      </trkpt>
      <trkpt lat="46.63099" lon="5.59846">
        <ele>553.6</ele>
        <time>2021-04-03T14:05:00Z</time>
      </trkpt>
      <trkpt lat="46.63104" lon="5.59843">
        <ele>553.9</ele>
        <time>2021-04-03T14:05:05Z</time>
      </trkpt>
      <trkpt lat="46.63109" lon="5.59844">
        <ele>554.5</ele>
        <time>2021-04-03T14:05:11Z</time>
      </trkpt>
      <trkpt lat="46.63114" lon="5.59844">
        <ele>555.6</ele>
        <time>2021-04-03T14:05:17Z</time>
      </trkpt>
      <trkpt lat="46.63119" lon="5.59846">
        <ele>556.8</ele>
        <time>2021-04-03T14:05:24Z</time>
      </trkpt>
      <trkpt lat="46.63123" lon="5.5985">
        <ele>557.5</ele>
        <time>2021-04-03T14:05:30Z</time>
      </trkpt>
      <trkpt lat="46.63127" lon="5.59856">
        <ele>558.1</ele>
        <time>2021-04-03T14:05:35Z</time>
      </trkpt>
      <trkpt lat="46.6313" lon="5.5986">
        <ele>558.5</ele>
        <time>2021-04-03T14:05:39Z</time>
      </trkpt>
      <trkpt lat="46.63134" lon="5.59866">
        <ele>558.7</ele>
        <time>2021-04-03T14:05:44Z</time>
      </trkpt>
      <trkpt lat="46.63138" lon="5.59872">
        <ele>558.5</ele>
        <time>2021-04-03T14:05:48Z</time>
      </trkpt>
      <trkpt lat="46.63142" lon="5.59879">
        <ele>557.9</ele>
        <time>2021-04-03T14:05:52Z</time>
      </trkpt>
      <trkpt lat="46.63145" lon="5.59885">
        <ele>557.6</ele>
        <time>2021-04-03T14:05:56Z</time>
      </trkpt>
      <trkpt lat="46.63148" lon="5.59891">
        <ele>557.5</ele>
        <time>2021-04-03T14:06:01Z</time>
      </trkpt>
      <trkpt lat="46.63151" lon="5.59897">
        <ele>557.6</ele>
        <time>2021-04-03T14:06:06Z</time>
      </trkpt>
      <trkpt lat="46.63156" lon="5.59905">
        <ele>552.5</ele>
        <time>2021-04-03T14:06:10Z</time>
      </trkpt>
      <trkpt lat="46.6316" lon="5.59909">
        <ele>550.2</ele>
        <time>2021-04-03T14:06:14Z</time>
      </trkpt>
      <trkpt lat="46.63163" lon="5.59914">
        <ele>548.5</ele>
        <time>2021-04-03T14:06:19Z</time>
      </trkpt>
      <trkpt lat="46.63167" lon="5.5992">
        <ele>546.9</ele>
        <time>2021-04-03T14:06:25Z</time>
      </trkpt>
      <trkpt lat="46.6317" lon="5.59926">
        <ele>544.7</ele>
        <time>2021-04-03T14:06:34Z</time>
      </trkpt>
      <trkpt lat="46.63172" lon="5.59931">
        <ele>539.4</ele>
        <time>2021-04-03T14:07:33Z</time>
      </trkpt>
      <trkpt lat="46.63177" lon="5.59935">
        <ele>538.1</ele>
        <time>2021-04-03T14:07:49Z</time>
      </trkpt>
      <trkpt lat="46.63176" lon="5.59928">
        <ele>538.8</ele>
        <time>2021-04-03T14:07:59Z</time>
      </trkpt>
      <trkpt lat="46.63172" lon="5.59923">
        <ele>539</ele>
        <time>2021-04-03T14:08:03Z</time>
      </trkpt>
      <trkpt lat="46.63167" lon="5.59926">
        <ele>538.6</ele>
        <time>2021-04-03T14:08:23Z</time>
      </trkpt>
      <trkpt lat="46.63163" lon="5.59922">
        <ele>538.2</ele>
        <time>2021-04-03T14:08:55Z</time>
      </trkpt>
      <trkpt lat="46.63159" lon="5.5992">
        <ele>538.5</ele>
        <time>2021-04-03T14:09:05Z</time>
      </trkpt>
      <trkpt lat="46.63155" lon="5.59915">
        <ele>538.2</ele>
        <time>2021-04-03T14:10:54Z</time>
      </trkpt>
      <trkpt lat="46.63159" lon="5.59912">
        <ele>542.9</ele>
        <time>2021-04-03T14:13:13Z</time>
      </trkpt>
      <trkpt lat="46.63158" lon="5.5992">
        <ele>545.7</ele>
        <time>2021-04-03T14:13:42Z</time>
      </trkpt>
      <trkpt lat="46.63154" lon="5.59915">
        <ele>545.3</ele>
        <time>2021-04-03T14:13:48Z</time>
      </trkpt>
      <trkpt lat="46.63153" lon="5.59907">
        <ele>544.9</ele>
        <time>2021-04-03T14:13:52Z</time>
      </trkpt>
      <trkpt lat="46.63152" lon="5.599">
        <ele>543.7</ele>
        <time>2021-04-03T14:13:56Z</time>
      </trkpt>
      <trkpt lat="46.63151" lon="5.59892">
        <ele>541.9</ele>
        <time>2021-04-03T14:14:02Z</time>
      </trkpt>
      <trkpt lat="46.63151" lon="5.59885">
        <ele>539.4</ele>
        <time>2021-04-03T14:14:10Z</time>
      </trkpt>
      <trkpt lat="46.6315" lon="5.59878">
        <ele>536.8</ele>
        <time>2021-04-03T14:14:24Z</time>
      </trkpt>
      <trkpt lat="46.63148" lon="5.59872">
        <ele>536</ele>
        <time>2021-04-03T14:14:30Z</time>
      </trkpt>
      <trkpt lat="46.63146" lon="5.59865">
        <ele>535.4</ele>
        <time>2021-04-03T14:14:36Z</time>
      </trkpt>
      <trkpt lat="46.63143" lon="5.59861">
        <ele>535.2</ele>
        <time>2021-04-03T14:14:45Z</time>
      </trkpt>
      <trkpt lat="46.63146" lon="5.59867">
        <ele>535.3</ele>
        <time>2021-04-03T14:14:59Z</time>
      </trkpt>
      <trkpt lat="46.63145" lon="5.59859">
        <ele>536.1</ele>
        <time>2021-04-03T14:15:36Z</time>
      </trkpt>
      <trkpt lat="46.63148" lon="5.59853">
        <ele>535.2</ele>
        <time>2021-04-03T14:15:41Z</time>
      </trkpt>
      <trkpt lat="46.6315" lon="5.59847">
        <ele>534.7</ele>
        <time>2021-04-03T14:15:48Z</time>
      </trkpt>
      <trkpt lat="46.63147" lon="5.59842">
        <ele>534.7</ele>
        <time>2021-04-03T14:15:56Z</time>
      </trkpt>
      <trkpt lat="46.63144" lon="5.59836">
        <ele>534.4</ele>
        <time>2021-04-03T14:16:02Z</time>
      </trkpt>
      <trkpt lat="46.63142" lon="5.59829">
        <ele>534.5</ele>
        <time>2021-04-03T14:16:08Z</time>
      </trkpt>
      <trkpt lat="46.63141" lon="5.59823">
        <ele>534.9</ele>
        <time>2021-04-03T14:16:13Z</time>
      </trkpt>
      <trkpt lat="46.6314" lon="5.59816">
        <ele>535.8</ele>
        <time>2021-04-03T14:16:20Z</time>
      </trkpt>
      <trkpt lat="46.63138" lon="5.59808">
        <ele>536.2</ele>
        <time>2021-04-03T14:16:25Z</time>
      </trkpt>
      <trkpt lat="46.63136" lon="5.59802">
        <ele>536.5</ele>
        <time>2021-04-03T14:16:30Z</time>
      </trkpt>
      <trkpt lat="46.63133" lon="5.59797">
        <ele>536.9</ele>
        <time>2021-04-03T14:16:35Z</time>
      </trkpt>
      <trkpt lat="46.6313" lon="5.59792">
        <ele>537.2</ele>
        <time>2021-04-03T14:16:40Z</time>
      </trkpt>
      <trkpt lat="46.63128" lon="5.59786">
        <ele>537.4</ele>
        <time>2021-04-03T14:16:45Z</time>
      </trkpt>
      <trkpt lat="46.63125" lon="5.5978">
        <ele>537.6</ele>
        <time>2021-04-03T14:16:49Z</time>
      </trkpt>
      <trkpt lat="46.63121" lon="5.59774">
        <ele>537.7</ele>
        <time>2021-04-03T14:16:54Z</time>
      </trkpt>
      <trkpt lat="46.63118" lon="5.59768">
        <ele>537.9</ele>
        <time>2021-04-03T14:16:59Z</time>
      </trkpt>
      <trkpt lat="46.63115" lon="5.59762">
        <ele>538</ele>
        <time>2021-04-03T14:17:04Z</time>
      </trkpt>
      <trkpt lat="46.63112" lon="5.59756">
        <ele>537.4</ele>
        <time>2021-04-03T14:17:10Z</time>
      </trkpt>
      <trkpt lat="46.6311" lon="5.5975">
        <ele>536.2</ele>
        <time>2021-04-03T14:17:15Z</time>
      </trkpt>
      <trkpt lat="46.63107" lon="5.59744">
        <ele>535.4</ele>
        <time>2021-04-03T14:17:21Z</time>
      </trkpt>
      <trkpt lat="46.63104" lon="5.59738">
        <ele>534.6</ele>
        <time>2021-04-03T14:18:51Z</time>
      </trkpt>
      <trkpt lat="46.63101" lon="5.59732">
        <ele>534.3</ele>
        <time>2021-04-03T14:18:56Z</time>
      </trkpt>
      <trkpt lat="46.63099" lon="5.59726">
        <ele>534.1</ele>
        <time>2021-04-03T14:19:06Z</time>
      </trkpt>
      <trkpt lat="46.631" lon="5.59718">
        <ele>535.2</ele>
        <time>2021-04-03T14:19:33Z</time>
      </trkpt>
      <trkpt lat="46.63098" lon="5.59711">
        <ele>535.4</ele>
        <time>2021-04-03T14:19:38Z</time>
      </trkpt>
      <trkpt lat="46.631" lon="5.59705">
        <ele>535.2</ele>
        <time>2021-04-03T14:19:43Z</time>
      </trkpt>
      <trkpt lat="46.63103" lon="5.59699">
        <ele>534.6</ele>
        <time>2021-04-03T14:19:47Z</time>
      </trkpt>
      <trkpt lat="46.63104" lon="5.59692">
        <ele>533.9</ele>
        <time>2021-04-03T14:19:51Z</time>
      </trkpt>
      <trkpt lat="46.63104" lon="5.59685">
        <ele>533</ele>
        <time>2021-04-03T14:19:55Z</time>
      </trkpt>
      <trkpt lat="46.63104" lon="5.59678">
        <ele>532</ele>
        <time>2021-04-03T14:19:59Z</time>
      </trkpt>
      <trkpt lat="46.63106" lon="5.59671">
        <ele>530.6</ele>
        <time>2021-04-03T14:20:03Z</time>
      </trkpt>
      <trkpt lat="46.63106" lon="5.59663">
        <ele>529.4</ele>
        <time>2021-04-03T14:20:07Z</time>
      </trkpt>
      <trkpt lat="46.63107" lon="5.59657">
        <ele>528.3</ele>
        <time>2021-04-03T14:20:12Z</time>
      </trkpt>
      <trkpt lat="46.63109" lon="5.59651">
        <ele>527.9</ele>
        <time>2021-04-03T14:20:18Z</time>
      </trkpt>
      <trkpt lat="46.63111" lon="5.59643">
        <ele>528.2</ele>
        <time>2021-04-03T14:20:23Z</time>
      </trkpt>
      <trkpt lat="46.63113" lon="5.59637">
        <ele>528.1</ele>
        <time>2021-04-03T14:20:27Z</time>
      </trkpt>
      <trkpt lat="46.63114" lon="5.5963">
        <ele>527.5</ele>
        <time>2021-04-03T14:20:31Z</time>
      </trkpt>
      <trkpt lat="46.63115" lon="5.59623">
        <ele>526.7</ele>
        <time>2021-04-03T14:20:35Z</time>
      </trkpt>
      <trkpt lat="46.63117" lon="5.59617">
        <ele>525.5</ele>
        <time>2021-04-03T14:20:40Z</time>
      </trkpt>
      <trkpt lat="46.63119" lon="5.5961">
        <ele>524.5</ele>
        <time>2021-04-03T14:20:45Z</time>
      </trkpt>
      <trkpt lat="46.6312" lon="5.59603">
        <ele>523.8</ele>
        <time>2021-04-03T14:20:49Z</time>
      </trkpt>
      <trkpt lat="46.63121" lon="5.59596">
        <ele>522.7</ele>
        <time>2021-04-03T14:20:54Z</time>
      </trkpt>
      <trkpt lat="46.63121" lon="5.59589">
        <ele>521.4</ele>
        <time>2021-04-03T14:21:30Z</time>
      </trkpt>
      <trkpt lat="46.63119" lon="5.59582">
        <ele>521.2</ele>
        <time>2021-04-03T14:21:37Z</time>
      </trkpt>
      <trkpt lat="46.63123" lon="5.59577">
        <ele>520.6</ele>
        <time>2021-04-03T14:21:48Z</time>
      </trkpt>
      <trkpt lat="46.63124" lon="5.5957">
        <ele>520.2</ele>
        <time>2021-04-03T14:21:55Z</time>
      </trkpt>
      <trkpt lat="46.63125" lon="5.59563">
        <ele>519.6</ele>
        <time>2021-04-03T14:22:02Z</time>
      </trkpt>
      <trkpt lat="46.63127" lon="5.59557">
        <ele>518.7</ele>
        <time>2021-04-03T14:22:10Z</time>
      </trkpt>
      <trkpt lat="46.6313" lon="5.59552">
        <ele>517.7</ele>
        <time>2021-04-03T14:22:18Z</time>
      </trkpt>
      <trkpt lat="46.63127" lon="5.59546">
        <ele>517.2</ele>
        <time>2021-04-03T14:22:23Z</time>
      </trkpt>
      <trkpt lat="46.63123" lon="5.5954">
        <ele>517.1</ele>
        <time>2021-04-03T14:22:27Z</time>
      </trkpt>
      <trkpt lat="46.63119" lon="5.59536">
        <ele>517</ele>
        <time>2021-04-03T14:22:32Z</time>
      </trkpt>
      <trkpt lat="46.63117" lon="5.59529">
        <ele>516.8</ele>
        <time>2021-04-03T14:22:39Z</time>
      </trkpt>
      <trkpt lat="46.63116" lon="5.59523">
        <ele>516.9</ele>
        <time>2021-04-03T14:22:47Z</time>
      </trkpt>
      <trkpt lat="46.63115" lon="5.59515">
        <ele>516.9</ele>
        <time>2021-04-03T14:22:52Z</time>
      </trkpt>
      <trkpt lat="46.63117" lon="5.59508">
        <ele>516.6</ele>
        <time>2021-04-03T14:22:57Z</time>
      </trkpt>
      <trkpt lat="46.63118" lon="5.59501">
        <ele>516.2</ele>
        <time>2021-04-03T14:23:02Z</time>
      </trkpt>
      <trkpt lat="46.63119" lon="5.59493">
        <ele>515.8</ele>
        <time>2021-04-03T14:23:07Z</time>
      </trkpt>
      <trkpt lat="46.6312" lon="5.59486">
        <ele>515.1</ele>
        <time>2021-04-03T14:23:13Z</time>
      </trkpt>
      <trkpt lat="46.6312" lon="5.59479">
        <ele>514.4</ele>
        <time>2021-04-03T14:23:20Z</time>
      </trkpt>
      <trkpt lat="46.63116" lon="5.59475">
        <ele>513.8</ele>
        <time>2021-04-03T14:23:26Z</time>
      </trkpt>
      <trkpt lat="46.63113" lon="5.59469">
        <ele>513.2</ele>
        <time>2021-04-03T14:23:32Z</time>
      </trkpt>
      <trkpt lat="46.63109" lon="5.59464">
        <ele>512.3</ele>
        <time>2021-04-03T14:23:40Z</time>
      </trkpt>
      <trkpt lat="46.63105" lon="5.5946">
        <ele>512.1</ele>
        <time>2021-04-03T14:23:47Z</time>
      </trkpt>
      <trkpt lat="46.631" lon="5.59458">
        <ele>511.5</ele>
        <time>2021-04-03T14:23:53Z</time>
      </trkpt>
      <trkpt lat="46.63096" lon="5.59453">
        <ele>511.3</ele>
        <time>2021-04-03T14:23:58Z</time>
      </trkpt>
      <trkpt lat="46.63092" lon="5.59447">
        <ele>511.2</ele>
        <time>2021-04-03T14:24:03Z</time>
      </trkpt>
      <trkpt lat="46.63089" lon="5.59442">
        <ele>511</ele>
        <time>2021-04-03T14:24:08Z</time>
      </trkpt>
      <trkpt lat="46.63085" lon="5.59437">
        <ele>511.1</ele>
        <time>2021-04-03T14:24:15Z</time>
      </trkpt>
      <trkpt lat="46.63091" lon="5.59439">
        <ele>512.7</ele>
        <time>2021-04-03T14:24:53Z</time>
      </trkpt>
      <trkpt lat="46.63095" lon="5.59435">
        <ele>512.5</ele>
        <time>2021-04-03T14:25:00Z</time>
      </trkpt>
      <trkpt lat="46.6309" lon="5.59432">
        <ele>517.5</ele>
        <time>2021-04-03T14:25:06Z</time>
      </trkpt>
      <trkpt lat="46.63089" lon="5.59426">
        <ele>523.4</ele>
        <time>2021-04-03T14:25:39Z</time>
      </trkpt>
      <trkpt lat="46.63089" lon="5.59419">
        <ele>523.1</ele>
        <time>2021-04-03T14:25:48Z</time>
      </trkpt>
      <trkpt lat="46.63095" lon="5.59417">
        <ele>522.4</ele>
        <time>2021-04-03T14:26:01Z</time>
      </trkpt>
      <trkpt lat="46.631" lon="5.5942">
        <ele>522.3</ele>
        <time>2021-04-03T14:26:05Z</time>
      </trkpt>
      <trkpt lat="46.63104" lon="5.59424">
        <ele>522.2</ele>
        <time>2021-04-03T14:26:09Z</time>
      </trkpt>
      <trkpt lat="46.63108" lon="5.59428">
        <ele>522.5</ele>
        <time>2021-04-03T14:26:13Z</time>
      </trkpt>
      <trkpt lat="46.63111" lon="5.59432">
        <ele>523</ele>
        <time>2021-04-03T14:26:17Z</time>
      </trkpt>
      <trkpt lat="46.63114" lon="5.59438">
        <ele>523</ele>
        <time>2021-04-03T14:26:21Z</time>
      </trkpt>
      <trkpt lat="46.63117" lon="5.59444">
        <ele>523.2</ele>
        <time>2021-04-03T14:26:25Z</time>
      </trkpt>
      <trkpt lat="46.63121" lon="5.59448">
        <ele>523.2</ele>
        <time>2021-04-03T14:26:30Z</time>
      </trkpt>
      <trkpt lat="46.63123" lon="5.59454">
        <ele>523.3</ele>
        <time>2021-04-03T14:26:35Z</time>
      </trkpt>
      <trkpt lat="46.63127" lon="5.59458">
        <ele>523.8</ele>
        <time>2021-04-03T14:26:41Z</time>
      </trkpt>
      <trkpt lat="46.6313" lon="5.59464">
        <ele>523.7</ele>
        <time>2021-04-03T14:26:48Z</time>
      </trkpt>
      <trkpt lat="46.63135" lon="5.59464">
        <ele>519.5</ele>
        <time>2021-04-03T14:27:06Z</time>
      </trkpt>
      <trkpt lat="46.63139" lon="5.59467">
        <ele>518.6</ele>
        <time>2021-04-03T14:27:12Z</time>
      </trkpt>
      <trkpt lat="46.63143" lon="5.59471">
        <ele>518.3</ele>
        <time>2021-04-03T14:27:20Z</time>
      </trkpt>
      <trkpt lat="46.63147" lon="5.59474">
        <ele>518</ele>
        <time>2021-04-03T14:27:25Z</time>
      </trkpt>
      <trkpt lat="46.63148" lon="5.59481">
        <ele>516.7</ele>
        <time>2021-04-03T14:27:32Z</time>
      </trkpt>
      <trkpt lat="46.63151" lon="5.59487">
        <ele>514.7</ele>
        <time>2021-04-03T14:27:39Z</time>
      </trkpt>
      <trkpt lat="46.63153" lon="5.59493">
        <ele>512.3</ele>
        <time>2021-04-03T14:27:47Z</time>
      </trkpt>
      <trkpt lat="46.63157" lon="5.59497">
        <ele>509.6</ele>
        <time>2021-04-03T14:27:55Z</time>
      </trkpt>
      <trkpt lat="46.63161" lon="5.59501">
        <ele>508.4</ele>
        <time>2021-04-03T14:28:06Z</time>
      </trkpt>
      <trkpt lat="46.63165" lon="5.59503">
        <ele>508.4</ele>
        <time>2021-04-03T14:28:13Z</time>
      </trkpt>
      <trkpt lat="46.6317" lon="5.59502">
        <ele>508.5</ele>
        <time>2021-04-03T14:28:19Z</time>
      </trkpt>
      <trkpt lat="46.63175" lon="5.595">
        <ele>508.2</ele>
        <time>2021-04-03T14:28:25Z</time>
      </trkpt>
      <trkpt lat="46.63179" lon="5.59499">
        <ele>507.3</ele>
        <time>2021-04-03T14:28:32Z</time>
      </trkpt>
      <trkpt lat="46.63184" lon="5.59497">
        <ele>505.4</ele>
        <time>2021-04-03T14:28:42Z</time>
      </trkpt>
      <trkpt lat="46.63189" lon="5.59499">
        <ele>504.4</ele>
        <time>2021-04-03T14:28:50Z</time>
      </trkpt>
      <trkpt lat="46.63191" lon="5.59506">
        <ele>503.6</ele>
        <time>2021-04-03T14:28:55Z</time>
      </trkpt>
      <trkpt lat="46.63194" lon="5.59509">
        <ele>501.6</ele>
        <time>2021-04-03T14:29:05Z</time>
      </trkpt>
      <trkpt lat="46.63198" lon="5.59515">
        <ele>499.6</ele>
        <time>2021-04-03T14:29:14Z</time>
      </trkpt>
      <trkpt lat="46.632" lon="5.59522">
        <ele>497.9</ele>
        <time>2021-04-03T14:29:20Z</time>
      </trkpt>
      <trkpt lat="46.63201" lon="5.59528">
        <ele>495.4</ele>
        <time>2021-04-03T14:29:28Z</time>
      </trkpt>
      <trkpt lat="46.63201" lon="5.59535">
        <ele>493</ele>
        <time>2021-04-03T14:29:35Z</time>
      </trkpt>
      <trkpt lat="46.63202" lon="5.59542">
        <ele>491.1</ele>
        <time>2021-04-03T14:29:40Z</time>
      </trkpt>
      <trkpt lat="46.63202" lon="5.59549">
        <ele>489.1</ele>
        <time>2021-04-03T14:29:46Z</time>
      </trkpt>
      <trkpt lat="46.63201" lon="5.59556">
        <ele>487</ele>
        <time>2021-04-03T14:29:53Z</time>
      </trkpt>
      <trkpt lat="46.63199" lon="5.59562">
        <ele>484.1</ele>
        <time>2021-04-03T14:30:01Z</time>
      </trkpt>
      <trkpt lat="46.63197" lon="5.59568">
        <ele>481.1</ele>
        <time>2021-04-03T14:30:10Z</time>
      </trkpt>
      <trkpt lat="46.63197" lon="5.59575">
        <ele>479</ele>
        <time>2021-04-03T14:30:18Z</time>
      </trkpt>
      <trkpt lat="46.63199" lon="5.59581">
        <ele>478.3</ele>
        <time>2021-04-03T14:30:23Z</time>
      </trkpt>
      <trkpt lat="46.63199" lon="5.59587">
        <ele>478</ele>
        <time>2021-04-03T14:30:28Z</time>
      </trkpt>
      <trkpt lat="46.632" lon="5.59594">
        <ele>477.8</ele>
        <time>2021-04-03T14:30:35Z</time>
      </trkpt>
      <trkpt lat="46.63203" lon="5.596">
        <ele>477.6</ele>
        <time>2021-04-03T14:30:45Z</time>
      </trkpt>
      <trkpt lat="46.63205" lon="5.59606">
        <ele>477.9</ele>
        <time>2021-04-03T14:30:53Z</time>
      </trkpt>
      <trkpt lat="46.63207" lon="5.59613">
        <ele>476.2</ele>
        <time>2021-04-03T14:32:35Z</time>
      </trkpt>
      <trkpt lat="46.6321" lon="5.59618">
        <ele>473.3</ele>
        <time>2021-04-03T14:32:42Z</time>
      </trkpt>
      <trkpt lat="46.63213" lon="5.59624">
        <ele>470.9</ele>
        <time>2021-04-03T14:32:53Z</time>
      </trkpt>
      <trkpt lat="46.63217" lon="5.59628">
        <ele>469</ele>
        <time>2021-04-03T14:33:04Z</time>
      </trkpt>
      <trkpt lat="46.63221" lon="5.59631">
        <ele>468.4</ele>
        <time>2021-04-03T14:33:10Z</time>
      </trkpt>
      <trkpt lat="46.63226" lon="5.59635">
        <ele>467.8</ele>
        <time>2021-04-03T14:33:14Z</time>
      </trkpt>
      <trkpt lat="46.6323" lon="5.59637">
        <ele>467.2</ele>
        <time>2021-04-03T14:33:19Z</time>
      </trkpt>
      <trkpt lat="46.63235" lon="5.59636">
        <ele>466.6</ele>
        <time>2021-04-03T14:33:25Z</time>
      </trkpt>
      <trkpt lat="46.63239" lon="5.59633">
        <ele>465.8</ele>
        <time>2021-04-03T14:33:31Z</time>
      </trkpt>
      <trkpt lat="46.63244" lon="5.59628">
        <ele>464.8</ele>
        <time>2021-04-03T14:33:37Z</time>
      </trkpt>
      <trkpt lat="46.63245" lon="5.59622">
        <ele>463.5</ele>
        <time>2021-04-03T14:33:43Z</time>
      </trkpt>
      <trkpt lat="46.6325" lon="5.59618">
        <ele>460.6</ele>
        <time>2021-04-03T14:33:54Z</time>
      </trkpt>
      <trkpt lat="46.63254" lon="5.59613">
        <ele>459.4</ele>
        <time>2021-04-03T14:34:00Z</time>
      </trkpt>
      <trkpt lat="46.63257" lon="5.59608">
        <ele>458.6</ele>
        <time>2021-04-03T14:34:04Z</time>
      </trkpt>
      <trkpt lat="46.63261" lon="5.59603">
        <ele>457.7</ele>
        <time>2021-04-03T14:34:09Z</time>
      </trkpt>
      <trkpt lat="46.63265" lon="5.59599">
        <ele>456.3</ele>
        <time>2021-04-03T14:34:16Z</time>
      </trkpt>
      <trkpt lat="46.6327" lon="5.59597">
        <ele>454.2</ele>
        <time>2021-04-03T14:34:25Z</time>
      </trkpt>
      <trkpt lat="46.63275" lon="5.59597">
        <ele>453</ele>
        <time>2021-04-03T14:34:32Z</time>
      </trkpt>
      <trkpt lat="46.63279" lon="5.59601">
        <ele>452.1</ele>
        <time>2021-04-03T14:34:39Z</time>
      </trkpt>
      <trkpt lat="46.63284" lon="5.59597">
        <ele>451.1</ele>
        <time>2021-04-03T14:34:46Z</time>
      </trkpt>
      <trkpt lat="46.63288" lon="5.59596">
        <ele>449.3</ele>
        <time>2021-04-03T14:34:54Z</time>
      </trkpt>
      <trkpt lat="46.63292" lon="5.59601">
        <ele>447.2</ele>
        <time>2021-04-03T14:35:04Z</time>
      </trkpt>
      <trkpt lat="46.63295" lon="5.59606">
        <ele>446.4</ele>
        <time>2021-04-03T14:35:11Z</time>
      </trkpt>
      <trkpt lat="46.63299" lon="5.5961">
        <ele>445.9</ele>
        <time>2021-04-03T14:35:17Z</time>
      </trkpt>
      <trkpt lat="46.63302" lon="5.59615">
        <ele>445.1</ele>
        <time>2021-04-03T14:35:23Z</time>
      </trkpt>
      <trkpt lat="46.63305" lon="5.5962">
        <ele>444.2</ele>
        <time>2021-04-03T14:35:30Z</time>
      </trkpt>
      <trkpt lat="46.63309" lon="5.59624">
        <ele>443.7</ele>
        <time>2021-04-03T14:35:36Z</time>
      </trkpt>
      <trkpt lat="46.63311" lon="5.59631">
        <ele>443</ele>
        <time>2021-04-03T14:36:27Z</time>
      </trkpt>
      <trkpt lat="46.63313" lon="5.59638">
        <ele>442.8</ele>
        <time>2021-04-03T14:36:36Z</time>
      </trkpt>
      <trkpt lat="46.63317" lon="5.59641">
        <ele>442.2</ele>
        <time>2021-04-03T14:36:44Z</time>
      </trkpt>
      <trkpt lat="46.63319" lon="5.59648">
        <ele>441.4</ele>
        <time>2021-04-03T14:36:51Z</time>
      </trkpt>
      <trkpt lat="46.63321" lon="5.59654">
        <ele>440.6</ele>
        <time>2021-04-03T14:36:57Z</time>
      </trkpt>
      <trkpt lat="46.63324" lon="5.59659">
        <ele>439.4</ele>
        <time>2021-04-03T14:37:03Z</time>
      </trkpt>
      <trkpt lat="46.63327" lon="5.59664">
        <ele>438.4</ele>
        <time>2021-04-03T14:37:08Z</time>
      </trkpt>
      <trkpt lat="46.63331" lon="5.59669">
        <ele>437.3</ele>
        <time>2021-04-03T14:37:13Z</time>
      </trkpt>
      <trkpt lat="46.63335" lon="5.59673">
        <ele>435.9</ele>
        <time>2021-04-03T14:37:19Z</time>
      </trkpt>
      <trkpt lat="46.63338" lon="5.59679">
        <ele>434.4</ele>
        <time>2021-04-03T14:37:26Z</time>
      </trkpt>
      <trkpt lat="46.63342" lon="5.59684">
        <ele>432.4</ele>
        <time>2021-04-03T14:37:33Z</time>
      </trkpt>
      <trkpt lat="46.63345" lon="5.59688">
        <ele>430.1</ele>
        <time>2021-04-03T14:37:39Z</time>
      </trkpt>
      <trkpt lat="46.63349" lon="5.59691">
        <ele>427.7</ele>
        <time>2021-04-03T14:37:45Z</time>
      </trkpt>
      <trkpt lat="46.63354" lon="5.59694">
        <ele>425.9</ele>
        <time>2021-04-03T14:37:51Z</time>
      </trkpt>
      <trkpt lat="46.63359" lon="5.59695">
        <ele>424.4</ele>
        <time>2021-04-03T14:38:00Z</time>
      </trkpt>
      <trkpt lat="46.63364" lon="5.59694">
        <ele>423.1</ele>
        <time>2021-04-03T14:38:20Z</time>
      </trkpt>
      <trkpt lat="46.63369" lon="5.59697">
        <ele>423.1</ele>
        <time>2021-04-03T14:38:25Z</time>
      </trkpt>
      <trkpt lat="46.63374" lon="5.59698">
        <ele>423</ele>
        <time>2021-04-03T14:38:32Z</time>
      </trkpt>
      <trkpt lat="46.63379" lon="5.597">
        <ele>422.7</ele>
        <time>2021-04-03T14:38:39Z</time>
      </trkpt>
      <trkpt lat="46.63383" lon="5.59703">
        <ele>422.2</ele>
        <time>2021-04-03T14:38:45Z</time>
      </trkpt>
      <trkpt lat="46.63388" lon="5.59705">
        <ele>421.1</ele>
        <time>2021-04-03T14:38:51Z</time>
      </trkpt>
      <trkpt lat="46.63393" lon="5.59707">
        <ele>419.6</ele>
        <time>2021-04-03T14:38:58Z</time>
      </trkpt>
      <trkpt lat="46.63398" lon="5.5971">
        <ele>418.2</ele>
        <time>2021-04-03T14:39:03Z</time>
      </trkpt>
      <trkpt lat="46.63402" lon="5.59713">
        <ele>416</ele>
        <time>2021-04-03T14:39:09Z</time>
      </trkpt>
      <trkpt lat="46.63407" lon="5.59715">
        <ele>413.5</ele>
        <time>2021-04-03T14:39:15Z</time>
      </trkpt>
      <trkpt lat="46.63411" lon="5.59717">
        <ele>410.4</ele>
        <time>2021-04-03T14:39:22Z</time>
      </trkpt>
      <trkpt lat="46.63416" lon="5.59718">
        <ele>407.6</ele>
        <time>2021-04-03T14:39:28Z</time>
      </trkpt>
      <trkpt lat="46.6342" lon="5.59721">
        <ele>404.4</ele>
        <time>2021-04-03T14:39:41Z</time>
      </trkpt>
      <trkpt lat="46.63424" lon="5.59725">
        <ele>404.4</ele>
        <time>2021-04-03T14:40:08Z</time>
      </trkpt>
      <trkpt lat="46.63428" lon="5.59728">
        <ele>404.7</ele>
        <time>2021-04-03T14:40:12Z</time>
      </trkpt>
      <trkpt lat="46.63431" lon="5.59734">
        <ele>405.2</ele>
        <time>2021-04-03T14:40:29Z</time>
      </trkpt>
      <trkpt lat="46.63434" lon="5.59739">
        <ele>405.4</ele>
        <time>2021-04-03T14:40:37Z</time>
      </trkpt>
      <trkpt lat="46.63438" lon="5.59742">
        <ele>405.4</ele>
        <time>2021-04-03T14:40:46Z</time>
      </trkpt>
      <trkpt lat="46.63443" lon="5.59745">
        <ele>405.4</ele>
        <time>2021-04-03T14:40:58Z</time>
      </trkpt>
      <trkpt lat="46.63448" lon="5.59747">
        <ele>405.1</ele>
        <time>2021-04-03T14:41:05Z</time>
      </trkpt>
      <trkpt lat="46.63454" lon="5.59747">
        <ele>403.8</ele>
        <time>2021-04-03T14:41:22Z</time>
      </trkpt>
      <trkpt lat="46.63459" lon="5.59747">
        <ele>402.9</ele>
        <time>2021-04-03T14:41:27Z</time>
      </trkpt>
      <trkpt lat="46.63464" lon="5.59746">
        <ele>401.7</ele>
        <time>2021-04-03T14:41:48Z</time>
      </trkpt>
      <trkpt lat="46.63468" lon="5.59746">
        <ele>401.1</ele>
        <time>2021-04-03T14:41:54Z</time>
      </trkpt>
      <trkpt lat="46.63473" lon="5.59745">
        <ele>400.5</ele>
        <time>2021-04-03T14:42:02Z</time>
      </trkpt>
      <trkpt lat="46.63477" lon="5.59743">
        <ele>400</ele>
        <time>2021-04-03T14:42:12Z</time>
      </trkpt>
      <trkpt lat="46.63482" lon="5.59742">
        <ele>399.8</ele>
        <time>2021-04-03T14:42:23Z</time>
      </trkpt>
      <trkpt lat="46.63486" lon="5.59737">
        <ele>399.4</ele>
        <time>2021-04-03T14:42:30Z</time>
      </trkpt>
      <trkpt lat="46.63491" lon="5.5974">
        <ele>399.3</ele>
        <time>2021-04-03T14:42:51Z</time>
      </trkpt>
      <trkpt lat="46.63495" lon="5.59741">
        <ele>399.2</ele>
        <time>2021-04-03T14:42:56Z</time>
      </trkpt>
      <trkpt lat="46.635" lon="5.59745">
        <ele>398.8</ele>
        <time>2021-04-03T14:43:02Z</time>
      </trkpt>
      <trkpt lat="46.63504" lon="5.59748">
        <ele>398</ele>
        <time>2021-04-03T14:43:09Z</time>
      </trkpt>
      <trkpt lat="46.63509" lon="5.59751">
        <ele>396</ele>
        <time>2021-04-03T14:43:19Z</time>
      </trkpt>
      <trkpt lat="46.63513" lon="5.59752">
        <ele>394.3</ele>
        <time>2021-04-03T14:43:26Z</time>
      </trkpt>
      <trkpt lat="46.63518" lon="5.59752">
        <ele>392.2</ele>
        <time>2021-04-03T14:43:37Z</time>
      </trkpt>
      <trkpt lat="46.63521" lon="5.59757">
        <ele>391.1</ele>
        <time>2021-04-03T14:43:44Z</time>
      </trkpt>
      <trkpt lat="46.63526" lon="5.5976">
        <ele>389.7</ele>
        <time>2021-04-03T14:43:52Z</time>
      </trkpt>
      <trkpt lat="46.6353" lon="5.59762">
        <ele>388.5</ele>
        <time>2021-04-03T14:43:58Z</time>
      </trkpt>
      <trkpt lat="46.63534" lon="5.59766">
        <ele>387</ele>
        <time>2021-04-03T14:44:05Z</time>
      </trkpt>
      <trkpt lat="46.63538" lon="5.59769">
        <ele>384.7</ele>
        <time>2021-04-03T14:44:13Z</time>
      </trkpt>
      <trkpt lat="46.63541" lon="5.59773">
        <ele>383</ele>
        <time>2021-04-03T14:44:20Z</time>
      </trkpt>
      <trkpt lat="46.63546" lon="5.59778">
        <ele>382</ele>
        <time>2021-04-03T14:44:37Z</time>
      </trkpt>
      <trkpt lat="46.6355" lon="5.59778">
        <ele>382.3</ele>
        <time>2021-04-03T14:44:46Z</time>
      </trkpt>
      <trkpt lat="46.63555" lon="5.5978">
        <ele>382.3</ele>
        <time>2021-04-03T14:44:54Z</time>
      </trkpt>
      <trkpt lat="46.63559" lon="5.59783">
        <ele>381.8</ele>
        <time>2021-04-03T14:45:01Z</time>
      </trkpt>
      <trkpt lat="46.63563" lon="5.59786">
        <ele>381.1</ele>
        <time>2021-04-03T14:45:08Z</time>
      </trkpt>
      <trkpt lat="46.63566" lon="5.59792">
        <ele>380.2</ele>
        <time>2021-04-03T14:45:15Z</time>
      </trkpt>
      <trkpt lat="46.63569" lon="5.59797">
        <ele>379.6</ele>
        <time>2021-04-03T14:45:23Z</time>
      </trkpt>
      <trkpt lat="46.63571" lon="5.59803">
        <ele>379.3</ele>
        <time>2021-04-03T14:45:30Z</time>
      </trkpt>
      <trkpt lat="46.63573" lon="5.59809">
        <ele>378.7</ele>
        <time>2021-04-03T14:45:38Z</time>
      </trkpt>
      <trkpt lat="46.63574" lon="5.59816">
        <ele>377.2</ele>
        <time>2021-04-03T14:45:52Z</time>
      </trkpt>
      <trkpt lat="46.63576" lon="5.59823">
        <ele>376.5</ele>
        <time>2021-04-03T14:46:05Z</time>
      </trkpt>
      <trkpt lat="46.63578" lon="5.59829">
        <ele>376.5</ele>
        <time>2021-04-03T14:46:09Z</time>
      </trkpt>
      <trkpt lat="46.63582" lon="5.59834">
        <ele>376.5</ele>
        <time>2021-04-03T14:46:17Z</time>
      </trkpt>
      <trkpt lat="46.63584" lon="5.59839">
        <ele>376</ele>
        <time>2021-04-03T14:46:26Z</time>
      </trkpt>
      <trkpt lat="46.63587" lon="5.59845">
        <ele>375.3</ele>
        <time>2021-04-03T14:46:35Z</time>
      </trkpt>
      <trkpt lat="46.63588" lon="5.59851">
        <ele>374.2</ele>
        <time>2021-04-03T14:46:44Z</time>
      </trkpt>
      <trkpt lat="46.63591" lon="5.59857">
        <ele>372.1</ele>
        <time>2021-04-03T14:46:53Z</time>
      </trkpt>
      <trkpt lat="46.63595" lon="5.59859">
        <ele>369.5</ele>
        <time>2021-04-03T14:47:03Z</time>
      </trkpt>
      <trkpt lat="46.636" lon="5.59861">
        <ele>367.4</ele>
        <time>2021-04-03T14:47:31Z</time>
      </trkpt>
      <trkpt lat="46.63604" lon="5.59866">
        <ele>367.4</ele>
        <time>2021-04-03T14:47:35Z</time>
      </trkpt>
      <trkpt lat="46.63608" lon="5.5987">
        <ele>367.4</ele>
        <time>2021-04-03T14:47:40Z</time>
      </trkpt>
      <trkpt lat="46.63611" lon="5.59875">
        <ele>367</ele>
        <time>2021-04-03T14:47:47Z</time>
      </trkpt>
      <trkpt lat="46.63613" lon="5.59881">
        <ele>366.4</ele>
        <time>2021-04-03T14:47:57Z</time>
      </trkpt>
      <trkpt lat="46.63614" lon="5.59888">
        <ele>365.6</ele>
        <time>2021-04-03T14:48:07Z</time>
      </trkpt>
      <trkpt lat="46.63616" lon="5.59895">
        <ele>364.8</ele>
        <time>2021-04-03T14:48:17Z</time>
      </trkpt>
      <trkpt lat="46.63614" lon="5.59901">
        <ele>364</ele>
        <time>2021-04-03T14:48:29Z</time>
      </trkpt>
      <trkpt lat="46.63615" lon="5.59908">
        <ele>363.5</ele>
        <time>2021-04-03T14:48:37Z</time>
      </trkpt>
      <trkpt lat="46.63614" lon="5.59915">
        <ele>363</ele>
        <time>2021-04-03T14:48:43Z</time>
      </trkpt>
      <trkpt lat="46.63612" lon="5.59921">
        <ele>362.3</ele>
        <time>2021-04-03T14:48:51Z</time>
      </trkpt>
      <trkpt lat="46.6361" lon="5.59928">
        <ele>361.5</ele>
        <time>2021-04-03T14:48:58Z</time>
      </trkpt>
      <trkpt lat="46.63611" lon="5.59935">
        <ele>360.5</ele>
        <time>2021-04-03T14:49:04Z</time>
      </trkpt>
      <trkpt lat="46.63614" lon="5.59941">
        <ele>358.7</ele>
        <time>2021-04-03T14:49:15Z</time>
      </trkpt>
      <trkpt lat="46.63616" lon="5.59947">
        <ele>357.7</ele>
        <time>2021-04-03T14:49:23Z</time>
      </trkpt>
      <trkpt lat="46.6362" lon="5.59952">
        <ele>356.8</ele>
        <time>2021-04-03T14:49:30Z</time>
      </trkpt>
      <trkpt lat="46.63623" lon="5.59957">
        <ele>355.5</ele>
        <time>2021-04-03T14:49:38Z</time>
      </trkpt>
      <trkpt lat="46.63624" lon="5.59964">
        <ele>354.3</ele>
        <time>2021-04-03T14:49:47Z</time>
      </trkpt>
      <trkpt lat="46.63627" lon="5.5997">
        <ele>352.9</ele>
        <time>2021-04-03T14:49:54Z</time>
      </trkpt>
      <trkpt lat="46.63631" lon="5.59974">
        <ele>351</ele>
        <time>2021-04-03T14:50:03Z</time>
      </trkpt>
      <trkpt lat="46.63634" lon="5.5998">
        <ele>350.1</ele>
        <time>2021-04-03T14:50:11Z</time>
      </trkpt>
      <trkpt lat="46.63638" lon="5.59983">
        <ele>349.2</ele>
        <time>2021-04-03T14:50:16Z</time>
      </trkpt>
      <trkpt lat="46.63643" lon="5.59987">
        <ele>347.9</ele>
        <time>2021-04-03T14:50:21Z</time>
      </trkpt>
      <trkpt lat="46.63647" lon="5.59991">
        <ele>345.8</ele>
        <time>2021-04-03T14:50:27Z</time>
      </trkpt>
      <trkpt lat="46.63651" lon="5.59994">
        <ele>344.2</ele>
        <time>2021-04-03T14:50:32Z</time>
      </trkpt>
      <trkpt lat="46.63655" lon="5.59997">
        <ele>342.8</ele>
        <time>2021-04-03T14:50:37Z</time>
      </trkpt>
      <trkpt lat="46.63659" lon="5.60002">
        <ele>341</ele>
        <time>2021-04-03T14:50:43Z</time>
      </trkpt>
      <trkpt lat="46.63664" lon="5.60005">
        <ele>339.3</ele>
        <time>2021-04-03T14:50:48Z</time>
      </trkpt>
      <trkpt lat="46.63667" lon="5.60009">
        <ele>337.9</ele>
        <time>2021-04-03T14:50:54Z</time>
      </trkpt>
      <trkpt lat="46.63672" lon="5.60013">
        <ele>336.8</ele>
        <time>2021-04-03T14:51:00Z</time>
      </trkpt>
      <trkpt lat="46.63676" lon="5.60015">
        <ele>336.1</ele>
        <time>2021-04-03T14:51:05Z</time>
      </trkpt>
      <trkpt lat="46.6368" lon="5.60019">
        <ele>335.2</ele>
        <time>2021-04-03T14:51:10Z</time>
      </trkpt>
      <trkpt lat="46.63684" lon="5.60022">
        <ele>334.2</ele>
        <time>2021-04-03T14:51:15Z</time>
      </trkpt>
      <trkpt lat="46.63688" lon="5.60026">
        <ele>333.5</ele>
        <time>2021-04-03T14:51:20Z</time>
      </trkpt>
      <trkpt lat="46.63692" lon="5.60032">
        <ele>333.3</ele>
        <time>2021-04-03T14:51:25Z</time>
      </trkpt>
      <trkpt lat="46.63694" lon="5.60038">
        <ele>333</ele>
        <time>2021-04-03T14:51:30Z</time>
      </trkpt>
      <trkpt lat="46.63698" lon="5.60044">
        <ele>332.9</ele>
        <time>2021-04-03T14:51:35Z</time>
      </trkpt>
      <trkpt lat="46.637" lon="5.6005">
        <ele>332.9</ele>
        <time>2021-04-03T14:51:40Z</time>
      </trkpt>
      <trkpt lat="46.63702" lon="5.60058">
        <ele>333</ele>
        <time>2021-04-03T14:51:45Z</time>
      </trkpt>
      <trkpt lat="46.63705" lon="5.60064">
        <ele>333.1</ele>
        <time>2021-04-03T14:51:51Z</time>
      </trkpt>
      <trkpt lat="46.63707" lon="5.60071">
        <ele>333.4</ele>
        <time>2021-04-03T14:51:56Z</time>
      </trkpt>
      <trkpt lat="46.6371" lon="5.60076">
        <ele>334</ele>
        <time>2021-04-03T14:52:01Z</time>
      </trkpt>
      <trkpt lat="46.63713" lon="5.60081">
        <ele>334.1</ele>
        <time>2021-04-03T14:52:06Z</time>
      </trkpt>
      <trkpt lat="46.63717" lon="5.60084">
        <ele>335.5</ele>
        <time>2021-04-03T14:52:20Z</time>
      </trkpt>
      <trkpt lat="46.63718" lon="5.60091">
        <ele>337.4</ele>
        <time>2021-04-03T14:53:52Z</time>
      </trkpt>
      <trkpt lat="46.63718" lon="5.60098">
        <ele>337.7</ele>
        <time>2021-04-03T14:53:57Z</time>
      </trkpt>
      <trkpt lat="46.6372" lon="5.60106">
        <ele>337.8</ele>
        <time>2021-04-03T14:54:02Z</time>
      </trkpt>
      <trkpt lat="46.6372" lon="5.60113">
        <ele>338.5</ele>
        <time>2021-04-03T14:54:08Z</time>
      </trkpt>
      <trkpt lat="46.63717" lon="5.60118">
        <ele>340.9</ele>
        <time>2021-04-03T14:54:22Z</time>
      </trkpt>
      <trkpt lat="46.63716" lon="5.60126">
        <ele>342.2</ele>
        <time>2021-04-03T14:54:27Z</time>
      </trkpt>
      <trkpt lat="46.63714" lon="5.60132">
        <ele>342.3</ele>
        <time>2021-04-03T14:54:31Z</time>
      </trkpt>
      <trkpt lat="46.63713" lon="5.60139">
        <ele>342</ele>
        <time>2021-04-03T14:54:35Z</time>
      </trkpt>
      <trkpt lat="46.63713" lon="5.60147">
        <ele>341.6</ele>
        <time>2021-04-03T14:54:40Z</time>
      </trkpt>
      <trkpt lat="46.63715" lon="5.60155">
        <ele>343.2</ele>
        <time>2021-04-03T14:54:45Z</time>
      </trkpt>
      <trkpt lat="46.63718" lon="5.60164">
        <ele>346.2</ele>
        <time>2021-04-03T14:54:49Z</time>
      </trkpt>
      <trkpt lat="46.63722" lon="5.6017">
        <ele>349.3</ele>
        <time>2021-04-03T14:54:53Z</time>
      </trkpt>
      <trkpt lat="46.63724" lon="5.60176">
        <ele>352.6</ele>
        <time>2021-04-03T14:54:58Z</time>
      </trkpt>
      <trkpt lat="46.63723" lon="5.60183">
        <ele>355.1</ele>
        <time>2021-04-03T14:55:03Z</time>
      </trkpt>
      <trkpt lat="46.63725" lon="5.6019">
        <ele>356.5</ele>
        <time>2021-04-03T14:55:09Z</time>
      </trkpt>
      <trkpt lat="46.63724" lon="5.60198">
        <ele>358</ele>
        <time>2021-04-03T14:55:15Z</time>
      </trkpt>
      <trkpt lat="46.6372" lon="5.60203">
        <ele>358.5</ele>
        <time>2021-04-03T14:55:20Z</time>
      </trkpt>
      <trkpt lat="46.63713" lon="5.60206">
        <ele>358.2</ele>
        <time>2021-04-03T14:55:24Z</time>
      </trkpt>
      <trkpt lat="46.63707" lon="5.60208">
        <ele>357</ele>
        <time>2021-04-03T14:55:28Z</time>
      </trkpt>
      <trkpt lat="46.63702" lon="5.60209">
        <ele>355.7</ele>
        <time>2021-04-03T14:55:33Z</time>
      </trkpt>
      <trkpt lat="46.63698" lon="5.60211">
        <ele>354</ele>
        <time>2021-04-03T14:55:39Z</time>
      </trkpt>
      <trkpt lat="46.63693" lon="5.60212">
        <ele>351.6</ele>
        <time>2021-04-03T14:55:45Z</time>
      </trkpt>
      <trkpt lat="46.63688" lon="5.60211">
        <ele>348.8</ele>
        <time>2021-04-03T14:55:51Z</time>
      </trkpt>
      <trkpt lat="46.63683" lon="5.6021">
        <ele>346.6</ele>
        <time>2021-04-03T14:55:57Z</time>
      </trkpt>
      <trkpt lat="46.63679" lon="5.6021">
        <ele>344.7</ele>
        <time>2021-04-03T14:56:01Z</time>
      </trkpt>
      <trkpt lat="46.63674" lon="5.60211">
        <ele>343.3</ele>
        <time>2021-04-03T14:56:05Z</time>
      </trkpt>
      <trkpt lat="46.63669" lon="5.60215">
        <ele>341.8</ele>
        <time>2021-04-03T14:56:10Z</time>
      </trkpt>
      <trkpt lat="46.63664" lon="5.60219">
        <ele>341</ele>
        <time>2021-04-03T14:56:15Z</time>
      </trkpt>
      <trkpt lat="46.63661" lon="5.60225">
        <ele>340.4</ele>
        <time>2021-04-03T14:56:19Z</time>
      </trkpt>
      <trkpt lat="46.63657" lon="5.60231">
        <ele>339.8</ele>
        <time>2021-04-03T14:56:24Z</time>
      </trkpt>
      <trkpt lat="46.63653" lon="5.60233">
        <ele>339.4</ele>
        <time>2021-04-03T14:56:29Z</time>
      </trkpt>
      <trkpt lat="46.63648" lon="5.60236">
        <ele>338.9</ele>
        <time>2021-04-03T14:56:33Z</time>
      </trkpt>
      <trkpt lat="46.63644" lon="5.6024">
        <ele>339</ele>
        <time>2021-04-03T14:56:37Z</time>
      </trkpt>
      <trkpt lat="46.63642" lon="5.60245">
        <ele>339.2</ele>
        <time>2021-04-03T14:56:41Z</time>
      </trkpt>
      <trkpt lat="46.6364" lon="5.60254">
        <ele>339.5</ele>
        <time>2021-04-03T14:56:45Z</time>
      </trkpt>
      <trkpt lat="46.63638" lon="5.60261">
        <ele>340.1</ele>
        <time>2021-04-03T14:56:49Z</time>
      </trkpt>
      <trkpt lat="46.63636" lon="5.60268">
        <ele>340.9</ele>
        <time>2021-04-03T14:56:55Z</time>
      </trkpt>
      <trkpt lat="46.63634" lon="5.60274">
        <ele>341.5</ele>
        <time>2021-04-03T14:56:59Z</time>
      </trkpt>
      <trkpt lat="46.6363" lon="5.60282">
        <ele>341.8</ele>
        <time>2021-04-03T14:57:03Z</time>
      </trkpt>
      <trkpt lat="46.63627" lon="5.60287">
        <ele>342</ele>
        <time>2021-04-03T14:57:07Z</time>
      </trkpt>
      <trkpt lat="46.63623" lon="5.60291">
        <ele>342.1</ele>
        <time>2021-04-03T14:57:12Z</time>
      </trkpt>
      <trkpt lat="46.63619" lon="5.60295">
        <ele>343.2</ele>
        <time>2021-04-03T14:57:17Z</time>
      </trkpt>
      <trkpt lat="46.63616" lon="5.60301">
        <ele>344.5</ele>
        <time>2021-04-03T14:57:21Z</time>
      </trkpt>
      <trkpt lat="46.63612" lon="5.60306">
        <ele>346.1</ele>
        <time>2021-04-03T14:57:26Z</time>
      </trkpt>
      <trkpt lat="46.63609" lon="5.60313">
        <ele>347.5</ele>
        <time>2021-04-03T14:57:31Z</time>
      </trkpt>
      <trkpt lat="46.63606" lon="5.60318">
        <ele>348.5</ele>
        <time>2021-04-03T14:57:36Z</time>
      </trkpt>
      <trkpt lat="46.63604" lon="5.60325">
        <ele>349</ele>
        <time>2021-04-03T14:57:41Z</time>
      </trkpt>
      <trkpt lat="46.63602" lon="5.60332">
        <ele>349</ele>
        <time>2021-04-03T14:57:45Z</time>
      </trkpt>
      <trkpt lat="46.63601" lon="5.60338">
        <ele>349.2</ele>
        <time>2021-04-03T14:57:49Z</time>
      </trkpt>
      <trkpt lat="46.63597" lon="5.60343">
        <ele>349.6</ele>
        <time>2021-04-03T14:57:53Z</time>
      </trkpt>
      <trkpt lat="46.63594" lon="5.60348">
        <ele>350.3</ele>
        <time>2021-04-03T14:57:57Z</time>
      </trkpt>
      <trkpt lat="46.63592" lon="5.60353">
        <ele>351</ele>
        <time>2021-04-03T14:58:01Z</time>
      </trkpt>
      <trkpt lat="46.63589" lon="5.6036">
        <ele>350.8</ele>
        <time>2021-04-03T14:58:05Z</time>
      </trkpt>
      <trkpt lat="46.63587" lon="5.60366">
        <ele>347.3</ele>
        <time>2021-04-03T14:58:11Z</time>
      </trkpt>
      <trkpt lat="46.63584" lon="5.60372">
        <ele>345.1</ele>
        <time>2021-04-03T14:58:16Z</time>
      </trkpt>
      <trkpt lat="46.63582" lon="5.60379">
        <ele>344.6</ele>
        <time>2021-04-03T14:58:20Z</time>
      </trkpt>
      <trkpt lat="46.6358" lon="5.60386">
        <ele>344.6</ele>
        <time>2021-04-03T14:58:25Z</time>
      </trkpt>
      <trkpt lat="46.6358" lon="5.60393">
        <ele>344.7</ele>
        <time>2021-04-03T14:58:31Z</time>
      </trkpt>
      <trkpt lat="46.63578" lon="5.60401">
        <ele>345.2</ele>
        <time>2021-04-03T14:58:36Z</time>
      </trkpt>
      <trkpt lat="46.63577" lon="5.60409">
        <ele>345.8</ele>
        <time>2021-04-03T14:58:41Z</time>
      </trkpt>
      <trkpt lat="46.63577" lon="5.60417">
        <ele>346.8</ele>
        <time>2021-04-03T14:58:46Z</time>
      </trkpt>
      <trkpt lat="46.63577" lon="5.60425">
        <ele>347.9</ele>
        <time>2021-04-03T14:58:50Z</time>
      </trkpt>
      <trkpt lat="46.63578" lon="5.60432">
        <ele>349.1</ele>
        <time>2021-04-03T14:58:54Z</time>
      </trkpt>
      <trkpt lat="46.63577" lon="5.60439">
        <ele>350.1</ele>
        <time>2021-04-03T14:58:58Z</time>
      </trkpt>
      <trkpt lat="46.63573" lon="5.60443">
        <ele>350.9</ele>
        <time>2021-04-03T14:59:03Z</time>
      </trkpt>
      <trkpt lat="46.63572" lon="5.6045">
        <ele>352.7</ele>
        <time>2021-04-03T14:59:55Z</time>
      </trkpt>
      <trkpt lat="46.63567" lon="5.60454">
        <ele>353</ele>
        <time>2021-04-03T15:00:00Z</time>
      </trkpt>
      <trkpt lat="46.63563" lon="5.60458">
        <ele>352.9</ele>
        <time>2021-04-03T15:00:04Z</time>
      </trkpt>
      <trkpt lat="46.63559" lon="5.60463">
        <ele>352.6</ele>
        <time>2021-04-03T15:00:09Z</time>
      </trkpt>
      <trkpt lat="46.63555" lon="5.60469">
        <ele>351.8</ele>
        <time>2021-04-03T15:00:14Z</time>
      </trkpt>
      <trkpt lat="46.63551" lon="5.60473">
        <ele>350.7</ele>
        <time>2021-04-03T15:00:19Z</time>
      </trkpt>
      <trkpt lat="46.63547" lon="5.60478">
        <ele>349.8</ele>
        <time>2021-04-03T15:00:24Z</time>
      </trkpt>
      <trkpt lat="46.63544" lon="5.60484">
        <ele>348.9</ele>
        <time>2021-04-03T15:00:29Z</time>
      </trkpt>
      <trkpt lat="46.6354" lon="5.60488">
        <ele>347.9</ele>
        <time>2021-04-03T15:00:35Z</time>
      </trkpt>
      <trkpt lat="46.63538" lon="5.60494">
        <ele>346</ele>
        <time>2021-04-03T15:00:43Z</time>
      </trkpt>
      <trkpt lat="46.63538" lon="5.60502">
        <ele>345.1</ele>
        <time>2021-04-03T15:00:47Z</time>
      </trkpt>
      <trkpt lat="46.63535" lon="5.60508">
        <ele>344.5</ele>
        <time>2021-04-03T15:00:52Z</time>
      </trkpt>
      <trkpt lat="46.63533" lon="5.60515">
        <ele>343.8</ele>
        <time>2021-04-03T15:00:57Z</time>
      </trkpt>
      <trkpt lat="46.6353" lon="5.60519">
        <ele>341.6</ele>
        <time>2021-04-03T15:01:05Z</time>
      </trkpt>
      <trkpt lat="46.63532" lon="5.60527">
        <ele>338.6</ele>
        <time>2021-04-03T15:01:14Z</time>
      </trkpt>
      <trkpt lat="46.63536" lon="5.60529">
        <ele>338.2</ele>
        <time>2021-04-03T15:01:19Z</time>
      </trkpt>
      <trkpt lat="46.63541" lon="5.60532">
        <ele>338.7</ele>
        <time>2021-04-03T15:01:24Z</time>
      </trkpt>
      <trkpt lat="46.63546" lon="5.60533">
        <ele>339.5</ele>
        <time>2021-04-03T15:01:30Z</time>
      </trkpt>
      <trkpt lat="46.6355" lon="5.60535">
        <ele>340.3</ele>
        <time>2021-04-03T15:01:36Z</time>
      </trkpt>
      <trkpt lat="46.63555" lon="5.6053">
        <ele>340.4</ele>
        <time>2021-04-03T15:01:43Z</time>
      </trkpt>
      <trkpt lat="46.63559" lon="5.60528">
        <ele>340.4</ele>
        <time>2021-04-03T15:01:47Z</time>
      </trkpt>
      <trkpt lat="46.63563" lon="5.60524">
        <ele>340.4</ele>
        <time>2021-04-03T15:01:51Z</time>
      </trkpt>
      <trkpt lat="46.63567" lon="5.60519">
        <ele>340.5</ele>
        <time>2021-04-03T15:01:55Z</time>
      </trkpt>
      <trkpt lat="46.63571" lon="5.60515">
        <ele>340.6</ele>
        <time>2021-04-03T15:02:04Z</time>
      </trkpt>
      <trkpt lat="46.63575" lon="5.60511">
        <ele>341.3</ele>
        <time>2021-04-03T15:02:10Z</time>
      </trkpt>
      <trkpt lat="46.63579" lon="5.60506">
        <ele>341.9</ele>
        <time>2021-04-03T15:02:15Z</time>
      </trkpt>
      <trkpt lat="46.63583" lon="5.60502">
        <ele>342.4</ele>
        <time>2021-04-03T15:02:20Z</time>
      </trkpt>
      <trkpt lat="46.63588" lon="5.60498">
        <ele>342.7</ele>
        <time>2021-04-03T15:02:24Z</time>
      </trkpt>
      <trkpt lat="46.63591" lon="5.60493">
        <ele>343.3</ele>
        <time>2021-04-03T15:02:28Z</time>
      </trkpt>
      <trkpt lat="46.63594" lon="5.60487">
        <ele>343.9</ele>
        <time>2021-04-03T15:02:33Z</time>
      </trkpt>
      <trkpt lat="46.63598" lon="5.60483">
        <ele>345.2</ele>
        <time>2021-04-03T15:02:38Z</time>
      </trkpt>
      <trkpt lat="46.63602" lon="5.6048">
        <ele>347.5</ele>
        <time>2021-04-03T15:02:45Z</time>
      </trkpt>
      <trkpt lat="46.63607" lon="5.60478">
        <ele>349.1</ele>
        <time>2021-04-03T15:02:55Z</time>
      </trkpt>
      <trkpt lat="46.63612" lon="5.60478">
        <ele>349.6</ele>
        <time>2021-04-03T15:03:05Z</time>
      </trkpt>
      <trkpt lat="46.63617" lon="5.60477">
        <ele>350.2</ele>
        <time>2021-04-03T15:03:11Z</time>
      </trkpt>
      <trkpt lat="46.63621" lon="5.60477">
        <ele>350.3</ele>
        <time>2021-04-03T15:03:16Z</time>
      </trkpt>
      <trkpt lat="46.63626" lon="5.60477">
        <ele>350.2</ele>
        <time>2021-04-03T15:03:21Z</time>
      </trkpt>
      <trkpt lat="46.63631" lon="5.60477">
        <ele>350.1</ele>
        <time>2021-04-03T15:03:25Z</time>
      </trkpt>
      <trkpt lat="46.63636" lon="5.60476">
        <ele>349.7</ele>
        <time>2021-04-03T15:03:30Z</time>
      </trkpt>
      <trkpt lat="46.63641" lon="5.60474">
        <ele>349.3</ele>
        <time>2021-04-03T15:03:36Z</time>
      </trkpt>
      <trkpt lat="46.63646" lon="5.60474">
        <ele>349.1</ele>
        <time>2021-04-03T15:03:41Z</time>
      </trkpt>
      <trkpt lat="46.6365" lon="5.60473">
        <ele>349.1</ele>
        <time>2021-04-03T15:03:46Z</time>
      </trkpt>
      <trkpt lat="46.63655" lon="5.60471">
        <ele>349.5</ele>
        <time>2021-04-03T15:03:53Z</time>
      </trkpt>
      <trkpt lat="46.63659" lon="5.60467">
        <ele>350.7</ele>
        <time>2021-04-03T15:04:07Z</time>
      </trkpt>
      <trkpt lat="46.63663" lon="5.60468">
        <ele>351.6</ele>
        <time>2021-04-03T15:04:13Z</time>
      </trkpt>
      <trkpt lat="46.63668" lon="5.6047">
        <ele>352</ele>
        <time>2021-04-03T15:04:19Z</time>
      </trkpt>
      <trkpt lat="46.63673" lon="5.60473">
        <ele>352.8</ele>
        <time>2021-04-03T15:04:26Z</time>
      </trkpt>
      <trkpt lat="46.63678" lon="5.60476">
        <ele>353.2</ele>
        <time>2021-04-03T15:04:30Z</time>
      </trkpt>
      <trkpt lat="46.63682" lon="5.6048">
        <ele>353.6</ele>
        <time>2021-04-03T15:04:35Z</time>
      </trkpt>
      <trkpt lat="46.63686" lon="5.60482">
        <ele>354.4</ele>
        <time>2021-04-03T15:04:40Z</time>
      </trkpt>
      <trkpt lat="46.63691" lon="5.60483">
        <ele>355.2</ele>
        <time>2021-04-03T15:04:45Z</time>
      </trkpt>
      <trkpt lat="46.63696" lon="5.60486">
        <ele>356.1</ele>
        <time>2021-04-03T15:04:50Z</time>
      </trkpt>
      <trkpt lat="46.637" lon="5.60487">
        <ele>357.2</ele>
        <time>2021-04-03T15:04:55Z</time>
      </trkpt>
      <trkpt lat="46.63705" lon="5.60487">
        <ele>358</ele>
        <time>2021-04-03T15:04:59Z</time>
      </trkpt>
      <trkpt lat="46.63711" lon="5.60487">
        <ele>359.3</ele>
        <time>2021-04-03T15:05:04Z</time>
      </trkpt>
      <trkpt lat="46.63715" lon="5.60486">
        <ele>360.5</ele>
        <time>2021-04-03T15:05:09Z</time>
      </trkpt>
      <trkpt lat="46.63721" lon="5.60487">
        <ele>361.5</ele>
        <time>2021-04-03T15:05:14Z</time>
      </trkpt>
      <trkpt lat="46.63725" lon="5.60486">
        <ele>362.4</ele>
        <time>2021-04-03T15:05:19Z</time>
      </trkpt>
      <trkpt lat="46.6373" lon="5.60486">
        <ele>363.3</ele>
        <time>2021-04-03T15:05:24Z</time>
      </trkpt>
      <trkpt lat="46.63735" lon="5.60489">
        <ele>364</ele>
        <time>2021-04-03T15:05:29Z</time>
      </trkpt>
      <trkpt lat="46.63739" lon="5.60495">
        <ele>364.9</ele>
        <time>2021-04-03T15:05:34Z</time>
      </trkpt>
      <trkpt lat="46.6374" lon="5.60501">
        <ele>365.9</ele>
        <time>2021-04-03T15:05:39Z</time>
      </trkpt>
      <trkpt lat="46.63738" lon="5.60508">
        <ele>367.6</ele>
        <time>2021-04-03T15:05:46Z</time>
      </trkpt>
      <trkpt lat="46.63735" lon="5.60514">
        <ele>368.8</ele>
        <time>2021-04-03T15:05:56Z</time>
      </trkpt>
      <trkpt lat="46.63732" lon="5.60509">
        <ele>368.9</ele>
        <time>2021-04-03T15:06:15Z</time>
      </trkpt>
      <trkpt lat="46.6373" lon="5.60515">
        <ele>369</ele>
        <time>2021-04-03T15:06:51Z</time>
      </trkpt>
      <trkpt lat="46.63726" lon="5.60519">
        <ele>368.9</ele>
        <time>2021-04-03T15:06:56Z</time>
      </trkpt>
      <trkpt lat="46.63721" lon="5.60521">
        <ele>368.9</ele>
        <time>2021-04-03T15:07:01Z</time>
      </trkpt>
      <trkpt lat="46.63717" lon="5.60523">
        <ele>369</ele>
        <time>2021-04-03T15:07:06Z</time>
      </trkpt>
      <trkpt lat="46.63711" lon="5.60525">
        <ele>369.4</ele>
        <time>2021-04-03T15:07:12Z</time>
      </trkpt>
      <trkpt lat="46.63707" lon="5.60526">
        <ele>370</ele>
        <time>2021-04-03T15:07:16Z</time>
      </trkpt>
      <trkpt lat="46.63702" lon="5.60528">
        <ele>370.3</ele>
        <time>2021-04-03T15:07:21Z</time>
      </trkpt>
      <trkpt lat="46.63697" lon="5.60531">
        <ele>370.3</ele>
        <time>2021-04-03T15:07:26Z</time>
      </trkpt>
      <trkpt lat="46.63693" lon="5.60535">
        <ele>369.8</ele>
        <time>2021-04-03T15:07:31Z</time>
      </trkpt>
      <trkpt lat="46.63689" lon="5.60539">
        <ele>368.9</ele>
        <time>2021-04-03T15:07:36Z</time>
      </trkpt>
      <trkpt lat="46.63684" lon="5.60543">
        <ele>368.2</ele>
        <time>2021-04-03T15:07:42Z</time>
      </trkpt>
      <trkpt lat="46.6368" lon="5.60548">
        <ele>367.9</ele>
        <time>2021-04-03T15:07:47Z</time>
      </trkpt>
      <trkpt lat="46.63676" lon="5.60552">
        <ele>368</ele>
        <time>2021-04-03T15:07:52Z</time>
      </trkpt>
      <trkpt lat="46.63672" lon="5.60556">
        <ele>368.2</ele>
        <time>2021-04-03T15:07:57Z</time>
      </trkpt>
      <trkpt lat="46.63669" lon="5.60561">
        <ele>368.7</ele>
        <time>2021-04-03T15:08:01Z</time>
      </trkpt>
      <trkpt lat="46.63665" lon="5.60566">
        <ele>369.6</ele>
        <time>2021-04-03T15:08:06Z</time>
      </trkpt>
      <trkpt lat="46.63663" lon="5.60573">
        <ele>370.6</ele>
        <time>2021-04-03T15:08:11Z</time>
      </trkpt>
      <trkpt lat="46.63662" lon="5.6058">
        <ele>371.7</ele>
        <time>2021-04-03T15:08:16Z</time>
      </trkpt>
      <trkpt lat="46.63661" lon="5.60587">
        <ele>373.3</ele>
        <time>2021-04-03T15:08:24Z</time>
      </trkpt>
      <trkpt lat="46.63665" lon="5.60589">
        <ele>374.8</ele>
        <time>2021-04-03T15:08:32Z</time>
      </trkpt>
      <trkpt lat="46.63667" lon="5.60582">
        <ele>376.7</ele>
        <time>2021-04-03T15:08:43Z</time>
      </trkpt>
      <trkpt lat="46.6367" lon="5.60587">
        <ele>377.5</ele>
        <time>2021-04-03T15:09:45Z</time>
      </trkpt>
      <trkpt lat="46.63675" lon="5.60586">
        <ele>377</ele>
        <time>2021-04-03T15:09:49Z</time>
      </trkpt>
      <trkpt lat="46.6368" lon="5.60584">
        <ele>375.8</ele>
        <time>2021-04-03T15:09:54Z</time>
      </trkpt>
      <trkpt lat="46.63685" lon="5.60581">
        <ele>374.6</ele>
        <time>2021-04-03T15:09:59Z</time>
      </trkpt>
      <trkpt lat="46.63689" lon="5.60576">
        <ele>373.2</ele>
        <time>2021-04-03T15:10:03Z</time>
      </trkpt>
      <trkpt lat="46.63693" lon="5.60571">
        <ele>371.8</ele>
        <time>2021-04-03T15:10:07Z</time>
      </trkpt>
      <trkpt lat="46.63698" lon="5.60569">
        <ele>370.4</ele>
        <time>2021-04-03T15:10:11Z</time>
      </trkpt>
      <trkpt lat="46.63702" lon="5.60565">
        <ele>369.3</ele>
        <time>2021-04-03T15:10:15Z</time>
      </trkpt>
      <trkpt lat="46.63704" lon="5.60559">
        <ele>368.7</ele>
        <time>2021-04-03T15:10:19Z</time>
      </trkpt>
      <trkpt lat="46.63707" lon="5.60554">
        <ele>368</ele>
        <time>2021-04-03T15:10:23Z</time>
      </trkpt>
      <trkpt lat="46.63711" lon="5.60549">
        <ele>367.3</ele>
        <time>2021-04-03T15:10:28Z</time>
      </trkpt>
      <trkpt lat="46.63716" lon="5.60546">
        <ele>366.8</ele>
        <time>2021-04-03T15:10:32Z</time>
      </trkpt>
      <trkpt lat="46.63721" lon="5.60544">
        <ele>366.5</ele>
        <time>2021-04-03T15:10:36Z</time>
      </trkpt>
      <trkpt lat="46.63725" lon="5.60541">
        <ele>366.7</ele>
        <time>2021-04-03T15:10:41Z</time>
      </trkpt>
      <trkpt lat="46.6373" lon="5.60538">
        <ele>367.1</ele>
        <time>2021-04-03T15:10:46Z</time>
      </trkpt>
      <trkpt lat="46.63734" lon="5.60534">
        <ele>367.1</ele>
        <time>2021-04-03T15:10:51Z</time>
      </trkpt>
      <trkpt lat="46.63738" lon="5.6053">
        <ele>367</ele>
        <time>2021-04-03T15:10:56Z</time>
      </trkpt>
      <trkpt lat="46.63742" lon="5.60527">
        <ele>366.9</ele>
        <time>2021-04-03T15:11:00Z</time>
      </trkpt>
      <trkpt lat="46.63747" lon="5.60524">
        <ele>367.2</ele>
        <time>2021-04-03T15:11:06Z</time>
      </trkpt>
      <trkpt lat="46.63752" lon="5.6052">
        <ele>367.7</ele>
        <time>2021-04-03T15:11:12Z</time>
      </trkpt>
      <trkpt lat="46.63755" lon="5.60514">
        <ele>368.4</ele>
        <time>2021-04-03T15:11:18Z</time>
      </trkpt>
      <trkpt lat="46.63759" lon="5.60509">
        <ele>368.5</ele>
        <time>2021-04-03T15:11:24Z</time>
      </trkpt>
      <trkpt lat="46.63764" lon="5.60506">
        <ele>368.7</ele>
        <time>2021-04-03T15:11:29Z</time>
      </trkpt>
      <trkpt lat="46.63768" lon="5.60503">
        <ele>368.7</ele>
        <time>2021-04-03T15:11:33Z</time>
      </trkpt>
      <trkpt lat="46.63772" lon="5.605">
        <ele>368.8</ele>
        <time>2021-04-03T15:11:37Z</time>
      </trkpt>
      <trkpt lat="46.63777" lon="5.60497">
        <ele>368.8</ele>
        <time>2021-04-03T15:11:41Z</time>
      </trkpt>
      <trkpt lat="46.63781" lon="5.60494">
        <ele>368.6</ele>
        <time>2021-04-03T15:11:45Z</time>
      </trkpt>
      <trkpt lat="46.63786" lon="5.60491">
        <ele>368.2</ele>
        <time>2021-04-03T15:11:49Z</time>
      </trkpt>
      <trkpt lat="46.6379" lon="5.60488">
        <ele>368</ele>
        <time>2021-04-03T15:11:53Z</time>
      </trkpt>
      <trkpt lat="46.63794" lon="5.60485">
        <ele>368.1</ele>
        <time>2021-04-03T15:11:57Z</time>
      </trkpt>
      <trkpt lat="46.63799" lon="5.60482">
        <ele>368.3</ele>
        <time>2021-04-03T15:12:02Z</time>
      </trkpt>
      <trkpt lat="46.63804" lon="5.60479">
        <ele>368.4</ele>
        <time>2021-04-03T15:12:06Z</time>
      </trkpt>
      <trkpt lat="46.63809" lon="5.60478">
        <ele>368.7</ele>
        <time>2021-04-03T15:12:11Z</time>
      </trkpt>
      <trkpt lat="46.63813" lon="5.60477">
        <ele>368.8</ele>
        <time>2021-04-03T15:12:16Z</time>
      </trkpt>
      <trkpt lat="46.63818" lon="5.60476">
        <ele>368.8</ele>
        <time>2021-04-03T15:12:21Z</time>
      </trkpt>
      <trkpt lat="46.63823" lon="5.60476">
        <ele>369.1</ele>
        <time>2021-04-03T15:12:27Z</time>
      </trkpt>
      <trkpt lat="46.63828" lon="5.60475">
        <ele>369.1</ele>
        <time>2021-04-03T15:12:32Z</time>
      </trkpt>
      <trkpt lat="46.63833" lon="5.60472">
        <ele>369</ele>
        <time>2021-04-03T15:12:37Z</time>
      </trkpt>
      <trkpt lat="46.63837" lon="5.6047">
        <ele>369.1</ele>
        <time>2021-04-03T15:12:42Z</time>
      </trkpt>
      <trkpt lat="46.63842" lon="5.60468">
        <ele>369.2</ele>
        <time>2021-04-03T15:12:47Z</time>
      </trkpt>
      <trkpt lat="46.63847" lon="5.60468">
        <ele>368.3</ele>
        <time>2021-04-03T15:12:53Z</time>
      </trkpt>
      <trkpt lat="46.63852" lon="5.60467">
        <ele>367.8</ele>
        <time>2021-04-03T15:12:57Z</time>
      </trkpt>
      <trkpt lat="46.63857" lon="5.60466">
        <ele>367.1</ele>
        <time>2021-04-03T15:13:02Z</time>
      </trkpt>
      <trkpt lat="46.63862" lon="5.60464">
        <ele>367</ele>
        <time>2021-04-03T15:13:06Z</time>
      </trkpt>
      <trkpt lat="46.63867" lon="5.60461">
        <ele>367</ele>
        <time>2021-04-03T15:13:11Z</time>
      </trkpt>
      <trkpt lat="46.63872" lon="5.60459">
        <ele>366.7</ele>
        <time>2021-04-03T15:13:16Z</time>
      </trkpt>
      <trkpt lat="46.63877" lon="5.60458">
        <ele>366.2</ele>
        <time>2021-04-03T15:13:20Z</time>
      </trkpt>
      <trkpt lat="46.63882" lon="5.60456">
        <ele>365.2</ele>
        <time>2021-04-03T15:13:25Z</time>
      </trkpt>
      <trkpt lat="46.63887" lon="5.60455">
        <ele>364.4</ele>
        <time>2021-04-03T15:13:29Z</time>
      </trkpt>
      <trkpt lat="46.63892" lon="5.60455">
        <ele>364</ele>
        <time>2021-04-03T15:13:33Z</time>
      </trkpt>
      <trkpt lat="46.63897" lon="5.60451">
        <ele>364.2</ele>
        <time>2021-04-03T15:13:38Z</time>
      </trkpt>
      <trkpt lat="46.63901" lon="5.60444">
        <ele>365.7</ele>
        <time>2021-04-03T15:13:42Z</time>
      </trkpt>
      <trkpt lat="46.63906" lon="5.60439">
        <ele>366.7</ele>
        <time>2021-04-03T15:13:49Z</time>
      </trkpt>
      <trkpt lat="46.6391" lon="5.60435">
        <ele>367</ele>
        <time>2021-04-03T15:13:53Z</time>
      </trkpt>
      <trkpt lat="46.63916" lon="5.60432">
        <ele>367.1</ele>
        <time>2021-04-03T15:13:58Z</time>
      </trkpt>
      <trkpt lat="46.63921" lon="5.6043">
        <ele>366.8</ele>
        <time>2021-04-03T15:14:02Z</time>
      </trkpt>
      <trkpt lat="46.63927" lon="5.60427">
        <ele>366.6</ele>
        <time>2021-04-03T15:14:06Z</time>
      </trkpt>
      <trkpt lat="46.63931" lon="5.60424">
        <ele>365.9</ele>
        <time>2021-04-03T15:14:12Z</time>
      </trkpt>
      <trkpt lat="46.63935" lon="5.6042">
        <ele>364.8</ele>
        <time>2021-04-03T15:14:18Z</time>
      </trkpt>
      <trkpt lat="46.6394" lon="5.60419">
        <ele>364</ele>
        <time>2021-04-03T15:14:23Z</time>
      </trkpt>
      <trkpt lat="46.63946" lon="5.60417">
        <ele>363</ele>
        <time>2021-04-03T15:14:28Z</time>
      </trkpt>
      <trkpt lat="46.6395" lon="5.60416">
        <ele>362.5</ele>
        <time>2021-04-03T15:14:32Z</time>
      </trkpt>
      <trkpt lat="46.63956" lon="5.60416">
        <ele>362.3</ele>
        <time>2021-04-03T15:14:36Z</time>
      </trkpt>
      <trkpt lat="46.63961" lon="5.60413">
        <ele>362.3</ele>
        <time>2021-04-03T15:14:42Z</time>
      </trkpt>
      <trkpt lat="46.63964" lon="5.60409">
        <ele>364.1</ele>
        <time>2021-04-03T15:14:48Z</time>
      </trkpt>
      <trkpt lat="46.63969" lon="5.60405">
        <ele>364.9</ele>
        <time>2021-04-03T15:14:55Z</time>
      </trkpt>
      <trkpt lat="46.63974" lon="5.60403">
        <ele>364.9</ele>
        <time>2021-04-03T15:14:59Z</time>
      </trkpt>
      <trkpt lat="46.63979" lon="5.60401">
        <ele>364.5</ele>
        <time>2021-04-03T15:15:03Z</time>
      </trkpt>
      <trkpt lat="46.63983" lon="5.60398">
        <ele>363.8</ele>
        <time>2021-04-03T15:15:07Z</time>
      </trkpt>
      <trkpt lat="46.63989" lon="5.60394">
        <ele>363.1</ele>
        <time>2021-04-03T15:15:11Z</time>
      </trkpt>
      <trkpt lat="46.63993" lon="5.60391">
        <ele>362.3</ele>
        <time>2021-04-03T15:15:15Z</time>
      </trkpt>
      <trkpt lat="46.63998" lon="5.6039">
        <ele>362.2</ele>
        <time>2021-04-03T15:15:19Z</time>
      </trkpt>
      <trkpt lat="46.64003" lon="5.60385">
        <ele>362.4</ele>
        <time>2021-04-03T15:15:23Z</time>
      </trkpt>
      <trkpt lat="46.64007" lon="5.60381">
        <ele>361.8</ele>
        <time>2021-04-03T15:15:28Z</time>
      </trkpt>
      <trkpt lat="46.64012" lon="5.60378">
        <ele>361.6</ele>
        <time>2021-04-03T15:15:33Z</time>
      </trkpt>
      <trkpt lat="46.64016" lon="5.60375">
        <ele>361.9</ele>
        <time>2021-04-03T15:15:39Z</time>
      </trkpt>
      <trkpt lat="46.64022" lon="5.60371">
        <ele>362.2</ele>
        <time>2021-04-03T15:15:43Z</time>
      </trkpt>
      <trkpt lat="46.64027" lon="5.60367">
        <ele>362.4</ele>
        <time>2021-04-03T15:15:47Z</time>
      </trkpt>
      <trkpt lat="46.6403" lon="5.60362">
        <ele>362.6</ele>
        <time>2021-04-03T15:15:51Z</time>
      </trkpt>
      <trkpt lat="46.64035" lon="5.60359">
        <ele>362.8</ele>
        <time>2021-04-03T15:15:56Z</time>
      </trkpt>
      <trkpt lat="46.64039" lon="5.60354">
        <ele>363.1</ele>
        <time>2021-04-03T15:16:01Z</time>
      </trkpt>
      <trkpt lat="46.64043" lon="5.6035">
        <ele>363.7</ele>
        <time>2021-04-03T15:16:06Z</time>
      </trkpt>
      <trkpt lat="46.64048" lon="5.60347">
        <ele>364.1</ele>
        <time>2021-04-03T15:16:13Z</time>
      </trkpt>
      <trkpt lat="46.64053" lon="5.60344">
        <ele>364.3</ele>
        <time>2021-04-03T15:16:19Z</time>
      </trkpt>
      <trkpt lat="46.64059" lon="5.60341">
        <ele>363.9</ele>
        <time>2021-04-03T15:16:23Z</time>
      </trkpt>
      <trkpt lat="46.64065" lon="5.60339">
        <ele>363.2</ele>
        <time>2021-04-03T15:16:27Z</time>
      </trkpt>
      <trkpt lat="46.6407" lon="5.60337">
        <ele>362.8</ele>
        <time>2021-04-03T15:16:31Z</time>
      </trkpt>
      <trkpt lat="46.64075" lon="5.60336">
        <ele>362.3</ele>
        <time>2021-04-03T15:16:35Z</time>
      </trkpt>
      <trkpt lat="46.64079" lon="5.60333">
        <ele>361.8</ele>
        <time>2021-04-03T15:16:40Z</time>
      </trkpt>
      <trkpt lat="46.64084" lon="5.60331">
        <ele>360.9</ele>
        <time>2021-04-03T15:16:45Z</time>
      </trkpt>
      <trkpt lat="46.64089" lon="5.60328">
        <ele>359.8</ele>
        <time>2021-04-03T15:16:50Z</time>
      </trkpt>
      <trkpt lat="46.64094" lon="5.60328">
        <ele>359.1</ele>
        <time>2021-04-03T15:16:55Z</time>
      </trkpt>
      <trkpt lat="46.64099" lon="5.60328">
        <ele>358.8</ele>
        <time>2021-04-03T15:16:59Z</time>
      </trkpt>
      <trkpt lat="46.64104" lon="5.60326">
        <ele>358.7</ele>
        <time>2021-04-03T15:17:03Z</time>
      </trkpt>
      <trkpt lat="46.64109" lon="5.60324">
        <ele>358.7</ele>
        <time>2021-04-03T15:17:08Z</time>
      </trkpt>
      <trkpt lat="46.64114" lon="5.60323">
        <ele>358.5</ele>
        <time>2021-04-03T15:17:12Z</time>
      </trkpt>
      <trkpt lat="46.64119" lon="5.60322">
        <ele>358.4</ele>
        <time>2021-04-03T15:17:16Z</time>
      </trkpt>
      <trkpt lat="46.64123" lon="5.6032">
        <ele>358.4</ele>
        <time>2021-04-03T15:17:20Z</time>
      </trkpt>
      <trkpt lat="46.64128" lon="5.6032">
        <ele>358.7</ele>
        <time>2021-04-03T15:17:25Z</time>
      </trkpt>
      <trkpt lat="46.64133" lon="5.60321">
        <ele>358.8</ele>
        <time>2021-04-03T15:17:30Z</time>
      </trkpt>
      <trkpt lat="46.64138" lon="5.60322">
        <ele>358.8</ele>
        <time>2021-04-03T15:17:37Z</time>
      </trkpt>
      <trkpt lat="46.64143" lon="5.60322">
        <ele>359.3</ele>
        <time>2021-04-03T15:17:42Z</time>
      </trkpt>
      <trkpt lat="46.64148" lon="5.60324">
        <ele>359.6</ele>
        <time>2021-04-03T15:17:46Z</time>
      </trkpt>
      <trkpt lat="46.64154" lon="5.60323">
        <ele>359.9</ele>
        <time>2021-04-03T15:17:50Z</time>
      </trkpt>
      <trkpt lat="46.64159" lon="5.60322">
        <ele>359.7</ele>
        <time>2021-04-03T15:17:54Z</time>
      </trkpt>
      <trkpt lat="46.64164" lon="5.60323">
        <ele>359.2</ele>
        <time>2021-04-03T15:17:58Z</time>
      </trkpt>
      <trkpt lat="46.6417" lon="5.60323">
        <ele>358.2</ele>
        <time>2021-04-03T15:18:02Z</time>
      </trkpt>
      <trkpt lat="46.64175" lon="5.60324">
        <ele>356.3</ele>
        <time>2021-04-03T15:18:07Z</time>
      </trkpt>
      <trkpt lat="46.64179" lon="5.60326">
        <ele>354.8</ele>
        <time>2021-04-03T15:18:11Z</time>
      </trkpt>
      <trkpt lat="46.64184" lon="5.60328">
        <ele>353.2</ele>
        <time>2021-04-03T15:18:16Z</time>
      </trkpt>
      <trkpt lat="46.64189" lon="5.60329">
        <ele>352.4</ele>
        <time>2021-04-03T15:18:21Z</time>
      </trkpt>
      <trkpt lat="46.64194" lon="5.60328">
        <ele>351.9</ele>
        <time>2021-04-03T15:18:26Z</time>
      </trkpt>
      <trkpt lat="46.642" lon="5.60328">
        <ele>351.5</ele>
        <time>2021-04-03T15:18:32Z</time>
      </trkpt>
      <trkpt lat="46.64204" lon="5.60329">
        <ele>351.5</ele>
        <time>2021-04-03T15:18:37Z</time>
      </trkpt>
      <trkpt lat="46.6421" lon="5.6033">
        <ele>351.6</ele>
        <time>2021-04-03T15:18:42Z</time>
      </trkpt>
      <trkpt lat="46.64214" lon="5.60329">
        <ele>351.6</ele>
        <time>2021-04-03T15:18:47Z</time>
      </trkpt>
      <trkpt lat="46.64219" lon="5.60328">
        <ele>351.6</ele>
        <time>2021-04-03T15:18:52Z</time>
      </trkpt>
      <trkpt lat="46.64225" lon="5.60328">
        <ele>351.7</ele>
        <time>2021-04-03T15:18:57Z</time>
      </trkpt>
      <trkpt lat="46.64231" lon="5.60327">
        <ele>351.7</ele>
        <time>2021-04-03T15:19:01Z</time>
      </trkpt>
      <trkpt lat="46.64235" lon="5.60328">
        <ele>351.9</ele>
        <time>2021-04-03T15:19:06Z</time>
      </trkpt>
      <trkpt lat="46.64241" lon="5.60328">
        <ele>352.2</ele>
        <time>2021-04-03T15:19:10Z</time>
      </trkpt>
      <trkpt lat="46.64246" lon="5.60328">
        <ele>352.6</ele>
        <time>2021-04-03T15:19:15Z</time>
      </trkpt>
      <trkpt lat="46.64251" lon="5.60327">
        <ele>352.4</ele>
        <time>2021-04-03T15:19:20Z</time>
      </trkpt>
      <trkpt lat="46.64256" lon="5.60326">
        <ele>352.7</ele>
        <time>2021-04-03T15:19:24Z</time>
      </trkpt>
      <trkpt lat="46.64261" lon="5.60326">
        <ele>352.9</ele>
        <time>2021-04-03T15:19:31Z</time>
      </trkpt>
      <trkpt lat="46.64266" lon="5.60325">
        <ele>353</ele>
        <time>2021-04-03T15:19:36Z</time>
      </trkpt>
      <trkpt lat="46.64271" lon="5.60324">
        <ele>353.6</ele>
        <time>2021-04-03T15:19:42Z</time>
      </trkpt>
      <trkpt lat="46.64276" lon="5.60322">
        <ele>354.2</ele>
        <time>2021-04-03T15:19:47Z</time>
      </trkpt>
      <trkpt lat="46.64281" lon="5.6032">
        <ele>354.5</ele>
        <time>2021-04-03T15:19:51Z</time>
      </trkpt>
      <trkpt lat="46.64286" lon="5.6032">
        <ele>354.7</ele>
        <time>2021-04-03T15:19:55Z</time>
      </trkpt>
      <trkpt lat="46.64291" lon="5.6032">
        <ele>354.9</ele>
        <time>2021-04-03T15:20:00Z</time>
      </trkpt>
      <trkpt lat="46.64296" lon="5.6032">
        <ele>355.2</ele>
        <time>2021-04-03T15:20:05Z</time>
      </trkpt>
      <trkpt lat="46.64301" lon="5.60319">
        <ele>355.6</ele>
        <time>2021-04-03T15:20:10Z</time>
      </trkpt>
      <trkpt lat="46.64307" lon="5.60318">
        <ele>355.1</ele>
        <time>2021-04-03T15:20:16Z</time>
      </trkpt>
      <trkpt lat="46.64311" lon="5.60319">
        <ele>355.1</ele>
        <time>2021-04-03T15:20:21Z</time>
      </trkpt>
      <trkpt lat="46.64317" lon="5.60319">
        <ele>355.1</ele>
        <time>2021-04-03T15:20:27Z</time>
      </trkpt>
      <trkpt lat="46.64322" lon="5.60317">
        <ele>354.8</ele>
        <time>2021-04-03T15:20:31Z</time>
      </trkpt>
      <trkpt lat="46.64327" lon="5.60316">
        <ele>354.2</ele>
        <time>2021-04-03T15:20:37Z</time>
      </trkpt>
      <trkpt lat="46.64332" lon="5.60316">
        <ele>353.7</ele>
        <time>2021-04-03T15:20:42Z</time>
      </trkpt>
      <trkpt lat="46.64338" lon="5.60316">
        <ele>353.4</ele>
        <time>2021-04-03T15:20:46Z</time>
      </trkpt>
      <trkpt lat="46.64343" lon="5.60317">
        <ele>353.2</ele>
        <time>2021-04-03T15:20:50Z</time>
      </trkpt>
      <trkpt lat="46.64348" lon="5.60317">
        <ele>353</ele>
        <time>2021-04-03T15:20:55Z</time>
      </trkpt>
      <trkpt lat="46.64352" lon="5.60315">
        <ele>352.6</ele>
        <time>2021-04-03T15:21:00Z</time>
      </trkpt>
      <trkpt lat="46.64358" lon="5.60314">
        <ele>352.1</ele>
        <time>2021-04-03T15:21:04Z</time>
      </trkpt>
      <trkpt lat="46.64363" lon="5.60314">
        <ele>351.4</ele>
        <time>2021-04-03T15:21:08Z</time>
      </trkpt>
      <trkpt lat="46.64369" lon="5.60315">
        <ele>350.1</ele>
        <time>2021-04-03T15:21:14Z</time>
      </trkpt>
      <trkpt lat="46.64373" lon="5.60318">
        <ele>348.7</ele>
        <time>2021-04-03T15:21:20Z</time>
      </trkpt>
      <trkpt lat="46.64379" lon="5.60318">
        <ele>348.2</ele>
        <time>2021-04-03T15:21:24Z</time>
      </trkpt>
      <trkpt lat="46.64383" lon="5.60318">
        <ele>348</ele>
        <time>2021-04-03T15:21:28Z</time>
      </trkpt>
      <trkpt lat="46.64388" lon="5.60319">
        <ele>348.1</ele>
        <time>2021-04-03T15:21:33Z</time>
      </trkpt>
      <trkpt lat="46.64393" lon="5.6032">
        <ele>348.2</ele>
        <time>2021-04-03T15:21:37Z</time>
      </trkpt>
      <trkpt lat="46.64397" lon="5.6032">
        <ele>348.3</ele>
        <time>2021-04-03T15:21:41Z</time>
      </trkpt>
      <trkpt lat="46.64403" lon="5.60313">
        <ele>348.3</ele>
        <time>2021-04-03T15:22:14Z</time>
      </trkpt>
      <trkpt lat="46.64407" lon="5.6031">
        <ele>348.1</ele>
        <time>2021-04-03T15:22:19Z</time>
      </trkpt>
      <trkpt lat="46.64411" lon="5.60315">
        <ele>349.3</ele>
        <time>2021-04-03T15:22:30Z</time>
      </trkpt>
      <trkpt lat="46.64416" lon="5.60316">
        <ele>350.4</ele>
        <time>2021-04-03T15:22:36Z</time>
      </trkpt>
      <trkpt lat="46.64421" lon="5.60317">
        <ele>350.5</ele>
        <time>2021-04-03T15:22:40Z</time>
      </trkpt>
      <trkpt lat="46.64426" lon="5.60318">
        <ele>350.6</ele>
        <time>2021-04-03T15:22:44Z</time>
      </trkpt>
      <trkpt lat="46.64431" lon="5.60319">
        <ele>350.7</ele>
        <time>2021-04-03T15:22:48Z</time>
      </trkpt>
      <trkpt lat="46.64437" lon="5.60319">
        <ele>350.4</ele>
        <time>2021-04-03T15:22:54Z</time>
      </trkpt>
      <trkpt lat="46.64442" lon="5.60318">
        <ele>350</ele>
        <time>2021-04-03T15:22:59Z</time>
      </trkpt>
      <trkpt lat="46.64447" lon="5.6032">
        <ele>349.2</ele>
        <time>2021-04-03T15:23:04Z</time>
      </trkpt>
      <trkpt lat="46.6445" lon="5.60325">
        <ele>346.9</ele>
        <time>2021-04-03T15:23:11Z</time>
      </trkpt>
      <trkpt lat="46.64455" lon="5.60328">
        <ele>344.8</ele>
        <time>2021-04-03T15:23:17Z</time>
      </trkpt>
      <trkpt lat="46.64462" lon="5.60329">
        <ele>343.5</ele>
        <time>2021-04-03T15:23:21Z</time>
      </trkpt>
      <trkpt lat="46.64467" lon="5.60331">
        <ele>342.4</ele>
        <time>2021-04-03T15:23:25Z</time>
      </trkpt>
      <trkpt lat="46.64472" lon="5.60331">
        <ele>341.2</ele>
        <time>2021-04-03T15:23:30Z</time>
      </trkpt>
      <trkpt lat="46.64477" lon="5.60332">
        <ele>340.5</ele>
        <time>2021-04-03T15:23:34Z</time>
      </trkpt>
      <trkpt lat="46.64482" lon="5.60332">
        <ele>339.7</ele>
        <time>2021-04-03T15:23:38Z</time>
      </trkpt>
      <trkpt lat="46.64487" lon="5.60333">
        <ele>338.8</ele>
        <time>2021-04-03T15:23:43Z</time>
      </trkpt>
      <trkpt lat="46.64492" lon="5.60334">
        <ele>338.4</ele>
        <time>2021-04-03T15:23:48Z</time>
      </trkpt>
      <trkpt lat="46.64497" lon="5.60333">
        <ele>338.2</ele>
        <time>2021-04-03T15:23:52Z</time>
      </trkpt>
      <trkpt lat="46.64503" lon="5.60332">
        <ele>338.4</ele>
        <time>2021-04-03T15:23:56Z</time>
      </trkpt>
      <trkpt lat="46.64507" lon="5.6033">
        <ele>338.4</ele>
        <time>2021-04-03T15:24:00Z</time>
      </trkpt>
      <trkpt lat="46.64512" lon="5.6033">
        <ele>338.5</ele>
        <time>2021-04-03T15:24:04Z</time>
      </trkpt>
      <trkpt lat="46.64517" lon="5.6033">
        <ele>338.8</ele>
        <time>2021-04-03T15:24:09Z</time>
      </trkpt>
      <trkpt lat="46.64522" lon="5.60333">
        <ele>339.4</ele>
        <time>2021-04-03T15:24:16Z</time>
      </trkpt>
      <trkpt lat="46.64528" lon="5.60334">
        <ele>340</ele>
        <time>2021-04-03T15:24:21Z</time>
      </trkpt>
      <trkpt lat="46.64532" lon="5.60334">
        <ele>340.4</ele>
        <time>2021-04-03T15:24:25Z</time>
      </trkpt>
      <trkpt lat="46.64537" lon="5.60334">
        <ele>340.7</ele>
        <time>2021-04-03T15:24:29Z</time>
      </trkpt>
      <trkpt lat="46.64542" lon="5.60336">
        <ele>340.9</ele>
        <time>2021-04-03T15:24:33Z</time>
      </trkpt>
      <trkpt lat="46.64547" lon="5.60338">
        <ele>340.8</ele>
        <time>2021-04-03T15:24:39Z</time>
      </trkpt>
      <trkpt lat="46.64553" lon="5.60339">
        <ele>340.9</ele>
        <time>2021-04-03T15:24:44Z</time>
      </trkpt>
      <trkpt lat="46.64558" lon="5.60339">
        <ele>341.1</ele>
        <time>2021-04-03T15:24:48Z</time>
      </trkpt>
      <trkpt lat="46.64564" lon="5.60339">
        <ele>341.5</ele>
        <time>2021-04-03T15:24:52Z</time>
      </trkpt>
      <trkpt lat="46.64569" lon="5.60339">
        <ele>341.8</ele>
        <time>2021-04-03T15:24:58Z</time>
      </trkpt>
      <trkpt lat="46.64575" lon="5.60339">
        <ele>341.6</ele>
        <time>2021-04-03T15:25:04Z</time>
      </trkpt>
      <trkpt lat="46.64579" lon="5.60339">
        <ele>341.5</ele>
        <time>2021-04-03T15:25:09Z</time>
      </trkpt>
      <trkpt lat="46.64584" lon="5.60338">
        <ele>341.9</ele>
        <time>2021-04-03T15:25:13Z</time>
      </trkpt>
      <trkpt lat="46.6459" lon="5.60337">
        <ele>343</ele>
        <time>2021-04-03T15:25:17Z</time>
      </trkpt>
      <trkpt lat="46.64596" lon="5.60336">
        <ele>344.2</ele>
        <time>2021-04-03T15:25:21Z</time>
      </trkpt>
      <trkpt lat="46.64601" lon="5.60336">
        <ele>345.4</ele>
        <time>2021-04-03T15:25:26Z</time>
      </trkpt>
      <trkpt lat="46.64606" lon="5.60335">
        <ele>346.7</ele>
        <time>2021-04-03T15:25:33Z</time>
      </trkpt>
      <trkpt lat="46.64611" lon="5.60336">
        <ele>347.8</ele>
        <time>2021-04-03T15:25:39Z</time>
      </trkpt>
      <trkpt lat="46.64615" lon="5.6034">
        <ele>348.6</ele>
        <time>2021-04-03T15:25:45Z</time>
      </trkpt>
      <trkpt lat="46.6462" lon="5.60342">
        <ele>349.4</ele>
        <time>2021-04-03T15:25:52Z</time>
      </trkpt>
      <trkpt lat="46.64625" lon="5.60342">
        <ele>349.5</ele>
        <time>2021-04-03T15:25:57Z</time>
      </trkpt>
      <trkpt lat="46.64629" lon="5.60341">
        <ele>349.2</ele>
        <time>2021-04-03T15:26:01Z</time>
      </trkpt>
      <trkpt lat="46.64634" lon="5.60342">
        <ele>348.7</ele>
        <time>2021-04-03T15:26:05Z</time>
      </trkpt>
      <trkpt lat="46.64639" lon="5.6034">
        <ele>349</ele>
        <time>2021-04-03T15:26:09Z</time>
      </trkpt>
      <trkpt lat="46.64644" lon="5.6034">
        <ele>349.2</ele>
        <time>2021-04-03T15:26:13Z</time>
      </trkpt>
      <trkpt lat="46.64649" lon="5.60338">
        <ele>349.6</ele>
        <time>2021-04-03T15:26:17Z</time>
      </trkpt>
      <trkpt lat="46.64654" lon="5.60341">
        <ele>350</ele>
        <time>2021-04-03T15:26:27Z</time>
      </trkpt>
      <trkpt lat="46.64654" lon="5.60333">
        <ele>350.6</ele>
        <time>2021-04-03T15:27:33Z</time>
      </trkpt>
      <trkpt lat="46.6466" lon="5.60333">
        <ele>349.7</ele>
        <time>2021-04-03T15:27:48Z</time>
      </trkpt>
      <trkpt lat="46.64665" lon="5.60334">
        <ele>348.7</ele>
        <time>2021-04-03T15:27:52Z</time>
      </trkpt>
      <trkpt lat="46.64671" lon="5.60335">
        <ele>347.3</ele>
        <time>2021-04-03T15:27:56Z</time>
      </trkpt>
      <trkpt lat="46.64675" lon="5.60338">
        <ele>346</ele>
        <time>2021-04-03T15:28:00Z</time>
      </trkpt>
      <trkpt lat="46.6468" lon="5.60337">
        <ele>343.7</ele>
        <time>2021-04-03T15:28:14Z</time>
      </trkpt>
      <trkpt lat="46.64684" lon="5.60337">
        <ele>344</ele>
        <time>2021-04-03T15:28:19Z</time>
      </trkpt>
      <trkpt lat="46.64689" lon="5.60338">
        <ele>344.2</ele>
        <time>2021-04-03T15:28:23Z</time>
      </trkpt>
      <trkpt lat="46.64694" lon="5.60337">
        <ele>344.1</ele>
        <time>2021-04-03T15:28:28Z</time>
      </trkpt>
      <trkpt lat="46.64699" lon="5.60337">
        <ele>344.2</ele>
        <time>2021-04-03T15:28:32Z</time>
      </trkpt>
      <trkpt lat="46.64704" lon="5.60337">
        <ele>344.3</ele>
        <time>2021-04-03T15:28:37Z</time>
      </trkpt>
      <trkpt lat="46.64709" lon="5.60336">
        <ele>344.1</ele>
        <time>2021-04-03T15:28:41Z</time>
      </trkpt>
      <trkpt lat="46.64714" lon="5.60334">
        <ele>343.7</ele>
        <time>2021-04-03T15:28:45Z</time>
      </trkpt>
      <trkpt lat="46.64719" lon="5.60333">
        <ele>343</ele>
        <time>2021-04-03T15:28:50Z</time>
      </trkpt>
      <trkpt lat="46.64724" lon="5.6033">
        <ele>342</ele>
        <time>2021-04-03T15:28:55Z</time>
      </trkpt>
      <trkpt lat="46.64729" lon="5.60329">
        <ele>341.6</ele>
        <time>2021-04-03T15:29:01Z</time>
      </trkpt>
      <trkpt lat="46.64734" lon="5.60328">
        <ele>341.3</ele>
        <time>2021-04-03T15:29:06Z</time>
      </trkpt>
      <trkpt lat="46.64739" lon="5.60327">
        <ele>340</ele>
        <time>2021-04-03T15:29:11Z</time>
      </trkpt>
      <trkpt lat="46.64744" lon="5.60324">
        <ele>339.1</ele>
        <time>2021-04-03T15:29:15Z</time>
      </trkpt>
      <trkpt lat="46.64748" lon="5.60321">
        <ele>338.3</ele>
        <time>2021-04-03T15:29:20Z</time>
      </trkpt>
      <trkpt lat="46.64754" lon="5.60319">
        <ele>337.4</ele>
        <time>2021-04-03T15:29:25Z</time>
      </trkpt>
      <trkpt lat="46.64758" lon="5.60315">
        <ele>336.7</ele>
        <time>2021-04-03T15:29:29Z</time>
      </trkpt>
      <trkpt lat="46.64762" lon="5.60311">
        <ele>335.4</ele>
        <time>2021-04-03T15:29:34Z</time>
      </trkpt>
      <trkpt lat="46.64766" lon="5.60307">
        <ele>334.3</ele>
        <time>2021-04-03T15:29:38Z</time>
      </trkpt>
      <trkpt lat="46.6477" lon="5.60304">
        <ele>333.9</ele>
        <time>2021-04-03T15:29:42Z</time>
      </trkpt>
      <trkpt lat="46.64775" lon="5.60301">
        <ele>334.2</ele>
        <time>2021-04-03T15:29:46Z</time>
      </trkpt>
      <trkpt lat="46.64781" lon="5.60298">
        <ele>334.4</ele>
        <time>2021-04-03T15:29:50Z</time>
      </trkpt>
      <trkpt lat="46.64786" lon="5.60296">
        <ele>334.8</ele>
        <time>2021-04-03T15:29:55Z</time>
      </trkpt>
      <trkpt lat="46.6479" lon="5.60292">
        <ele>334.9</ele>
        <time>2021-04-03T15:30:00Z</time>
      </trkpt>
      <trkpt lat="46.64793" lon="5.60288">
        <ele>333.8</ele>
        <time>2021-04-03T15:30:05Z</time>
      </trkpt>
      <trkpt lat="46.64798" lon="5.60284">
        <ele>332.8</ele>
        <time>2021-04-03T15:30:11Z</time>
      </trkpt>
      <trkpt lat="46.64803" lon="5.60282">
        <ele>331.9</ele>
        <time>2021-04-03T15:30:16Z</time>
      </trkpt>
      <trkpt lat="46.64807" lon="5.6028">
        <ele>330.5</ele>
        <time>2021-04-03T15:30:27Z</time>
      </trkpt>
      <trkpt lat="46.6481" lon="5.60275">
        <ele>330.8</ele>
        <time>2021-04-03T15:31:08Z</time>
      </trkpt>
      <trkpt lat="46.64815" lon="5.60272">
        <ele>331.1</ele>
        <time>2021-04-03T15:31:12Z</time>
      </trkpt>
      <trkpt lat="46.6482" lon="5.60272">
        <ele>331.6</ele>
        <time>2021-04-03T15:31:17Z</time>
      </trkpt>
      <trkpt lat="46.64825" lon="5.60272">
        <ele>332</ele>
        <time>2021-04-03T15:31:23Z</time>
      </trkpt>
      <trkpt lat="46.64829" lon="5.60273">
        <ele>332.4</ele>
        <time>2021-04-03T15:31:35Z</time>
      </trkpt>
      <trkpt lat="46.64835" lon="5.60271">
        <ele>332.2</ele>
        <time>2021-04-03T15:31:40Z</time>
      </trkpt>
      <trkpt lat="46.64839" lon="5.60268">
        <ele>332.2</ele>
        <time>2021-04-03T15:31:45Z</time>
      </trkpt>
      <trkpt lat="46.64844" lon="5.60267">
        <ele>332.1</ele>
        <time>2021-04-03T15:31:50Z</time>
      </trkpt>
      <trkpt lat="46.64848" lon="5.60266">
        <ele>331.8</ele>
        <time>2021-04-03T15:31:55Z</time>
      </trkpt>
      <trkpt lat="46.64853" lon="5.60264">
        <ele>331.2</ele>
        <time>2021-04-03T15:31:59Z</time>
      </trkpt>
      <trkpt lat="46.64858" lon="5.60263">
        <ele>330.9</ele>
        <time>2021-04-03T15:32:04Z</time>
      </trkpt>
      <trkpt lat="46.64864" lon="5.60262">
        <ele>330.6</ele>
        <time>2021-04-03T15:32:09Z</time>
      </trkpt>
      <trkpt lat="46.6487" lon="5.60262">
        <ele>330</ele>
        <time>2021-04-03T15:32:13Z</time>
      </trkpt>
      <trkpt lat="46.64874" lon="5.60259">
        <ele>330.3</ele>
        <time>2021-04-03T15:32:17Z</time>
      </trkpt>
      <trkpt lat="46.64879" lon="5.60257">
        <ele>330.3</ele>
        <time>2021-04-03T15:32:22Z</time>
      </trkpt>
      <trkpt lat="46.64885" lon="5.60257">
        <ele>330.2</ele>
        <time>2021-04-03T15:32:27Z</time>
      </trkpt>
      <trkpt lat="46.6489" lon="5.60257">
        <ele>330.4</ele>
        <time>2021-04-03T15:32:32Z</time>
      </trkpt>
      <trkpt lat="46.64895" lon="5.60256">
        <ele>330.1</ele>
        <time>2021-04-03T15:32:36Z</time>
      </trkpt>
      <trkpt lat="46.649" lon="5.60255">
        <ele>329.5</ele>
        <time>2021-04-03T15:32:40Z</time>
      </trkpt>
      <trkpt lat="46.64905" lon="5.60252">
        <ele>329.3</ele>
        <time>2021-04-03T15:32:45Z</time>
      </trkpt>
      <trkpt lat="46.64909" lon="5.6025">
        <ele>329.4</ele>
        <time>2021-04-03T15:32:49Z</time>
      </trkpt>
      <trkpt lat="46.64914" lon="5.60247">
        <ele>329</ele>
        <time>2021-04-03T15:32:53Z</time>
      </trkpt>
      <trkpt lat="46.64918" lon="5.60246">
        <ele>328.4</ele>
        <time>2021-04-03T15:32:57Z</time>
      </trkpt>
      <trkpt lat="46.64924" lon="5.60245">
        <ele>327.8</ele>
        <time>2021-04-03T15:33:02Z</time>
      </trkpt>
      <trkpt lat="46.64928" lon="5.60244">
        <ele>327.4</ele>
        <time>2021-04-03T15:33:06Z</time>
      </trkpt>
      <trkpt lat="46.64934" lon="5.60243">
        <ele>326.9</ele>
        <time>2021-04-03T15:33:11Z</time>
      </trkpt>
      <trkpt lat="46.64938" lon="5.6024">
        <ele>326.7</ele>
        <time>2021-04-03T15:33:16Z</time>
      </trkpt>
      <trkpt lat="46.64943" lon="5.60238">
        <ele>326.8</ele>
        <time>2021-04-03T15:33:21Z</time>
      </trkpt>
      <trkpt lat="46.64948" lon="5.60236">
        <ele>326.7</ele>
        <time>2021-04-03T15:33:26Z</time>
      </trkpt>
      <trkpt lat="46.64953" lon="5.60233">
        <ele>326.6</ele>
        <time>2021-04-03T15:33:31Z</time>
      </trkpt>
      <trkpt lat="46.64959" lon="5.60232">
        <ele>327</ele>
        <time>2021-04-03T15:33:36Z</time>
      </trkpt>
      <trkpt lat="46.64963" lon="5.60228">
        <ele>327.4</ele>
        <time>2021-04-03T15:33:40Z</time>
      </trkpt>
      <trkpt lat="46.64968" lon="5.60225">
        <ele>327.6</ele>
        <time>2021-04-03T15:33:44Z</time>
      </trkpt>
      <trkpt lat="46.64973" lon="5.60224">
        <ele>327.5</ele>
        <time>2021-04-03T15:33:48Z</time>
      </trkpt>
      <trkpt lat="46.64978" lon="5.60222">
        <ele>327.3</ele>
        <time>2021-04-03T15:33:52Z</time>
      </trkpt>
      <trkpt lat="46.64982" lon="5.6022">
        <ele>327</ele>
        <time>2021-04-03T15:33:56Z</time>
      </trkpt>
      <trkpt lat="46.64987" lon="5.60217">
        <ele>326.8</ele>
        <time>2021-04-03T15:34:00Z</time>
      </trkpt>
      <trkpt lat="46.64991" lon="5.60214">
        <ele>326.6</ele>
        <time>2021-04-03T15:34:04Z</time>
      </trkpt>
      <trkpt lat="46.64996" lon="5.60211">
        <ele>326.5</ele>
        <time>2021-04-03T15:34:08Z</time>
      </trkpt>
      <trkpt lat="46.65001" lon="5.60208">
        <ele>326</ele>
        <time>2021-04-03T15:34:12Z</time>
      </trkpt>
      <trkpt lat="46.65006" lon="5.60206">
        <ele>325</ele>
        <time>2021-04-03T15:34:16Z</time>
      </trkpt>
      <trkpt lat="46.65011" lon="5.60204">
        <ele>324.5</ele>
        <time>2021-04-03T15:34:20Z</time>
      </trkpt>
      <trkpt lat="46.65015" lon="5.60201">
        <ele>324.6</ele>
        <time>2021-04-03T15:34:24Z</time>
      </trkpt>
      <trkpt lat="46.6502" lon="5.60199">
        <ele>324.1</ele>
        <time>2021-04-03T15:34:28Z</time>
      </trkpt>
      <trkpt lat="46.65024" lon="5.60196">
        <ele>323.6</ele>
        <time>2021-04-03T15:34:33Z</time>
      </trkpt>
      <trkpt lat="46.65029" lon="5.60192">
        <ele>323.8</ele>
        <time>2021-04-03T15:34:39Z</time>
      </trkpt>
      <trkpt lat="46.65033" lon="5.6019">
        <ele>323.7</ele>
        <time>2021-04-03T15:34:43Z</time>
      </trkpt>
      <trkpt lat="46.65038" lon="5.60187">
        <ele>323.6</ele>
        <time>2021-04-03T15:34:47Z</time>
      </trkpt>
      <trkpt lat="46.65043" lon="5.60183">
        <ele>323.4</ele>
        <time>2021-04-03T15:34:52Z</time>
      </trkpt>
      <trkpt lat="46.65048" lon="5.6018">
        <ele>323.2</ele>
        <time>2021-04-03T15:34:57Z</time>
      </trkpt>
      <trkpt lat="46.65052" lon="5.60176">
        <ele>323</ele>
        <time>2021-04-03T15:35:01Z</time>
      </trkpt>
      <trkpt lat="46.65056" lon="5.60173">
        <ele>322.6</ele>
        <time>2021-04-03T15:35:06Z</time>
      </trkpt>
      <trkpt lat="46.6506" lon="5.60169">
        <ele>322.4</ele>
        <time>2021-04-03T15:35:11Z</time>
      </trkpt>
      <trkpt lat="46.65064" lon="5.60164">
        <ele>322.3</ele>
        <time>2021-04-03T15:35:15Z</time>
      </trkpt>
      <trkpt lat="46.65068" lon="5.6016">
        <ele>322.9</ele>
        <time>2021-04-03T15:35:20Z</time>
      </trkpt>
      <trkpt lat="46.65072" lon="5.60156">
        <ele>323.9</ele>
        <time>2021-04-03T15:35:25Z</time>
      </trkpt>
      <trkpt lat="46.65077" lon="5.60153">
        <ele>325.1</ele>
        <time>2021-04-03T15:35:31Z</time>
      </trkpt>
      <trkpt lat="46.65083" lon="5.60145">
        <ele>326.4</ele>
        <time>2021-04-03T15:35:36Z</time>
      </trkpt>
      <trkpt lat="46.65088" lon="5.60137">
        <ele>327.4</ele>
        <time>2021-04-03T15:35:40Z</time>
      </trkpt>
      <trkpt lat="46.65092" lon="5.60132">
        <ele>328</ele>
        <time>2021-04-03T15:35:45Z</time>
      </trkpt>
      <trkpt lat="46.65096" lon="5.60127">
        <ele>328.2</ele>
        <time>2021-04-03T15:35:51Z</time>
      </trkpt>
      <trkpt lat="46.651" lon="5.60123">
        <ele>328.1</ele>
        <time>2021-04-03T15:35:56Z</time>
      </trkpt>
      <trkpt lat="46.65103" lon="5.60117">
        <ele>329</ele>
        <time>2021-04-03T15:36:02Z</time>
      </trkpt>
      <trkpt lat="46.65108" lon="5.60114">
        <ele>329.6</ele>
        <time>2021-04-03T15:36:07Z</time>
      </trkpt>
      <trkpt lat="46.65113" lon="5.60111">
        <ele>329.4</ele>
        <time>2021-04-03T15:36:11Z</time>
      </trkpt>
      <trkpt lat="46.65118" lon="5.60107">
        <ele>328.8</ele>
        <time>2021-04-03T15:36:15Z</time>
      </trkpt>
      <trkpt lat="46.65124" lon="5.60106">
        <ele>327.4</ele>
        <time>2021-04-03T15:36:19Z</time>
      </trkpt>
      <trkpt lat="46.65129" lon="5.60104">
        <ele>325.9</ele>
        <time>2021-04-03T15:36:23Z</time>
      </trkpt>
      <trkpt lat="46.65134" lon="5.60104">
        <ele>324.2</ele>
        <time>2021-04-03T15:36:27Z</time>
      </trkpt>
      <trkpt lat="46.65138" lon="5.60102">
        <ele>322.4</ele>
        <time>2021-04-03T15:36:31Z</time>
      </trkpt>
      <trkpt lat="46.65143" lon="5.60101">
        <ele>320.6</ele>
        <time>2021-04-03T15:36:36Z</time>
      </trkpt>
      <trkpt lat="46.65149" lon="5.60098">
        <ele>319.1</ele>
        <time>2021-04-03T15:36:42Z</time>
      </trkpt>
      <trkpt lat="46.65153" lon="5.60097">
        <ele>318.1</ele>
        <time>2021-04-03T15:36:46Z</time>
      </trkpt>
      <trkpt lat="46.65159" lon="5.60095">
        <ele>317.2</ele>
        <time>2021-04-03T15:36:50Z</time>
      </trkpt>
      <trkpt lat="46.65163" lon="5.60093">
        <ele>316.3</ele>
        <time>2021-04-03T15:36:54Z</time>
      </trkpt>
      <trkpt lat="46.65169" lon="5.60092">
        <ele>315.4</ele>
        <time>2021-04-03T15:36:59Z</time>
      </trkpt>
      <trkpt lat="46.65173" lon="5.60088">
        <ele>314.6</ele>
        <time>2021-04-03T15:37:04Z</time>
      </trkpt>
      <trkpt lat="46.65178" lon="5.60086">
        <ele>313.8</ele>
        <time>2021-04-03T15:37:09Z</time>
      </trkpt>
      <trkpt lat="46.65182" lon="5.60083">
        <ele>312.9</ele>
        <time>2021-04-03T15:37:14Z</time>
      </trkpt>
      <trkpt lat="46.65186" lon="5.60078">
        <ele>312.4</ele>
        <time>2021-04-03T15:37:18Z</time>
      </trkpt>
      <trkpt lat="46.65189" lon="5.60074">
        <ele>311.6</ele>
        <time>2021-04-03T15:37:23Z</time>
      </trkpt>
      <trkpt lat="46.65194" lon="5.60072">
        <ele>310.7</ele>
        <time>2021-04-03T15:37:28Z</time>
      </trkpt>
      <trkpt lat="46.65199" lon="5.6007">
        <ele>310.1</ele>
        <time>2021-04-03T15:37:33Z</time>
      </trkpt>
      <trkpt lat="46.65204" lon="5.60067">
        <ele>309.4</ele>
        <time>2021-04-03T15:37:38Z</time>
      </trkpt>
      <trkpt lat="46.65208" lon="5.60062">
        <ele>309.5</ele>
        <time>2021-04-03T15:37:42Z</time>
      </trkpt>
      <trkpt lat="46.65212" lon="5.60057">
        <ele>310.2</ele>
        <time>2021-04-03T15:37:47Z</time>
      </trkpt>
      <trkpt lat="46.65217" lon="5.60055">
        <ele>310.6</ele>
        <time>2021-04-03T15:37:52Z</time>
      </trkpt>
      <trkpt lat="46.65221" lon="5.60051">
        <ele>311.3</ele>
        <time>2021-04-03T15:37:57Z</time>
      </trkpt>
      <trkpt lat="46.65226" lon="5.60049">
        <ele>312.1</ele>
        <time>2021-04-03T15:38:01Z</time>
      </trkpt>
      <trkpt lat="46.65231" lon="5.60047">
        <ele>313</ele>
        <time>2021-04-03T15:38:05Z</time>
      </trkpt>
      <trkpt lat="46.65235" lon="5.60044">
        <ele>313.7</ele>
        <time>2021-04-03T15:38:09Z</time>
      </trkpt>
      <trkpt lat="46.65239" lon="5.6004">
        <ele>314.2</ele>
        <time>2021-04-03T15:38:18Z</time>
      </trkpt>
      <trkpt lat="46.65243" lon="5.60036">
        <ele>314.2</ele>
        <time>2021-04-03T15:38:25Z</time>
      </trkpt>
      <trkpt lat="46.65245" lon="5.6003">
        <ele>314.4</ele>
        <time>2021-04-03T15:38:30Z</time>
      </trkpt>
      <trkpt lat="46.65247" lon="5.60023">
        <ele>314</ele>
        <time>2021-04-03T15:38:37Z</time>
      </trkpt>
      <trkpt lat="46.6525" lon="5.60017">
        <ele>313.6</ele>
        <time>2021-04-03T15:38:42Z</time>
      </trkpt>
      <trkpt lat="46.65252" lon="5.6001">
        <ele>313.2</ele>
        <time>2021-04-03T15:38:47Z</time>
      </trkpt>
      <trkpt lat="46.65255" lon="5.60003">
        <ele>312.2</ele>
        <time>2021-04-03T15:38:52Z</time>
      </trkpt>
      <trkpt lat="46.65259" lon="5.59999">
        <ele>310.8</ele>
        <time>2021-04-03T15:39:00Z</time>
      </trkpt>
    </trkseg>
  </trk>
</gpx>